[[{"header":{"parameterUnit":"m.s-1","parameterCategory":1,"la1":31.0,"la2":29.5877,"lo1":-88.7671,"lo2":-86.6584,"dy":0.0162,"dx":0.0185,"nx":115,"ny":88,"refTime":"2024-05-09T12:00:00:Z","depth":0,"parameterNumber":2,"parameterNumberName":"U-component_of_WINDS"},"data":[0.0,0.0,0.0,0.0,0.0,0.0,0.0,0.0,0.0,0.0,0.0,0.0,0.0,0.0,0.0,0.0,0.0,0.0,0.0,0.0,0.0,0.0,0.0,0.0,0.0,0.0,0.0,0.0,0.0,0.0,0.0,0.0,0.0,0.0,0.0,0.0,0.0,0.0,0.0,0.0,0.0,0.0,0.0,0.0,0.0,0.0,0.0,0.0,0.0,0.0,0.0,0.0,0.0,0.0,0.0,0.0,0.0,0.0,0.0,0.0,0.0,0.0,0.0,0.0,0.0,0.0,0.0,0.0,0.0,0.0,0.0,0.0,0.0,0.0,0.0,0.0,0.0,0.0,0.0,0.0,0.0,0.0,0.0,0.0,0.0,0.0,0.0,0.0,0.0,0.0,0.0,0.0,0.0,0.0,0.0,0.0,0.0,0.0,0.0,0.0,0.0,0.0,0.0,0.0,0.0,0.0,0.0,0.0,0.0,0.0,0.0,0.0,0.0,0.0,0.0,0.0,0.0,0.0,0.0,0.0,0.0,0.0,0.0,0.0,0.0,0.0,0.0,0.0,0.0,0.0,0.0,0.0,0.0,0.0,0.0,0.0,0.0,0.0,0.0,0.0,0.0,0.0,0.0,0.0,0.0,0.0,0.0,0.0,0.0,0.0,0.0,0.0,0.0,0.0,0.0,0.0,0.0,0.0,0.0,0.0,0.0,0.0,0.0,0.0,0.0,0.0,0.0,0.0,0.0,0.0,0.0,0.0,0.0,0.0,0.0,0.0,0.0,0.0,0.0,0.0,0.0,0.0,0.0,0.0,0.0,0.0,0.0,0.0,0.0,0.0,0.0,0.0,0.0,0.0,0.0,0.0,0.0,0.0,0.0,0.0,0.0,0.0,0.0,0.0,0.0,0.0,0.0,0.0,0.0,0.0,0.0,0.0,0.0,0.0,0.0,0.0,0.0,0.0,0.0,0.0,0.0,0.0,0.0,0.0,0.0,0.0,0.0,0.0,0.0,0.0,0.0,0.0,0.0,0.0,0.0,0.0,0.0,0.0,0.0,0.0,0.0,0.0,0.0,0.0,0.0,0.0,0.0,0.0,0.0,0.0,0.0,0.0,0.0,0.0,0.0,0.0,0.0,0.0,0.0,0.0,0.0,0.0,0.0,0.0,0.0,0.0,0.0,0.0,0.0,0.0,0.0,0.0,0.0,0.0,0.0,0.0,0.0,0.0,0.0,0.0,0.0,0.0,0.0,0.0,0.0,0.0,0.0,0.0,0.0,0.0,0.0,0.0,0.0,0.0,0.0,0.0,0.0,0.0,0.0,0.0,0.0,0.0,0.0,0.0,0.0,0.0,0.0,0.0,0.0,0.0,0.0,0.0,0.0,0.0,0.0,0.0,0.0,0.0,0.0,0.0,0.0,0.0,0.0,0.0,0.0,0.0,0.0,0.0,0.0,0.0,0.0,0.0,0.0,0.0,0.0,0.0,0.0,0.0,0.0,0.0,0.0,0.0,0.0,0.0,0.0,0.0,0.0,0.0,0.0,0.0,0.0,0.0,0.0,0.0,0.0,0.0,0.0,0.0,0.0,0.0,0.0,0.0,0.0,0.0,0.0,0.0,0.0,0.0,0.0,0.0,0.0,0.0,0.0,0.0,0.0,0.0,0.0,0.0,0.0,0.0,0.0,0.0,0.0,0.0,0.0,0.0,0.0,0.0,0.0,0.0,0.0,0.0,0.0,0.0,0.0,0.0,0.0,0.0,0.0,0.0,0.0,0.0,0.0,0.0,0.0,0.0,0.0,0.0,0.0,0.0,0.0,0.0,0.0,0.0,0.0,0.0,0.0,0.0,0.0,0.0,0.0,0.0,0.0,0.0,0.0,0.0,0.0,0.0,0.0,0.0,0.0,0.0,0.0,0.0,0.0,0.0,0.0,0.0,0.0,0.0,0.0,0.0,0.0,0.0,0.0,0.0,0.0,0.0,0.0,0.0,0.0,0.0,0.0,0.0,0.0,0.0,0.0,0.0,0.0,0.0,0.0,0.0,0.0,0.0,0.0,0.0,0.0,0.0,0.0,0.0,0.0,0.0,0.0,0.0,0.0,0.0,0.0,0.0,0.0,0.0,0.0,0.0,0.0,0.0,0.0,0.0,0.0,0.0,0.0,0.0,0.0,0.0,0.0,0.0,0.0,0.0,0.0,0.0,0.0,0.0,0.0,0.0,0.0,0.0,0.0,0.0,0.0,0.0,0.0,0.0,0.0,0.0,0.0,0.0,0.0,0.0,0.0,0.0,0.0,0.0,0.0,0.0,0.0,0.0,0.0,0.0,0.0,0.0,0.0,0.0,0.0,0.0,0.0,0.0,0.0,0.0,0.0,0.0,0.0,0.0,0.0,0.0,0.0,0.0,0.0,0.0,0.0,0.0,0.0,0.0,0.0,0.0,0.0,0.0,0.0,0.0,0.0,0.0,0.0,0.0,0.0,0.0,0.0,0.0,0.0,0.0,0.0,0.0,0.0,0.0,0.0,0.0,0.0,0.0,0.0,0.0,0.0,0.0,0.0,0.0,0.0,0.0,0.0,0.0,0.0,0.0,0.0,0.0,0.0,0.0,0.0,0.0,0.0,0.0,0.0,0.0,0.0,0.0,0.0,0.0,0.0,0.0,0.0,0.0,0.0,0.0,0.0,0.0,0.0,0.0,0.0,0.0,0.0,0.0,0.0,0.0,0.0,0.0,0.0,0.0,0.0,0.0,0.0,0.0,0.0,0.0,0.0,0.0,0.0,0.0,0.0,0.0,0.0,0.0,0.0,0.0,0.0,0.0,0.0,0.0,0.0,0.0,0.0,0.0,0.0,0.0,0.0,0.0,0.0,0.0,0.0,0.0,0.0,0.0,0.0,0.0,0.0,0.0,0.0,0.0,0.0,0.0,0.0,0.0,0.0,0.0,0.0,0.0,0.0,0.0,0.0,0.0,0.0,0.0,0.0,0.0,0.0,0.0,0.0,0.0,0.0,0.0,0.0,0.0,0.0,0.0,0.0,0.0,0.0,0.0,0.0,0.0,0.0,0.0,0.0,0.0,0.0,0.0,0.0,0.0,0.0,0.0,0.0,0.0,0.0,0.0,0.0,0.0,0.0,0.0,0.0,0.0,0.0,0.0,0.0,0.0,0.0,0.0,0.0,0.0,0.0,0.0,0.0,0.0,0.0,0.0,0.0,0.0,0.0,0.0,0.0,0.0,0.0,0.0,0.0,0.0,0.0,0.0,0.0,0.0,0.0,0.0,0.0,0.0,0.0,0.0,0.0,0.0,0.0,0.0,0.0,0.0,0.0,0.0,0.0,0.0,0.0,0.0,0.0,0.0,0.0,0.0,0.0,0.0,0.0,0.0,0.0,0.0,0.0,0.0,0.0,0.0,0.0,0.0,0.0,0.0,0.0,0.0,0.0,0.0,0.0,0.0,0.0,0.0,0.0,0.0,0.0,0.0,0.0,0.0,0.0,0.0,0.0,0.0,0.0,0.0,0.0,0.0,0.0,0.0,0.0,0.0,0.0,0.0,0.0,0.0,0.0,0.0,0.0,0.0,0.0,0.0,0.0,0.0,0.0,0.0,0.0,0.0,0.0,0.0,0.0,0.0,0.0,0.0,0.0,0.0,0.0,0.0,0.0,0.0,0.0,0.0,0.0,0.0,0.0,0.0,0.0,0.0,0.0,0.0,0.0,0.0,0.0,0.0,0.0,0.0,0.0,0.0,0.0,0.0,0.0,0.0,0.0,0.0,0.0,0.0,0.0,0.0,0.0,0.0,0.0,0.0,0.0,0.0,0.0,0.0,0.0,0.0,0.0,0.0,0.0,0.0,0.0,0.0,0.0,0.0,0.0,0.0,0.0,0.0,0.0,0.0,0.0,0.0,0.0,0.0,0.0,0.0,0.0,0.0,0.0,0.0,0.0,0.0,0.0,0.0,0.0,0.0,0.0,0.0,0.0,0.0,0.0,0.0,0.0,0.0,0.0,0.0,0.0,0.0,0.0,0.0,0.0,0.0,0.0,0.0,0.0,0.0,0.0,0.0,0.0,0.0,0.0,0.0,0.0,0.0,0.0,0.0,0.0,0.0,0.0,0.0,0.0,0.0,0.0,0.0,0.0,0.0,0.0,0.0,0.0,0.0,0.0,0.0,0.0,0.0,0.0,0.0,0.0,0.0,0.0,0.0,0.0,0.0,0.0,0.0,0.0,0.0,0.0,0.0,0.0,0.0,0.0,0.0,0.0,0.0,3.4435,0.0,0.0,0.0,0.0,0.0,0.0,0.0,0.0,0.0,0.0,0.0,0.0,0.0,0.0,0.0,0.0,0.0,0.0,0.0,0.0,0.0,0.0,0.0,0.0,0.0,0.0,0.0,0.0,0.0,0.0,0.0,0.0,0.0,0.0,0.0,0.0,0.0,0.0,0.0,0.0,0.0,0.0,0.0,0.0,0.0,0.0,0.0,0.0,0.0,0.0,0.0,0.0,0.0,0.0,0.0,0.0,0.0,0.0,0.0,0.0,0.0,0.0,0.0,0.0,0.0,0.0,0.0,0.0,0.0,0.0,0.0,0.0,0.0,0.0,0.0,0.0,0.0,0.0,0.0,0.0,0.0,0.0,0.0,0.0,0.0,0.0,0.0,0.0,0.0,0.0,0.0,0.0,0.0,0.0,0.0,0.0,0.0,0.0,0.0,0.0,0.0,0.0,0.0,0.0,0.0,0.0,0.0,0.0,0.0,0.0,3.4703,3.5913,3.3844,3.3532,3.5291,0.0,0.0,0.0,0.0,0.0,0.0,0.0,0.0,0.0,0.0,0.0,0.0,0.0,0.0,0.0,0.0,0.0,0.0,0.0,0.0,0.0,0.0,0.0,0.0,0.0,0.0,0.0,0.0,0.0,0.0,0.0,0.0,0.0,0.0,0.0,0.0,0.0,0.0,0.0,0.0,0.0,0.0,0.0,0.0,0.0,0.0,0.0,0.0,0.0,0.0,0.0,0.0,0.0,0.0,0.0,0.0,0.0,0.0,0.0,0.0,0.0,0.0,0.0,0.0,0.0,0.0,0.0,0.0,0.0,0.0,0.0,0.0,0.0,0.0,0.0,0.0,0.0,0.0,0.0,0.0,0.0,0.0,0.0,0.0,0.0,0.0,0.0,0.0,0.0,0.0,0.0,0.0,0.0,0.0,0.0,0.0,0.0,0.0,0.0,0.0,0.0,0.0,0.0,0.0,0.0,0.0,0.0,0.0,0.0,0.0,0.0,0.0,3.5525,3.5369,3.7321,0.0,0.0,0.0,0.0,0.0,0.0,0.0,0.0,0.0,0.0,0.0,0.0,0.0,0.0,0.0,0.0,0.0,0.0,0.0,0.0,0.0,0.0,0.0,0.0,0.0,0.0,0.0,0.0,0.0,0.0,0.0,0.0,0.0,0.0,0.0,0.0,0.0,0.0,0.0,0.0,0.0,0.0,0.0,0.0,0.0,0.0,0.0,0.0,0.0,0.0,0.0,0.0,0.0,0.0,0.0,0.0,0.0,0.0,0.0,0.0,0.0,0.0,0.0,0.0,0.0,0.0,0.0,0.0,0.0,0.0,0.0,0.0,0.0,0.0,0.0,0.0,0.0,0.0,0.0,0.0,0.0,0.0,0.0,0.0,0.0,0.0,0.0,0.0,0.0,0.0,0.0,0.0,0.0,0.0,0.0,0.0,0.0,0.0,0.0,0.0,0.0,0.0,0.0,0.0,0.0,0.0,0.0,0.0,0.0,0.0,3.7789,4.1693,4.1537,0.0,4.1693,0.0,0.0,0.0,0.0,0.0,0.0,0.0,0.0,0.0,0.0,0.0,0.0,0.0,0.0,0.0,0.0,0.0,0.0,0.0,0.0,0.0,0.0,0.0,0.0,0.0,0.0,0.0,0.0,0.0,0.0,0.0,0.0,0.0,0.0,0.0,0.0,0.0,0.0,0.0,0.0,0.0,0.0,0.0,0.0,0.0,0.0,0.0,0.0,0.0,0.0,0.0,0.0,0.0,0.0,0.0,0.0,0.0,0.0,0.0,0.0,0.0,0.0,0.0,0.0,0.0,0.0,0.0,0.0,0.0,0.0,0.0,0.0,0.0,0.0,0.0,0.0,0.0,0.0,0.0,0.0,0.0,0.0,0.0,0.0,0.0,0.0,0.0,0.0,0.0,0.0,0.0,0.0,0.0,0.0,0.0,0.0,0.0,0.0,0.0,0.0,0.0,0.0,0.0,0.0,0.0,0.0,0.0,0.0,0.0,0.0,3.9078,4.2357,4.2396,4.1693,0.0,0.0,0.0,0.0,0.0,0.0,0.0,0.0,0.0,0.0,0.0,0.0,0.0,0.0,0.0,0.0,0.0,0.0,0.0,0.0,0.0,0.0,0.0,0.0,0.0,0.0,0.0,0.0,0.0,0.0,0.0,0.0,0.0,0.0,0.0,0.0,0.0,0.0,0.0,0.0,0.0,0.0,0.0,0.0,0.0,0.0,0.0,0.0,0.0,0.0,0.0,0.0,0.0,0.0,0.0,0.0,0.0,0.0,0.0,0.0,0.0,0.0,0.0,0.0,0.0,0.0,0.0,0.0,0.0,0.0,0.0,0.0,0.0,0.0,0.0,0.0,0.0,0.0,0.0,0.0,0.0,0.0,0.0,0.0,0.0,0.0,0.0,0.0,0.0,0.0,0.0,0.0,0.0,0.0,0.0,0.0,0.0,0.0,0.0,0.0,0.0,0.0,0.0,0.0,0.0,0.0,0.0,0.0,0.0,0.0,3.9702,4.0756,4.3567,4.2669,4.1186,3.9354,0.0,0.0,0.0,0.0,0.0,0.0,0.0,0.0,0.0,0.0,0.0,0.0,0.0,0.0,0.0,0.0,0.0,0.0,0.0,0.0,0.0,0.0,0.0,0.0,0.0,0.0,0.0,0.0,0.0,0.0,0.0,0.0,0.0,0.0,0.0,0.0,0.0,0.0,0.0,0.0,0.0,0.0,0.0,0.0,0.0,0.0,0.0,0.0,0.0,0.0,0.0,0.0,0.0,0.0,0.0,0.0,0.0,0.0,0.0,0.0,0.0,0.0,0.0,0.0,0.0,0.0,0.0,0.0,0.0,0.0,0.0,0.0,0.0,0.0,0.0,0.0,0.0,0.0,0.0,0.0,0.0,0.0,0.0,0.0,0.0,0.0,0.0,0.0,0.0,0.0,0.0,0.0,0.0,0.0,0.0,0.0,0.0,0.0,0.0,0.0,0.0,0.0,0.0,0.0,0.0,0.0,0.0,0.0,4.7588,4.3411,4.3021,4.7002,4.3333,4.1108,0.0,0.0,0.0,0.0,0.0,0.0,0.0,0.0,0.0,0.0,0.0,0.0,0.0,0.0,0.0,0.0,0.0,0.0,0.0,0.0,0.0,0.0,0.0,0.0,0.0,0.0,0.0,0.0,0.0,0.0,0.0,0.0,0.0,0.0,0.0,0.0,0.0,0.0,0.0,0.0,0.0,0.0,0.0,0.0,0.0,0.0,0.0,0.0,0.0,0.0,0.0,0.0,0.0,0.0,0.0,0.0,0.0,0.0,0.0,0.0,0.0,0.0,0.0,0.0,0.0,0.0,0.0,0.0,0.0,0.0,0.0,0.0,0.0,0.0,0.0,0.0,0.0,0.0,0.0,0.0,0.0,0.0,0.0,0.0,0.0,0.0,0.0,0.0,0.0,0.0,0.0,0.0,0.0,0.0,0.0,0.0,0.0,0.0,0.0,0.0,0.0,0.0,0.0,0.0,0.0,0.0,0.0,0.0,0.0,4.0522,4.1967,4.3762,4.5753,4.3879,4.2513,0.0,0.0,0.0,0.0,0.0,0.0,0.0,0.0,0.0,0.0,0.0,0.0,0.0,0.0,0.0,0.0,0.0,0.0,0.0,0.0,0.0,0.0,0.0,0.0,0.0,0.0,0.0,0.0,0.0,0.0,0.0,0.0,0.0,0.0,0.0,0.0,0.0,0.0,0.0,0.0,0.0,0.0,0.0,0.0,0.0,0.0,0.0,0.0,0.0,0.0,0.0,0.0,0.0,0.0,0.0,0.0,0.0,0.0,0.0,0.0,0.0,0.0,0.0,0.0,0.0,0.0,0.0,0.0,0.0,0.0,0.0,0.0,0.0,0.0,0.0,0.0,0.0,0.0,0.0,0.0,0.0,0.0,0.0,0.0,0.0,0.0,0.0,0.0,0.0,0.0,0.0,0.0,0.0,0.0,0.0,0.0,0.0,0.0,0.0,0.0,0.0,0.0,0.0,0.0,0.0,0.0,0.0,0.0,0.0,3.8961,0.0,4.4543,4.4543,4.345,4.1927,0.0,0.0,0.0,0.0,0.0,0.0,0.0,0.0,0.0,0.0,0.0,0.0,0.0,0.0,0.0,0.0,0.0,0.0,0.0,0.0,0.0,0.0,0.0,0.0,0.0,0.0,0.0,0.0,0.0,0.0,0.0,0.0,0.0,0.0,0.0,0.0,0.0,0.0,0.0,0.0,0.0,0.0,0.0,0.0,0.0,0.0,0.0,0.0,0.0,0.0,0.0,0.0,0.0,0.0,0.0,0.0,0.0,0.0,0.0,0.0,0.0,0.0,0.0,0.0,0.0,0.0,0.0,0.0,0.0,0.0,0.0,0.0,0.0,0.0,0.0,0.0,0.0,0.0,0.0,0.0,0.0,0.0,0.0,0.0,0.0,0.0,0.0,0.0,0.0,0.0,0.0,0.0,0.0,0.0,0.0,0.0,0.0,0.0,0.0,0.0,0.0,0.0,0.0,0.0,0.0,0.0,0.0,0.0,3.978,4.4582,4.5597,4.5363,4.3801,4.2084,3.9195,0.0,0.0,0.0,0.0,0.0,0.0,0.0,0.0,0.0,0.0,0.0,0.0,0.0,0.0,0.0,0.0,0.0,0.0,0.0,0.0,0.0,0.0,0.0,0.0,0.0,0.0,0.0,0.0,0.0,0.0,0.0,0.0,0.0,0.0,0.0,0.0,0.0,0.0,0.0,0.0,0.0,0.0,0.0,0.0,0.0,0.0,0.0,0.0,0.0,0.0,0.0,0.0,0.0,0.0,0.0,0.0,0.0,0.0,0.0,0.0,0.0,0.0,0.0,0.0,0.0,0.0,0.0,0.0,0.0,0.0,0.0,0.0,0.0,0.0,0.0,0.0,0.0,0.0,0.0,0.0,0.0,0.0,0.0,0.0,0.0,0.0,0.0,0.0,0.0,0.0,0.0,0.0,0.0,0.0,0.0,0.0,0.0,0.0,0.0,0.0,0.0,0.0,0.0,0.0,0.0,0.0,0.0,0.0,0.0,4.2279,4.3138,4.4777,4.6924,4.2123,4.0447,0.0,0.0,0.0,0.0,0.0,0.0,0.0,0.0,0.0,0.0,0.0,0.0,0.0,0.0,0.0,0.0,0.0,0.0,0.0,0.0,0.0,0.0,0.0,0.0,0.0,0.0,0.0,0.0,0.0,0.0,0.0,0.0,0.0,0.0,0.0,0.0,0.0,0.0,0.0,0.0,0.0,0.0,0.0,0.0,0.0,0.0,0.0,0.0,0.0,0.0,0.0,0.0,0.0,0.0,0.0,0.0,0.0,0.0,0.0,0.0,0.0,0.0,0.0,0.0,0.0,0.0,0.0,0.0,0.0,0.0,0.0,0.0,0.0,0.0,0.0,0.0,0.0,0.0,0.0,0.0,0.0,0.0,0.0,0.0,0.0,0.0,0.0,0.0,0.0,0.0,0.0,0.0,0.0,0.0,0.0,0.0,0.0,0.0,0.0,0.0,0.0,0.0,0.0,0.0,0.0,0.0,0.0,0.0,0.0,4.6417,4.63,4.7042,4.8759,4.4621,4.2708,4.3294,0.0,0.0,0.0,0.0,0.0,0.0,0.0,0.0,0.0,0.0,0.0,0.0,0.0,0.0,0.0,0.0,0.0,0.0,0.0,0.0,0.0,0.0,0.0,0.0,0.0,0.0,0.0,0.0,0.0,0.0,0.0,0.0,0.0,0.0,0.0,0.0,0.0,0.0,0.0,0.0,0.0,0.0,0.0,0.0,0.0,0.0,0.0,0.0,0.0,0.0,0.0,0.0,0.0,0.0,0.0,0.0,0.0,0.0,0.0,0.0,0.0,0.0,0.0,0.0,0.0,0.0,0.0,0.0,0.0,0.0,0.0,0.0,0.0,0.0,0.0,0.0,0.0,0.0,0.0,0.0,0.0,0.0,0.0,0.0,0.0,0.0,0.0,0.0,0.0,0.0,0.0,0.0,0.0,0.0,0.0,0.0,0.0,0.0,0.0,0.0,0.0,0.0,0.0,0.0,0.0,0.0,0.0,0.0,5.563,5.4498,5.2741,5.0087,4.9341,4.5945,0.0,0.0,0.0,0.0,0.0,0.0,0.0,0.0,0.0,0.0,0.0,0.0,0.0,0.0,0.0,0.0,0.0,0.0,0.0,0.0,0.0,0.0,0.0,0.0,0.0,0.0,0.0,0.0,0.0,0.0,0.0,0.0,0.0,0.0,0.0,0.0,0.0,0.0,0.0,0.0,0.0,0.0,0.0,0.0,0.0,0.0,0.0,0.0,0.0,0.0,0.0,0.0,0.0,0.0,0.0,0.0,0.0,0.0,0.0,0.0,0.0,0.0,0.0,0.0,0.0,0.0,0.0,0.0,0.0,0.0,0.0,0.0,0.0,0.0,0.0,0.0,0.0,0.0,0.0,0.0,0.0,0.0,0.0,0.0,0.0,0.0,0.0,0.0,0.0,0.0,0.0,0.0,0.0,0.0,0.0,0.0,0.0,0.0,0.0,0.0,0.0,0.0,0.0,0.0,0.0,0.0,0.0,0.0,0.0,6.0041,6.5741,6.6634,6.2134,5.5255,5.0452,0.0,0.0,0.0,0.0,0.0,0.0,0.0,0.0,0.0,0.0,0.0,0.0,0.0,0.0,0.0,0.0,0.0,0.0,0.0,0.0,0.0,0.0,0.0,0.0,0.0,0.0,0.0,0.0,0.0,0.0,0.0,0.0,0.0,0.0,0.0,0.0,0.0,0.0,0.0,0.0,0.0,0.0,0.0,0.0,0.0,0.0,0.0,0.0,0.0,0.0,0.0,0.0,0.0,0.0,0.0,0.0,0.0,0.0,0.0,0.0,0.0,0.0,0.0,0.0,0.0,0.0,0.0,0.0,0.0,0.0,0.0,0.0,0.0,0.0,0.0,0.0,0.0,0.0,0.0,0.0,0.0,0.0,0.0,0.0,0.0,0.0,0.0,0.0,0.0,0.0,0.0,0.0,0.0,0.0,0.0,0.0,0.0,0.0,0.0,0.0,0.0,0.0,0.0,0.0,0.0,0.0,0.0,0.0,6.1871,6.549,7.5287,7.8667,7.4975,6.4981,5.6829,0.0,0.0,0.0,0.0,0.0,0.0,0.0,0.0,0.0,0.0,0.0,0.0,0.0,0.0,0.0,0.0,0.0,0.0,0.0,0.0,0.0,0.0,0.0,0.0,0.0,0.0,0.0,0.0,0.0,0.0,0.0,0.0,0.0,0.0,0.0,0.0,0.0,0.0,0.0,0.0,0.0,0.0,0.0,0.0,0.0,0.0,0.0,0.0,0.0,0.0,0.0,0.0,0.0,0.0,0.0,0.0,0.0,0.0,0.0,0.0,0.0,0.0,0.0,0.0,0.0,0.0,0.0,0.0,0.0,0.0,0.0,0.0,0.0,0.0,0.0,0.0,0.0,0.0,0.0,0.0,0.0,0.0,0.0,0.0,0.0,0.0,0.0,0.0,0.0,0.0,0.0,0.0,0.0,0.0,0.0,0.0,0.0,0.0,0.0,0.0,0.0,0.0,0.0,0.0,0.0,0.0,0.0,0.0,6.8385,7.1448,8.302,8.8189,8.605,7.5296,6.365,0.0,0.0,0.0,0.0,0.0,0.0,0.0,0.0,0.0,0.0,0.0,0.0,0.0,0.0,0.0,0.0,0.0,0.0,0.0,0.0,0.0,0.0,0.0,0.0,0.0,0.0,0.0,0.0,0.0,0.0,0.0,0.0,0.0,0.0,0.0,0.0,0.0,0.0,0.0,0.0,0.0,0.0,0.0,0.0,0.0,0.0,0.0,0.0,0.0,0.0,0.0,0.0,0.0,0.0,0.0,0.0,0.0,0.0,0.0,0.0,0.0,0.0,0.0,0.0,0.0,0.0,0.0,0.0,0.0,0.0,0.0,0.0,0.0,0.0,0.0,0.0,0.0,0.0,0.0,0.0,0.0,0.0,0.0,0.0,0.0,0.0,0.0,0.0,0.0,0.0,0.0,0.0,0.0,0.0,0.0,0.0,0.0,0.0,0.0,0.0,0.0,0.0,0.0,0.0,0.0,0.0,0.0,0.0,7.0714,7.6755,8.7156,9.1142,8.8014,7.5677,6.5582,0.0,0.0,0.0,0.0,0.0,0.0,0.0,0.0,0.0,0.0,0.0,0.0,0.0,0.0,0.0,0.0,0.0,0.0,0.0,0.0,0.0,0.0,0.0,0.0,0.0,0.0,0.0,0.0,0.0,0.0,0.0,0.0,0.0,0.0,0.0,0.0,0.0,0.0,0.0,0.0,0.0,0.0,0.0,0.0,0.0,0.0,0.0,0.0,4.6005,0.0,0.0,0.0,0.0,0.0,0.0,0.0,0.0,0.0,0.0,0.0,0.0,0.0,0.0,0.0,0.0,0.0,0.0,0.0,0.0,0.0,0.0,0.0,0.0,0.0,0.0,0.0,0.0,0.0,0.0,0.0,0.0,0.0,0.0,0.0,0.0,0.0,0.0,0.0,0.0,0.0,0.0,0.0,0.0,0.0,0.0,0.0,0.0,0.0,0.0,0.0,0.0,0.0,0.0,0.0,0.0,0.0,0.0,0.0,7.3228,8.0076,8.9036,9.2015,8.83,7.7735,6.8642,0.0,0.0,0.0,0.0,0.0,0.0,0.0,0.0,0.0,0.0,0.0,0.0,0.0,0.0,0.0,0.0,0.0,0.0,0.0,0.0,0.0,0.0,0.0,0.0,0.0,0.0,0.0,0.0,0.0,0.0,0.0,0.0,0.0,0.0,0.0,0.0,0.0,0.0,0.0,0.0,0.0,0.0,0.0,0.0,0.0,0.0,0.0,0.0,0.0,0.0,0.0,0.0,0.0,0.0,0.0,0.0,0.0,0.0,0.0,0.0,0.0,0.0,0.0,0.0,0.0,0.0,0.0,0.0,0.0,0.0,0.0,0.0,0.0,0.0,0.0,0.0,0.0,0.0,0.0,0.0,0.0,0.0,0.0,0.0,0.0,0.0,0.0,0.0,0.0,0.0,0.0,0.0,0.0,0.0,0.0,0.0,0.0,0.0,0.0,0.0,0.0,0.0,0.0,0.0,0.0,0.0,0.0,6.7032,7.5278,8.2959,9.0015,9.1951,8.8286,8.0177,7.1729,6.3208,0.0,0.0,0.0,0.0,0.0,0.0,0.0,0.0,0.0,0.0,0.0,0.0,0.0,0.0,0.0,0.0,0.0,0.0,0.0,0.0,0.0,0.0,0.0,0.0,0.0,0.0,0.0,0.0,0.0,0.0,0.0,0.0,0.0,0.0,0.0,0.0,0.0,0.0,4.0674,4.1253,0.0,0.0,0.0,0.0,0.0,0.0,0.0,0.0,4.8547,0.0,0.0,0.0,0.0,0.0,0.0,0.0,0.0,0.0,0.0,0.0,0.0,0.0,0.0,0.0,0.0,0.0,0.0,0.0,0.0,0.0,0.0,0.0,0.0,0.0,0.0,0.0,0.0,0.0,0.0,0.0,0.0,0.0,0.0,0.0,0.0,0.0,0.0,0.0,0.0,0.0,0.0,0.0,0.0,0.0,0.0,0.0,0.0,0.0,0.0,0.0,0.0,0.0,0.0,0.0,0.0,6.587,6.8522,7.5494,8.722,9.1561,9.1651,8.7362,8.0931,7.3184,6.4105,0.0,0.0,0.0,0.0,0.0,0.0,0.0,0.0,0.0,0.0,0.0,0.0,0.0,0.0,0.0,0.0,0.0,0.0,0.0,0.0,0.0,0.0,0.0,0.0,0.0,0.0,0.0,0.0,0.0,0.0,0.0,0.0,0.0,0.0,0.0,0.0,0.0,0.0,0.0,4.5336,4.5935,0.0,0.0,0.0,0.0,0.0,0.0,0.0,0.0,5.4266,0.0,0.0,0.0,0.0,0.0,0.0,0.0,0.0,0.0,0.0,0.0,0.0,0.0,0.0,0.0,0.0,0.0,0.0,0.0,0.0,0.0,0.0,0.0,0.0,0.0,0.0,0.0,0.0,0.0,0.0,0.0,0.0,0.0,0.0,0.0,0.0,0.0,0.0,0.0,0.0,0.0,0.0,0.0,0.0,0.0,0.0,0.0,0.0,0.0,0.0,0.0,0.0,0.0,0.0,0.0,6.6728,6.9986,7.6721,8.7429,8.9482,8.8456,8.4532,7.7672,7.0484,0.0,0.0,0.0,0.0,0.0,0.0,0.0,0.0,0.0,0.0,0.0,0.0,0.0,0.0,0.0,0.0,0.0,0.0,0.0,0.0,0.0,0.0,0.0,0.0,0.0,0.0,0.0,0.0,0.0,0.0,0.0,0.0,0.0,0.0,0.0,0.0,0.0,0.0,0.0,0.0,4.9997,5.1297,5.6757,0.0,0.0,0.0,0.0,0.0,0.0,5.6131,5.4858,0.0,0.0,0.0,0.0,0.0,0.0,0.0,0.0,0.0,0.0,0.0,0.0,0.0,0.0,0.0,0.0,0.0,0.0,0.0,0.0,0.0,0.0,0.0,0.0,0.0,0.0,0.0,0.0,0.0,0.0,0.0,0.0,0.0,0.0,0.0,0.0,0.0,0.0,0.0,0.0,0.0,0.0,0.0,0.0,0.0,0.0,0.0,0.0,0.0,0.0,0.0,0.0,0.0,0.0,0.0,6.6252,7.06,7.7139,8.5923,8.6429,8.4793,8.1325,7.4184,6.7463,0.0,0.0,0.0,0.0,0.0,0.0,0.0,0.0,0.0,0.0,0.0,0.0,0.0,0.0,0.0,0.0,0.0,0.0,0.0,0.0,0.0,0.0,0.0,0.0,0.0,0.0,0.0,0.0,0.0,0.0,0.0,0.0,0.0,0.0,0.0,0.0,0.0,0.0,0.0,0.0,0.0,5.6074,6.2502,5.8104,0.0,0.0,0.0,0.0,5.6703,5.7145,0.0,0.0,0.0,0.0,0.0,0.0,0.0,0.0,0.0,0.0,0.0,0.0,0.0,0.0,0.0,0.0,0.0,0.0,0.0,0.0,0.0,0.0,0.0,0.0,0.0,0.0,0.0,0.0,0.0,0.0,0.0,0.0,0.0,0.0,0.0,0.0,0.0,0.0,0.0,0.0,0.0,0.0,0.0,0.0,0.0,0.0,0.0,0.0,0.0,0.0,0.0,0.0,0.0,0.0,0.0,0.0,6.5316,6.9128,7.5112,8.3312,8.3819,8.2221,7.8792,7.309,6.6972,0.0,0.0,0.0,0.0,0.0,0.0,0.0,0.0,0.0,0.0,0.0,0.0,0.0,0.0,0.0,0.0,0.0,0.0,0.0,0.0,0.0,0.0,0.0,0.0,0.0,0.0,0.0,0.0,0.0,0.0,0.0,0.0,0.0,0.0,0.0,0.0,0.0,0.0,0.0,0.0,0.0,5.6777,6.2696,5.9088,5.5547,0.0,0.0,0.0,6.3589,6.7652,0.0,0.0,0.0,0.0,0.0,0.0,0.0,0.0,0.0,0.0,0.0,0.0,0.0,0.0,0.0,0.0,0.0,0.0,0.0,0.0,0.0,0.0,0.0,0.0,0.0,0.0,0.0,0.0,0.0,0.0,0.0,0.0,0.0,0.0,0.0,0.0,0.0,0.0,0.0,0.0,0.0,0.0,0.0,0.0,0.0,0.0,0.0,0.0,0.0,0.0,0.0,0.0,0.0,0.0,0.0,5.64,6.3179,6.8105,7.3581,7.9493,7.9715,7.8767,7.6819,6.8668,6.2942,0.0,0.0,0.0,0.0,0.0,0.0,0.0,0.0,0.0,0.0,0.0,0.0,0.0,0.0,0.0,0.0,0.0,0.0,0.0,0.0,0.0,0.0,0.0,0.0,0.0,0.0,0.0,0.0,0.0,0.0,0.0,0.0,0.0,0.0,0.0,0.0,0.0,0.0,0.0,0.0,0.0,0.0,6.4473,6.302,0.0,0.0,0.0,6.4309,6.1671,0.0,0.0,0.0,0.0,0.0,0.0,0.0,0.0,0.0,0.0,0.0,0.0,0.0,0.0,0.0,0.0,0.0,0.0,0.0,0.0,0.0,0.0,0.0,0.0,0.0,0.0,0.0,0.0,0.0,0.0,0.0,0.0,0.0,0.0,0.0,0.0,0.0,0.0,0.0,0.0,0.0,0.0,0.0,0.0,0.0,0.0,0.0,0.0,0.0,0.0,0.0,0.0,0.0,0.0,0.0,0.0,0.0,6.0995,6.6693,7.1583,7.5519,7.5651,7.5197,7.4184,6.5965,0.0,0.0,0.0,0.0,0.0,0.0,0.0,0.0,0.0,0.0,0.0,0.0,0.0,0.0,0.0,0.0,0.0,0.0,0.0,0.0,0.0,0.0,0.0,0.0,0.0,0.0,0.0,3.8662,0.0,0.0,0.0,0.0,0.0,0.0,0.0,0.0,0.0,0.0,0.0,0.0,0.0,0.0,6.4532,6.518,6.5857,6.6741,0.0,0.0,6.458,6.2422,6.8814,7.026,0.0,0.0,0.0,0.0,0.0,0.0,0.0,0.0,0.0,0.0,0.0,0.0,0.0,0.0,0.0,0.0,0.0,0.0,0.0,0.0,0.0,0.0,0.0,0.0,0.0,0.0,0.0,0.0,0.0,0.0,0.0,0.0,0.0,0.0,0.0,0.0,0.0,0.0,0.0,0.0,0.0,0.0,0.0,0.0,0.0,0.0,0.0,0.0,0.0,0.0,0.0,0.0,0.0,0.0,0.0,5.9279,6.4354,6.8621,7.2011,7.2145,7.1731,7.0797,6.7612,6.3158,0.0,0.0,0.0,0.0,0.0,0.0,0.0,0.0,0.0,0.0,0.0,0.0,0.0,0.0,0.0,0.0,0.0,0.0,0.0,0.0,0.0,0.0,0.0,0.0,0.0,0.0,0.0,0.0,0.0,0.0,0.0,0.0,0.0,0.0,0.0,0.0,0.0,0.0,0.0,0.0,0.0,6.3492,6.3571,6.5645,6.8281,0.0,0.0,6.7956,7.0656,7.5967,7.6043,6.4629,0.0,0.0,0.0,0.0,0.0,0.0,0.0,0.0,0.0,0.0,0.0,0.0,0.0,0.0,0.0,0.0,0.0,0.0,0.0,0.0,0.0,0.0,0.0,0.0,0.0,0.0,0.0,0.0,0.0,0.0,0.0,0.0,0.0,0.0,0.0,0.0,0.0,0.0,0.0,0.0,0.0,0.0,0.0,0.0,0.0,0.0,0.0,0.0,0.0,0.0,0.0,0.0,0.0,5.3514,5.5925,6.0963,6.4948,6.7732,6.8876,6.9474,6.9617,6.5934,6.1574,0.0,0.0,0.0,0.0,0.0,0.0,0.0,0.0,0.0,0.0,0.0,0.0,0.0,0.0,0.0,0.0,0.0,0.0,0.0,0.0,0.0,0.0,0.0,0.0,0.0,0.0,0.0,0.0,5.4939,5.5792,5.3647,0.0,0.0,0.0,0.0,0.0,0.0,0.0,0.0,0.0,0.0,6.5043,6.9601,7.0643,0.0,0.0,7.2415,7.1017,7.1386,7.359,7.1931,6.2081,5.959,0.0,0.0,0.0,0.0,0.0,0.0,0.0,0.0,0.0,0.0,0.0,0.0,0.0,0.0,0.0,0.0,0.0,0.0,0.0,0.0,0.0,0.0,0.0,0.0,0.0,0.0,0.0,0.0,0.0,0.0,0.0,0.0,0.0,0.0,0.0,0.0,0.0,0.0,0.0,0.0,0.0,0.0,0.0,0.0,0.0,0.0,0.0,0.0,0.0,0.0,0.0,0.0,5.1837,5.3501,5.8343,6.1928,6.4204,6.6114,6.7372,6.785,6.5196,6.1746,0.0,0.0,0.0,0.0,0.0,0.0,0.0,0.0,0.0,0.0,0.0,0.0,0.0,0.0,0.0,0.0,0.0,0.0,0.0,0.0,0.0,0.0,0.0,0.0,0.0,0.0,0.0,0.0,5.7792,5.8172,5.5614,0.0,0.0,0.0,0.0,0.0,0.0,0.0,0.0,0.0,0.0,6.7381,7.1386,7.2097,7.2738,7.4191,7.2122,7.056,7.1004,7.0794,6.8388,6.1956,0.0,0.0,0.0,0.0,0.0,0.0,0.0,0.0,0.0,0.0,0.0,0.0,0.0,0.0,0.0,0.0,0.0,0.0,0.0,0.0,0.0,0.0,0.0,0.0,0.0,0.0,0.0,0.0,0.0,0.0,0.0,0.0,0.0,0.0,0.0,0.0,0.0,0.0,0.0,0.0,0.0,0.0,0.0,0.0,0.0,0.0,0.0,0.0,0.0,0.0,0.0,0.0,0.0,0.0,5.2668,5.6874,5.9882,6.1612,6.4066,6.54,6.5478,6.6018,6.4698,6.1018,0.0,0.0,0.0,0.0,0.0,0.0,0.0,0.0,0.0,0.0,0.0,0.0,0.0,0.0,0.0,0.0,0.0,0.0,0.0,0.0,0.0,0.0,0.0,0.0,0.0,0.0,4.5338,5.0694,5.5281,0.0,0.0,0.0,0.0,0.0,0.0,0.0,0.0,0.0,0.0,6.4595,7.0271,6.6819,6.8352,7.0247,7.1197,6.7299,6.577,7.033,6.8893,6.6956,0.0,0.0,0.0,0.0,0.0,0.0,0.0,0.0,0.0,0.0,0.0,0.0,0.0,0.0,0.0,0.0,0.0,0.0,0.0,0.0,0.0,0.0,0.0,0.0,0.0,0.0,0.0,0.0,4.9926,0.0,0.0,0.0,0.0,0.0,0.0,0.0,0.0,0.0,0.0,0.0,5.6736,5.6163,0.0,0.0,0.0,0.0,0.0,0.0,0.0,0.0,0.0,0.0,0.0,0.0,5.0063,5.1803,5.5376,5.8371,6.0604,6.3079,6.4644,6.5211,6.6018,6.4748,6.1195,0.0,0.0,0.0,0.0,0.0,0.0,0.0,0.0,0.0,0.0,0.0,0.0,0.0,0.0,0.0,0.0,0.0,0.0,0.0,0.0,0.0,0.0,0.0,0.0,0.0,5.283,0.0,0.0,0.0,0.0,0.0,0.0,0.0,0.0,0.0,0.0,0.0,5.708,6.0886,6.1911,6.3377,6.634,6.8003,6.9971,0.0,0.0,0.0,0.0,0.0,0.0,0.0,0.0,0.0,0.0,0.0,0.0,0.0,0.0,5.757,5.3156,5.5442,5.807,5.8072,0.0,0.0,0.0,0.0,0.0,0.0,0.0,0.0,0.0,0.0,0.0,0.0,0.0,0.0,0.0,0.0,5.2535,0.0,0.0,0.0,0.0,0.0,0.0,0.0,0.0,5.6622,5.8954,6.1017,6.073,6.0375,0.0,5.8012,5.4823,0.0,0.0,0.0,0.0,0.0,0.0,0.0,0.0,4.9878,5.1317,5.4897,5.7741,5.9671,6.24,6.4155,6.4721,6.5795,6.5276,6.2994,5.9051,5.5629,0.0,0.0,0.0,0.0,0.0,0.0,0.0,0.0,0.0,0.0,0.0,0.0,0.0,0.0,0.0,0.0,0.0,0.0,0.0,0.0,0.0,0.0,0.0,5.5087,0.0,0.0,0.0,0.0,0.0,0.0,0.0,0.0,0.0,5.5249,5.7755,6.1147,6.545,6.4473,6.3997,6.5777,0.0,0.0,0.0,0.0,0.0,0.0,0.0,5.9566,5.9499,5.9232,6.0033,6.3204,6.4752,6.5543,6.5538,0.0,0.0,5.9357,6.1275,6.3863,6.3856,6.3819,6.3945,6.4512,6.4481,6.4497,0.0,0.0,0.0,0.0,0.0,0.0,0.0,0.0,5.7508,5.8412,0.0,5.5518,0.0,0.0,0.0,0.0,0.0,0.0,0.0,0.0,6.2536,6.444,6.3051,6.3728,6.3624,6.2758,6.1676,5.9862,5.7313,5.3546,0.0,0.0,0.0,0.0,0.0,0.0,5.0373,5.127,5.5333,5.7921,5.8894,6.2073,6.3856,6.3973,6.5469,6.6264,6.6148,6.3031,6.1268,6.1026,5.5009,0.0,0.0,0.0,0.0,0.0,0.0,0.0,0.0,0.0,0.0,0.0,0.0,0.0,0.0,0.0,0.0,0.0,0.0,0.0,0.0,5.4956,0.0,0.0,0.0,0.0,0.0,0.0,0.0,0.0,0.0,0.0,5.6676,6.1775,6.6484,6.8066,0.0,0.0,0.0,0.0,6.8446,6.1954,6.1452,6.2336,6.3288,6.365,6.5113,6.8839,0.0,0.0,7.3138,6.8783,6.5575,6.5306,6.9365,7.0783,6.6174,6.5599,6.5677,6.5599,6.5866,6.5331,6.5275,6.5754,6.4933,6.6238,0.0,0.0,0.0,0.0,6.0131,6.1428,6.33,6.3896,6.343,6.2151,6.0419,0.0,0.0,0.0,0.0,0.0,0.0,5.946,6.1862,6.4691,6.701,6.8837,6.8452,6.8432,6.8682,6.6012,6.4058,6.2685,6.036,5.6394,5.1022,0.0,0.0,0.0,0.0,5.1169,5.3728,5.6209,5.8428,6.0522,6.262,6.4289,6.549,6.5993,6.6205,6.6205,6.5277,6.3613,6.1214,5.9878,0.0,0.0,0.0,0.0,0.0,0.0,0.0,0.0,0.0,0.0,0.0,0.0,0.0,0.0,0.0,0.0,0.0,0.0,0.0,5.4801,5.8506,5.8389,0.0,0.0,0.0,0.0,0.0,0.0,0.0,0.0,0.0,6.3253,6.2797,6.3495,0.0,0.0,6.1422,6.0535,6.357,6.6182,6.7005,0.0,0.0,0.0,6.7432,6.5917,6.7676,7.1362,7.4152,7.412,7.5111,7.5987,7.591,7.7096,7.7552,7.6394,7.5967,7.5852,7.5967,7.5978,7.5982,7.5961,7.5801,7.5602,7.4851,6.7209,6.5253,6.4949,6.5778,6.5832,6.7088,6.9124,6.9644,6.9184,6.7999,6.5551,6.3218,6.0993,5.8972,0.0,0.0,0.0,6.3143,6.6461,6.7713,6.9595,7.1763,7.1661,7.1446,7.1175,6.8854,6.7307,6.6456,6.3709,6.0268,5.6078,0.0,0.0,5.1138,5.1891,5.343,5.58,5.7821,5.9607,6.1137,6.3129,6.4791,6.6046,6.6123,6.6123,6.6123,6.6123,6.5329,6.3629,6.2779,6.0365,0.0,0.0,0.0,0.0,0.0,0.0,0.0,0.0,0.0,0.0,0.0,4.8178,0.0,0.0,0.0,0.0,5.7048,5.7986,5.8606,5.9796,0.0,0.0,0.0,0.0,0.0,0.0,0.0,5.4936,6.1414,6.6284,6.6415,6.5118,6.5576,6.9331,6.6295,6.3612,6.3387,0.0,6.8859,6.9705,6.9933,7.0691,7.2534,7.1454,7.0815,7.225,7.4811,7.6792,7.6952,7.8968,8.043,8.0506,8.0506,8.0506,8.0506,8.0506,8.0506,8.0506,8.0506,8.0506,8.0506,8.0542,8.0614,8.2416,7.8481,7.3628,7.1794,7.21,7.2176,7.3093,7.4584,7.466,7.5073,7.5398,7.0754,6.8667,6.8408,6.476,0.0,0.0,6.4862,6.7299,7.0525,7.1261,7.1996,7.2723,7.3396,7.2955,7.1407,7.0496,6.9723,6.8794,6.4904,6.2738,6.2393,5.9487,5.6566,5.4012,5.5419,5.6699,5.7506,5.9882,6.1195,6.1422,6.3775,6.5396,6.6206,6.6206,6.6244,6.6206,6.6206,6.6592,6.7224,6.453,6.3102,6.3257,0.0,0.0,0.0,0.0,0.0,0.0,0.0,0.0,0.0,0.0,0.0,0.0,0.0,0.0,0.0,6.1466,0.0,6.5026,6.0458,0.0,0.0,0.0,5.8513,6.2935,6.3861,6.4015,6.3572,0.0,0.0,0.0,0.0,7.1147,7.6635,7.5562,7.3201,7.0402,7.3073,7.4445,7.0985,7.1935,7.3032,7.3626,7.5401,7.7494,7.9309,8.0506,8.0276,8.0276,8.0353,8.0506,8.0506,8.0506,8.0506,8.0506,8.0506,8.0506,8.0506,8.0506,8.0506,8.0506,8.0506,8.0543,8.7536,8.6352,8.3219,7.9436,7.5615,7.6227,7.7105,7.8099,7.871,7.8058,7.6335,7.3948,7.1257,6.8321,6.6699,6.707,6.8935,6.8783,7.0181,7.2761,7.3126,7.3403,7.3574,7.3017,7.2592,7.2236,7.1183,7.0632,7.0474,6.8853,6.6622,6.4046,6.3334,6.1039,5.7292,5.7582,5.8546,6.0008,6.1212,6.2814,6.4778,6.6052,6.7132,6.7942,6.7981,6.7981,6.7981,6.7981,6.8034,6.8217,6.8101,6.6613,6.3474,5.9832,0.0,0.0,0.0,0.0,0.0,0.0,0.0,0.0,0.0,4.9956,4.7635,0.0,5.3321,0.0,6.4303,6.9821,7.0179,6.9027,0.0,0.0,6.2936,6.2839,6.3379,6.7832,6.9194,6.4886,6.9538,7.2789,7.1878,7.3124,7.5476,7.9033,7.5215,7.1849,7.1799,7.4051,7.5476,7.4802,7.6625,7.8535,7.842,7.9148,7.9842,8.039,8.0506,8.0506,8.0506,8.0506,8.0506,8.0506,8.0506,8.0506,8.0506,8.0506,8.0506,8.0506,8.0506,8.0506,8.0506,8.0506,8.0505,8.9638,8.9179,8.7766,8.4632,8.0621,8.0773,8.127,8.2073,8.2149,8.0964,7.8825,7.6552,7.3952,7.1178,7.064,7.0986,7.1975,7.1647,7.2456,7.4192,7.4741,7.4811,7.4425,7.4239,7.3597,7.2476,7.1891,7.1351,7.0966,7.0119,6.8706,6.6782,6.6511,6.4946,6.218,6.0633,6.0772,6.2474,6.3347,6.4834,6.6998,6.7537,6.7653,6.732,6.6242,6.5279,6.4484,6.3407,6.3152,6.382,6.432,6.3655,6.1645,5.8481,5.5301,0.0,0.0,0.0,0.0,0.0,0.0,0.0,0.0,0.0,0.0,0.0,5.6602,0.0,6.6429,7.0661,6.8847,6.8719,6.8257,6.732,6.7947,6.9117,7.0832,7.4259,7.5226,7.215,7.5365,7.7533,7.658,7.7265,7.8535,8.0276,7.7483,7.5456,7.5995,7.7124,7.7878,7.7955,7.9389,8.0506,8.0506,8.0506,8.0506,8.0506,8.0506,8.0506,8.0506,8.0506,8.0506,8.0506,8.0506,8.0506,8.0506,8.0506,8.0506,8.0506,8.0506,8.0506,8.0506,8.0506,8.0543,9.0173,8.9485,8.937,8.8033,8.5932,8.5129,8.4938,8.5129,8.4327,8.3028,8.1308,7.8509,7.6492,7.5118,7.4888,7.4504,7.3995,7.3906,7.441,7.5374,7.6237,7.6157,7.5267,7.5862,7.4808,7.2392,7.2212,7.171,7.0832,7.0102,6.9613,6.9382,6.8729,6.7944,6.6921,6.4112,6.3372,6.4768,6.5536,6.6742,6.8333,6.8179,6.7268,6.5601,6.3284,6.1146,5.9344,5.7119,5.6606,5.8002,5.8117,5.8755,6.0021,5.6228,5.3996,0.0,5.019,0.0,0.0,0.0,0.0,0.0,0.0,0.0,0.0,6.1155,6.1621,6.4423,6.8475,6.9749,6.6921,6.6613,6.8347,7.2472,7.3684,7.5846,7.9931,8.0506,8.0506,8.0506,8.0506,8.0506,8.0315,8.0506,8.0468,8.0468,8.0237,7.993,8.0352,8.0276,8.0276,8.0506,8.0506,8.0506,8.0506,8.0506,8.0506,8.0506,8.0506,8.0506,8.0506,8.0506,8.0506,8.0506,8.0506,8.0506,8.0506,8.0506,8.0506,8.0506,8.0506,8.0506,8.0506,8.0506,8.0506,9.0517,9.0287,8.96,8.9027,8.853,8.7727,8.5855,8.341,8.2607,8.1347,7.9742,7.9129,7.8323,7.7288,7.5948,7.6025,7.7058,7.5846,7.6133,7.7592,7.7938,7.7295,7.5764,7.511,7.3918,7.2195,7.1236,7.0762,7.0729,7.0575,6.9749,6.8258,6.8838,6.8723,6.773,0.0,0.0,0.0,6.6605,6.717,6.8157,6.6853,6.5663,6.4703,6.29,0.0,5.9446,5.8256,5.7757,5.8078,5.8078,0.0,0.0,0.0,0.0,0.0,0.0,0.0,0.0,0.0,0.0,0.0,6.3438,6.3265,6.2393,6.3207,6.5865,7.081,7.2188,7.4029,7.7169,7.7513,7.7861,7.8744,7.8974,7.9509,8.043,8.0506,8.0506,8.0506,8.0506,8.0506,8.0506,8.0506,8.0506,8.0506,8.0506,8.0506,8.0506,8.0506,8.0506,8.0506,8.0506,8.0506,8.0506,8.0506,8.0506,8.0506,8.0506,8.0506,8.0506,8.0506,8.0506,8.0506,8.0506,8.0506,8.0506,8.0506,8.0506,8.0506,8.0506,8.0506,8.0506,8.0506,8.0506,9.1204,0.0,9.0287,8.9485,0.0,8.8262,8.6619,8.425,8.425,8.3104,8.1079,8.0238,7.9436,7.8557,7.6838,7.6341,7.6685,7.5168,7.5347,7.6996,7.7578,7.763,7.7177,7.6694,7.5357,7.3292,7.2678,7.1772,7.0623,7.0968,7.0477,6.9158,7.0094,7.0286,6.9807,7.019,6.961,6.8059,6.8472,6.9183,6.9979,6.9596,6.8723,6.7467,0.0,0.0,0.0,0.0,0.0,0.0,0.0,0.0,0.0,0.0,0.0,6.5322,6.4024,6.4385,6.7187,6.7975,6.9143,7.1168,7.2073,7.0986,6.7345,7.036,7.3552,7.5929,7.658,7.7816,8.0199,8.0506,8.0506,8.0506,8.0506,8.0506,8.0506,8.0506,8.0506,8.0506,8.0506,8.0506,8.0506,8.0506,8.0506,8.0506,8.0506,8.0506,8.0506,8.0506,8.0506,8.0506,8.0506,8.0506,8.0506,8.0506,8.0506,8.0506,8.0506,8.0506,8.0506,8.0506,8.0506,8.0506,8.0506,8.0506,8.0506,8.0506,8.0506,8.0506,8.0506,8.0506,8.0506,8.0506,8.0506,9.1854,9.1548,9.1013,8.9944,8.853,8.853,8.7536,8.597,0.0,0.0,0.0,8.127,8.0277,7.9398,7.787,7.6876,7.63,7.4944,7.5124,7.658,7.74,7.8077,7.8615,7.8308,7.6939,7.474,7.4242,7.2843,7.0724,7.1183,7.1107,7.0572,7.1412,7.1985,7.2176,7.2864,7.2133,7.0094,7.0477,7.1121,7.1835,7.2256,7.165,6.9941,6.7569,6.5512,6.377,6.1593,6.079,6.1554,6.1593,6.2433,6.4114,6.4229,6.4726,6.5719,6.5915,6.8127,7.2898,7.3341,7.5173,7.9315,7.9468,7.7628,7.3475,7.7708,8.0238,7.9551,8.0124,8.0468,8.0506,8.0506,8.0506,8.0506,8.0506,8.0506,8.0506,8.0506,8.0506,8.0506,8.0506,8.0506,8.0506,8.0506,8.0506,8.0506,8.0506,8.0506,8.0506,8.0506,8.0506,8.0506,8.0506,8.0506,8.0506,8.0506,8.0506,8.0506,8.0506,8.0506,8.0506,8.0506,8.0506,8.0506,8.0506,8.0506,8.0506,8.0506,8.0506,8.0506,8.0506,8.0506,8.0506,8.0506,8.0506,9.2083,9.0822,9.1395,9.109,9.0249,9.0249,8.9294,8.7575,8.555,8.3219,8.0888,8.1385,8.1117,8.0277,7.936,7.9245,7.9704,7.8861,7.8938,0.0,7.9968,7.97,7.9088,7.7635,7.6411,7.523,7.3127,7.1904,7.1489,7.0877,7.0495,7.0648,7.2024,7.3132,7.3819,7.3972,7.3514,7.2516,7.1866,7.1598,7.1713,7.0413,6.896,6.7247,6.5635,6.3762,6.2013,6.1096,6.0752,6.1554,6.1593,6.3923,6.8967,6.9349,7.1642,7.6456,7.6988,7.7714,7.9092,7.9282,7.9587,8.0237,7.9702,7.8976,7.8402,7.9626,8.0468,8.0315,8.043,8.0506,8.0506,8.0506,8.0506,8.0506,8.0506,8.0506,8.0506,8.0506,8.0506,8.0506,8.0506,8.0506,8.0506,8.0506,8.0506,8.0506,8.0506,8.0506,8.0506,8.0506,8.0506,8.0506,8.0506,8.0506,8.0506,8.0506,8.0506,8.0506,8.0506,8.0506,8.0506,8.0506,8.0506,8.0506,8.0506,8.0506,8.0506,8.0506,8.0506,8.0506,8.0506,8.0506,8.0506,8.0506,8.0506,9.3344,9.2618,9.2045,9.1586,9.1204,9.0784,8.9905,8.8683,8.7536,8.532,8.2722,8.299,8.2455,8.1117,7.9856,7.9474,7.978,7.8481,7.8596,7.9818,7.9818,7.9665,7.9207,7.7984,7.6723,7.5462,7.4354,7.3284,7.2444,7.1985,7.1565,7.1221,7.2367,7.3628,7.4813,7.4927,7.4736,7.4354,7.3476,7.3055,7.3055,7.275,7.2253,7.1489,7.0686,7.019,6.9807,6.9425,6.9616,7.0457,7.0495,7.1947,7.4966,7.5233,7.6647,7.9704,7.9933,8.0124,8.0468,8.0506,8.0506,8.0506,8.0162,7.9933,7.9933,8.0277,8.0506,8.0506,8.0506,8.0506,8.0506,8.0506,8.0506,8.0506,8.0506,8.0506,8.0506,8.0506,8.0506,8.0506,8.0506,8.0506,8.0506,8.0506,8.0506,8.0506,8.0506,8.0506,8.0506,8.0506,8.0506,8.0506,8.0506,8.0506,8.0506,8.0506,8.0506,8.0506,8.0506,8.0506,8.0506,8.0506,8.0506,8.0506,8.0506,8.0506,8.0506,8.0506,8.0506,8.0506,8.0506,8.0506,8.0506,8.0506,8.0506,9.4758,9.4261,9.2733,9.1892,9.151,9.1052,9.0287,8.937,8.9485,8.7804,8.5091,8.4671,8.3524,8.1767,8.043,7.9856,7.9627,7.8252,7.8404,7.9742,7.9665,7.9551,7.9474,7.871,7.7487,7.6112,7.5692,7.4698,7.3399,7.3093,7.275,7.2367,7.275,7.3858,7.5462,7.5501,7.5501,7.5462,7.4813,7.4507,7.4507,7.5157,7.5501,7.5501,7.5615,7.6074,7.6685,7.6914,7.7411,7.8213,7.829,7.8672,7.9474,7.9551,7.9818,8.043,8.0506,8.0506,8.0506,8.0506,8.0506,8.0506,8.0506,8.0506,8.0506,8.0506,8.0506,8.0506,8.0506,8.0506,8.0506,8.0506,8.0506,8.0506,8.0506,8.0506,8.0506,8.0506,8.0506,8.0506,8.0506,8.0506,8.0506,8.0506,8.0506,8.0506,8.0506,8.0506,8.0506,8.0506,8.0506,8.0506,8.0506,8.0506,8.0506,8.0506,8.0506,8.0506,8.0506,8.0506,8.0506,8.0506,8.0506,8.0506,8.0506,8.0506,8.0506,8.0506,8.0506,8.0506,8.0506,8.0506,8.0506,8.0506,8.0506,9.5751,9.4338,9.3344,9.2083,9.0899,9.1434,9.0784,8.9561,9.0135,8.9027,8.6619,8.5779,8.4098,8.1996,8.1652,8.1576,8.1499,8.0582,8.0659,8.1347,8.0735,8.0391,8.0238,7.9513,7.8672,7.764,7.6265,7.5157,7.4163,7.3399,7.3323,7.3819,7.3323,7.3819,7.531,7.5501,7.5501,7.5501,7.5424,7.5386,7.5386,7.5462,7.5501,7.5501,7.6227,7.6609,7.68,7.7449,7.829,7.9054,7.9169,7.9551,8.0277,8.0391,8.043,8.0468,8.0506,8.0506,8.0506,8.0506,8.0506,8.0506,8.0506,8.0506,8.0506,8.0506,8.0506,8.0506,8.0506,8.0506,8.0506,8.0506,8.0506,8.0506,8.0506,8.0506,8.0506,8.0506,8.0506,8.0506,8.0506,8.0506,8.0506,8.0506,8.0506,8.0506,8.0506,8.0506,8.0506,8.0506,8.0506,8.0506,8.0506,8.0506,8.0506,8.0506,8.0506,8.0506,8.0506,8.0506,8.0506,8.0506,8.0506,8.0506,8.0506,8.0506,8.0506,8.0506,8.0506,8.0506,8.0506,8.0506,8.0506,8.0506,8.0506,9.5751,9.4987,9.365,9.2733,9.2121,9.1892,9.1395,9.0822,9.0631,8.9714,8.8301,8.7422,8.5626,8.3333,8.3257,8.3257,8.3219,8.2378,8.2149,8.2416,8.1652,8.0773,7.9818,7.9474,7.8863,7.8022,7.7296,7.6532,7.5577,7.4354,7.3896,7.4125,7.3858,7.4316,7.5424,7.5501,7.5501,7.5501,7.5959,7.6227,7.6188,7.6227,7.6456,7.6953,7.7296,7.7717,7.8213,7.8596,7.913,7.9933,8.0009,8.0124,8.0468,8.0506,8.0506,8.0506,8.0506,8.0506,8.0506,8.0506,8.0506,8.0506,8.0506,8.0506,8.0506,8.0506,8.0506,8.0506,8.0506,8.0506,8.0506,8.0506,8.0506,8.0506,8.0506,8.0506,8.0506,8.0506,8.0506,8.0506,8.0506,8.0506,8.0506,8.0506,8.0506,8.0506,8.0506,8.0506,8.0506,8.0506,8.0506,8.0506,8.0506,8.0506,8.0506,8.0506,8.0506,8.0506,8.0506,8.0506,8.0506,8.0506,8.0506,8.0506,8.0506,8.0506,8.0506,8.0506,8.0506,8.0506,8.0506,8.0506,8.0506,8.0506,8.0506,9.6133,9.5751,9.4376,9.3535,9.3077,9.2695,9.2236,9.1739,9.1166,9.0211,8.895,8.8339,8.681,8.4785,8.4174,8.3945,8.3792,8.2798,8.2455,8.2531,8.1843,8.0773,7.9704,7.9627,7.9169,7.8481,7.8328,7.7755,7.6647,7.5004,7.4316,7.4469,7.4354,7.466,7.5386,7.5501,7.5615,7.5883,7.6418,7.6914,7.7335,7.7411,7.7602,7.7984,7.8252,7.8672,7.9245,7.9513,7.9895,8.0468,8.0506,8.0506,8.0506,8.0506,8.0506,8.0506,8.0506,8.0506,8.0506,8.0506,8.0506,8.0506,8.0506,8.0506,8.0506,8.0506,8.0506,8.0506,8.0506,8.0506,8.0506,8.0506,8.0506,8.0506,8.0506,8.0506,8.0506,8.0506,8.0506,8.0506,8.0506,8.0506,8.0506,8.0506,8.0506,8.0506,8.0506,8.0506,8.0506,8.0506,8.0506,8.0506,8.0506,8.0506,8.0506,8.0506,8.0506,8.0506,8.0506,8.0506,8.0506,8.0506,8.0506,8.0506,8.0506,8.0506,8.0506,8.0506,8.0506,8.0506,8.0506,8.0506,8.0506,8.0506,8.0506,9.7547,9.6706,9.5828,9.4529,9.3191,9.3879,9.3268,9.1892,9.1701,9.0402,8.8453,8.8148,8.7116,8.5435,8.3945,8.3104,8.2913,8.1652,8.1385,8.1958,8.1117,8.0582,8.043,8.043,8.0009,7.9283,7.9245,7.8404,7.6723,7.5119,7.4622,7.531,7.466,7.4698,7.5424,7.5577,7.5921,7.6609,7.68,7.7487,7.8901,7.913,7.8787,7.829,7.8787,7.9283,7.9398,8.0047,8.0468,8.0506,8.0506,8.0506,8.0506,8.0506,8.0506,8.0506,8.0506,8.0506,8.0506,8.0506,8.0506,8.0506,8.0506,8.0506,8.0506,8.0506,8.0506,8.0506,8.0506,8.0506,8.0506,8.0506,8.0506,8.0506,8.0506,8.0506,8.0506,8.0506,8.0506,8.0506,8.0506,8.0506,8.0506,8.0506,8.0506,8.0506,8.0506,8.0506,8.0506,8.0506,8.0506,8.0506,8.0506,8.0506,8.0506,8.0506,8.0506,8.0506,8.0506,8.0506,8.0506,8.0506,8.0506,8.0506,8.0506,8.0506,8.0506,8.0506,8.0506,8.0506,8.0506,8.0506,8.0506,8.0506,8.0506,9.6554,9.5331,9.5522,9.5216,9.4643,9.3917,9.3191,9.2542,9.1472,9.0555,8.9638,8.8606,8.7727,8.704,8.4824,8.4098,8.4441,8.3448,8.3104,8.3295,8.2493,8.1805,8.1347,8.1308,8.0888,8.0162,8.0047,7.9207,7.7602,7.6341,7.5692,7.5462,7.5195,7.5424,7.6112,7.6265,7.6685,7.7487,7.8061,7.8672,7.9283,7.978,7.9895,7.9627,7.9895,8.0086,8.0047,8.0353,8.0506,8.0506,8.0506,8.0506,8.0506,8.0506,8.0506,8.0506,8.0506,8.0506,8.0506,8.0506,8.0506,8.0506,8.0506,8.0506,8.0506,8.0506,8.0506,8.0506,8.0506,8.0506,8.0506,8.0506,8.0506,8.0506,8.0506,8.0506,8.0506,8.0506,8.0506,8.0506,8.0506,8.0506,8.0506,8.0506,8.0506,8.0506,8.0506,8.0506,8.0506,8.0506,8.0506,8.0506,8.0506,8.0506,8.0506,8.0506,8.0506,8.0506,8.0506,8.0506,8.0506,8.0506,8.0506,8.0506,8.0506,8.0506,8.0506,8.0506,8.0506,8.0506,8.0506,8.0506,8.0506,8.0506,8.0506,9.6012,9.4943,9.5369,9.5446,9.5102,9.3994,9.3191,9.2618,9.1472,9.0669,8.9982,8.8683,8.7957,8.7384,8.5588,8.4938,8.532,8.4365,8.3868,8.383,8.3257,8.2569,8.192,8.1805,8.1347,8.0544,8.02,7.9474,7.8443,7.7526,7.6838,7.6341,7.6303,7.657,7.7067,7.7144,7.7564,7.8366,7.9016,7.9398,7.9704,8.02,8.0506,8.0506,8.0506,8.0506,8.0506,8.0506,8.0506,8.0506,8.0506,8.0506,8.0506,8.0506,8.0506,8.0506,8.0506,8.0506,8.0506,8.0506,8.0506,8.0506,8.0506,8.0506,8.0506,8.0506,8.0506,8.0506,8.0506,8.0506,8.0506,8.0506,8.0506,8.0506,8.0506,8.0506,8.0506,8.0506,8.0506,8.0506,8.0506,8.0506,8.0506,8.0506,8.0506,8.0506,8.0506,8.0506,8.0506,8.0506,8.0506,8.0506,8.0506,8.0506,8.0506,8.0506,8.0506,8.0506,8.0506,8.0506,8.0506,8.0506,8.0506,8.0506,8.0506,8.0506,8.0506,8.0506,8.0506,8.0506,8.0506,8.0506,8.0506,8.0506,8.0506,9.6218,9.5425,9.5516,9.5102,9.4529,9.4146,9.3306,9.2007,9.1739,9.0784,8.96,8.853,8.7804,8.6887,8.6008,8.555,8.5244,8.4059,8.341,8.3333,8.3257,8.2798,8.2073,8.1958,8.1385,8.0506,7.9742,7.936,7.913,7.8404,7.7946,7.7908,7.7755,7.7793,7.8022,7.8022,7.8443,7.913,7.9398,7.9742,8.0391,8.0506,8.0506,8.0506,8.0506,8.0506,8.0506,8.0506,8.0506,8.0506,8.0506,8.0506,8.0506,8.0506,8.0506,8.0506,8.0506,8.0506,8.0506,8.0506,8.0506,8.0506,8.0506,8.0506,8.0506,8.0506,8.0506,8.0506,8.0506,8.0506,8.0506,8.0506,8.0506,8.0506,8.0506,8.0506,8.0506,8.0506,8.0506,8.0506,8.0506,8.0506,8.0506,8.0506,8.0506,8.0506,8.0506,8.0506,8.0506,8.0506,8.0506,8.0506,8.0506,8.0506,8.0506,8.0506,8.0506,8.0506,8.0506,8.0506,8.0506,8.0506,8.0506,8.0506,8.0506,8.0506,8.0506,8.0506,8.0506,8.0506,8.0506,8.0506,8.0506,8.0506,8.0506,9.6852,9.5516,9.4987,9.4643,9.4223,9.3153,9.2236,9.1739,9.1243,9.0669,9.0096,8.9294,8.8453,8.7651,8.681,8.6084,8.5473,8.49,8.4709,8.4709,8.4709,8.425,8.3486,8.2875,8.1881,8.0659,8.0277,7.9818,7.9321,7.9016,7.8634,7.8137,7.8022,7.8328,7.8863,7.8901,7.9283,8.0009,8.0124,8.0277,8.0506,8.0506,8.0506,8.0506,8.0506,8.0506,8.0506,8.0506,8.0506,8.0506,8.0506,8.0506,8.0506,8.0506,8.0506,8.0506,8.0506,8.0506,8.0506,8.0506,8.0506,8.0506,8.0506,8.0506,8.0506,8.0506,8.0506,8.0506,8.0506,8.0506,8.0506,8.0506,8.0506,8.0506,8.0506,8.0506,8.0506,8.0506,8.0506,8.0506,8.0506,8.0506,8.0506,8.0506,8.0506,8.0506,8.0506,8.0506,8.0506,8.0506,8.0506,8.0506,8.0506,8.0506,8.0506,8.0506,8.0506,8.0506,8.0506,8.0506,8.0506,8.0506,8.0506,8.0506,8.0506,8.0506,8.0506,8.0506,8.0506,8.0506,8.0506,8.0506,8.0506,8.0506,8.0506,9.6485,9.4929,9.4173,9.3683,9.3344,9.2198,9.1625,9.1319,9.0822,9.0631,9.044,8.9676,8.9027,8.8377,8.7345,8.6543,8.6008,8.5702,8.5511,8.5511,8.5511,8.5053,8.4212,8.3066,8.1881,8.0735,8.0506,8.0238,7.978,7.9704,7.9436,7.9016,7.8939,7.9169,7.9704,7.9742,8.0047,8.043,8.0506,8.0506,8.0506,8.0506,8.0506,8.0506,8.0506,8.0506,8.0506,8.0506,8.0506,8.0506,8.0506,8.0506,8.0506,8.0506,8.0506,8.0506,8.0506,8.0506,8.0506,8.0506,8.0506,8.0506,8.0506,8.0506,8.0506,8.0506,8.0506,8.0506,8.0506,8.0506,8.0506,8.0506,8.0506,8.0506,8.0506,8.0506,8.0506,8.0506,8.0506,8.0506,8.0506,8.0506,8.0506,8.0506,8.0506,8.0506,8.0506,8.0506,8.0506,8.0506,8.0506,8.0506,8.0506,8.0506,8.0506,8.0506,8.0506,8.0506,8.0506,8.0506,8.0506,8.0506,8.0506,8.0506,8.0506,8.0506,8.0506,8.0506,8.0506,8.0506,8.0506,8.0506,8.0506,8.0506,8.0506,9.5475,9.3973,9.3236,9.2525,9.1926,9.1697,9.1238,9.0665,9.0631,9.0631,9.044,8.9829,8.937,8.895,8.7689,8.6925,8.6619,8.5855,8.5511,8.5511,8.5473,8.5091,8.4174,8.2837,8.1652,8.0812,8.0544,8.0468,8.0353,8.0353,8.0506,8.0315,8.0238,8.043,8.0391,8.0468,8.043,8.0468,8.0506,8.0506,8.0506,8.0506,8.0506,8.0506,8.0506,8.0506,8.0506,8.0506,8.0506,8.0506,8.0506,8.0506,8.0506,8.0506,8.0506,8.0506,8.0506,8.0506,8.0506,8.0506,8.0506,8.0506,8.0506,8.0506,8.0506,8.0506,8.0506,8.0506,8.0506,8.0506,8.0506,8.0506,8.0506,8.0506,8.0506,8.0506,8.0506,8.0506,8.0506,8.0506,8.0506,8.0506,8.0506,8.0506,8.0506,8.0506,8.0506,8.0506,8.0506,8.0506,8.0506,8.0506,8.0506,8.0506,8.0506,8.0506,8.0506,8.0506,8.0506,8.0506,8.0506,8.0506,8.0506,8.0506,8.0506,8.0506,8.0506,8.0506,8.0506,8.0506,8.0506,8.0506,8.0506,8.0506,8.0506,9.6018,9.3973,9.3106,9.2314,9.1514,9.0994,9.0694,9.046,9.0551,9.0631,9.0517,9.0364,8.9867,8.9218,8.8224,8.7422,8.6772,8.5932,8.5511,8.5511,8.5511,8.5053,8.425,8.3219,8.2225,8.1461,8.085,8.0506,8.0506,8.0506,8.0506,8.0506,8.0506,8.0506,8.0506,8.0506,8.0506,8.0506,8.0506,8.0506,8.0506,8.0506,8.0506,8.0506,8.0506,8.0506,8.0506,8.0506,8.0506,8.0506,8.0506,8.0506,8.0506,8.0506,8.0506,8.0506,8.0506,8.0506,8.0506,8.0506,8.0506,8.0506,8.0506,8.0506,8.0506,8.0506,8.0506,8.0506,8.0506,8.0506,8.0506,8.0506,8.0506,8.0506,8.0506,8.0506,8.0506,8.0506,8.0506,8.0506,8.0506,8.0506,8.0506,8.0506,8.0506,8.0506,8.0506,8.0506,8.0506,8.0506,8.0506,8.0506,8.0506,8.0506,8.0506,8.0506,8.0506,8.0506,8.0506,8.0506,8.0506,8.0506,8.0506,8.0506,8.0506,8.0506,8.0506,8.0506,8.0506,8.0506,8.0506,8.0506,8.0506,8.0506,8.0506,9.5235,9.3307,9.2433,9.1681,9.0928,9.0568,9.0383,9.0427,9.0551,9.0631,9.0631,9.0631,9.0326,8.9752,8.8644,8.7842,8.7231,8.6046,8.555,8.5511,8.5511,8.5053,8.4327,8.3677,8.2951,8.1843,8.127,8.085,8.0582,8.0506,8.0506,8.0506,8.0506,8.0506,8.0506,8.0506,8.0506,8.0506,8.0506,8.0506,8.0506,8.0506,8.0506,8.0506,8.0506,8.0506,8.0506,8.0506,8.0506,8.0506,8.0506,8.0506,8.0506,8.0506,8.0506,8.0506,8.0506,8.0506,8.0506,8.0506,8.0506,8.0506,8.0506,8.0506,8.0506,8.0506,8.0506,8.0506,8.0506,8.0506,8.0506,8.0506,8.0506,8.0506,8.0506,8.0506,8.0506,8.0506,8.0506,8.0506,8.0506,8.0506,8.0506,8.0506,8.0506,8.0506,8.0506,8.0506,8.0506,8.0506,8.0506,8.0506,8.0506,8.0506,8.0506,8.0506,8.0506,8.0506,8.0506,8.0506,8.0506,8.0506,8.0506,8.0506,8.0506,8.0506,8.0506,8.0506,8.0506,8.0506,8.0506,8.0506,8.0506,8.0506,8.0506,9.3934,9.2451,9.1729,9.0903,9.0274,9.0295,9.0345,9.0394,9.0513,9.0631,9.0631,9.0631,9.0555,9.0517,8.9027,8.8224,8.811,8.6543,8.5741,8.555,8.5473,8.5129,8.4594,8.4289,8.3372,8.2187,8.1881,8.1232,8.0697,8.0506,8.0506,8.0506,8.0506,8.0582,8.0735,8.0735,8.0697,8.0926,8.1041,8.1079,8.1079,8.1079,8.1079,8.1079,8.1079,8.0926,8.0812,8.0697,8.0659,8.0506,8.0506,8.0506,8.0506,8.0506,8.0506,8.0506,8.0506,8.0506,8.0506,8.0506,8.0506,8.0506,8.0506,8.0506,8.0506,8.0506,8.0506,8.0506,8.0506,8.0506,8.0506,8.0506,8.0506,8.0506,8.0506,8.0506,8.0506,8.0506,8.0506,8.0506,8.0506,8.0506,8.0506,8.0506,8.0506,8.0506,8.0506,8.0506,8.0506,8.0506,8.0506,8.0506,8.0506,8.0506,8.0506,8.0506,8.0506,8.0506,8.0506,8.0506,8.0506,8.0506,8.0506,8.0506,8.0506,8.0506,8.0506,8.0506,8.0506,8.0506,8.0506,8.0506,8.0506,8.0506,8.0506,9.4452,9.2304,9.2152,9.1242,9.0039,9.0159,9.0212,9.0257,9.047,9.0593,9.0631,9.0631,9.0631,9.0555,8.9523,8.9065,8.8797,8.7307,8.6199,8.555,8.5511,8.5435,8.5091,8.4671,8.3754,8.2798,8.2073,8.1385,8.0735,8.0659,8.0506,8.0506,8.0735,8.085,8.1385,8.1499,8.1881,8.2302,8.2416,8.2302,8.2302,8.2302,8.2302,8.2302,8.234,8.2073,8.1614,8.1538,8.1194,8.0697,8.0582,8.0697,8.0544,8.0506,8.0506,8.0506,8.0506,8.0506,8.0506,8.0506,8.0506,8.0506,8.0506,8.0506,8.0506,8.0506,8.0506,8.0506,8.0506,8.0506,8.0506,8.0506,8.0506,8.0506,8.0506,8.0506,8.0506,8.0506,8.0506,8.0506,8.0506,8.0506,8.0506,8.0506,8.0506,8.0506,8.0506,8.0506,8.0506,8.0506,8.0506,8.0506,8.0506,8.0506,8.0506,8.0506,8.0506,8.0506,8.0506,8.0506,8.0506,8.0506,8.0506,8.0506,8.0506,8.0506,8.0506,8.0506,8.0506,8.0506,8.0506,8.0506,8.0506,8.0506,8.0506,9.4225,9.2329,9.2292,9.1344,8.999,8.9982,9.0121,9.0257,9.0427,9.0551,9.0593,9.0631,9.0631,9.0555,8.9714,8.9294,8.9027,8.8033,8.6925,8.6314,8.6123,8.5893,8.5473,8.5053,8.4403,8.3639,8.3219,8.234,8.1499,8.1347,8.1308,8.0659,8.1232,8.1652,8.1881,8.2149,8.2531,8.2837,8.3028,8.3028,8.299,8.299,8.299,8.299,8.299,8.276,8.2378,8.2378,8.2111,8.1805,8.1652,8.127,8.0621,8.0506,8.0506,8.0506,8.0506,8.0506,8.0506,8.0506,8.0506,8.0506,8.0506,8.0506,8.0506,8.0506,8.0506,8.0506,8.0506,8.0506,8.0506,8.0506,8.0506,8.0506,8.0506,8.0506,8.0506,8.0506,8.0506,8.0506,8.0506,8.0506,8.0506,8.0506,8.0506,8.0506,8.0506,8.0506,8.0506,8.0506,8.0506,8.0506,8.0506,8.0506,8.0506,8.0506,8.0506,8.0506,8.0506,8.0506,8.0506,8.0506,8.0506,8.0506,8.0506,8.0506,8.0506,8.0506,8.0506,8.0506,8.0506,8.0506,8.0506,8.0506,8.0506,9.3694,9.2292,9.2178,9.123,8.9942,8.9935,9.0075,9.0174,9.034,9.0465,9.0589,9.0589,9.0631,9.044,8.9905,8.9485,8.91,8.8641,8.7763,8.7037,8.6694,8.6312,8.5855,8.5511,8.5091,8.4518,8.4174,8.3295,8.2493,8.2531,8.2149,8.1347,8.2187,8.2646,8.2455,8.2798,8.3333,8.3601,8.3677,8.3639,8.3601,8.3563,8.3601,8.3601,8.3601,8.3448,8.3295,8.3181,8.3104,8.3028,8.299,8.2225,8.1347,8.0888,8.0773,8.0773,8.0812,8.0697,8.0544,8.0506,8.0506,8.0506,8.0506,8.0506,8.0506,8.0506,8.0506,8.0506,8.0506,8.0506,8.0506,8.0506,8.0506,8.0506,8.0506,8.0506,8.0506,8.0506,8.0506,8.0506,8.0506,8.0506,8.0506,8.0506,8.0506,8.0506,8.0506,8.0506,8.0506,8.0506,8.0506,8.0506,8.0506,8.0506,8.0506,8.0506,8.0506,8.0506,8.0506,8.0506,8.0506,8.0506,8.0506,8.0506,8.0506,8.0506,8.0506,8.0506,8.0506,8.0506,8.0506,8.0506,8.0506,8.0506,8.0506,9.3201,9.2254,9.1571,9.07,8.9866,8.9935,9.0011,9.0087,9.0288,9.0422,9.046,9.0546,9.0593,9.0555,9.0517,8.994,8.932,8.8977,8.8481,8.7642,8.7069,8.6535,8.6235,8.5701,8.5397,8.5167,8.4709,8.3792,8.3066,8.2875,8.2875,8.2684,8.2951,8.3257,8.3639,8.4021,8.4365,8.4671,8.4785,8.4824,8.4824,8.4824,8.4824,8.4824,8.4785,8.4556,8.4174,8.4059,8.3754,8.3066,8.3028,8.2875,8.2684,8.2569,8.2264,8.169,8.1461,8.1194,8.0773,8.0544,8.0506,8.0506,8.0506,8.0506,8.0506,8.0506,8.0506,8.0506,8.0506,8.0506,8.0506,8.0506,8.0506,8.0506,8.0506,8.0506,8.0506,8.0506,8.0506,8.0506,8.0506,8.0506,8.0506,8.0506,8.0506,8.0506,8.0506,8.0506,8.0506,8.0506,8.0506,8.0506,8.0506,8.0506,8.0506,8.0506,8.0506,8.0506,8.0506,8.0506,8.0506,8.0506,8.0506,8.0506,8.0506,8.0506,8.0506,8.0506,8.0506,8.0506,8.0506,8.0506,8.0506,8.0506,8.0506,9.2934,9.2115,9.132,9.0537,8.9904,8.9839,8.9925,9.0049,9.0113,9.025,9.0378,9.0427,9.0551,9.0593,9.0631,9.0241,8.985,8.9647,8.8962,8.7933,8.7362,8.66,8.615,8.5581,8.5508,8.5355,8.5013,8.448,8.3792,8.4136,8.3754,8.3333,8.3754,8.4327,8.4403,8.4709,8.5053,8.5473,8.5511,8.5511,8.5511,8.5511,8.5511,8.5511,8.5511,8.5282,8.5053,8.4938,8.4747,8.4403,8.4327,8.4289,8.425,8.4098,8.3715,8.2646,8.2073,8.1652,8.1117,8.085,8.0506,8.0506,8.0506,8.0506,8.0506,8.0506,8.0506,8.0506,8.0506,8.0506,8.0506,8.0506,8.0506,8.0506,8.0506,8.0506,8.0506,8.0506,8.0506,8.0506,8.0506,8.0506,8.0506,8.0506,8.0506,8.0506,8.0506,8.0506,8.0506,8.0506,8.0506,8.0506,8.0506,8.0506,8.0506,8.0506,8.0506,8.0506,8.0506,8.0506,8.0506,8.0506,8.0506,8.0506,8.0506,8.0506,8.0506,8.0506,8.0506,8.0506,8.0506,8.0506,8.0506,8.0506,8.0506,9.2511,9.1785,9.0991,9.0335,8.9866,8.979,8.9839,8.9935,9.002,9.0121,9.0295,9.034,9.0465,9.0551,9.0551,9.047,9.034,9.0015,8.9101,8.8143,8.7382,8.6627,8.5871,8.5384,8.5388,8.5429,8.5395,8.5167,8.4747,8.5015,8.4594,8.4289,8.5015,8.5244,8.4824,8.5129,8.5473,8.5511,8.5511,8.5511,8.5511,8.5511,8.5511,8.5511,8.5511,8.5511,8.5397,8.5397,8.5397,8.5358,8.5358,8.5435,8.5473,8.5511,8.4862,8.3639,8.2607,8.2073,8.1576,8.0964,8.0506,8.0506,8.0506,8.0506,8.0506,8.0506,8.0506,8.0506,8.0506,8.0506,8.0506,8.0506,8.0506,8.0506,8.0506,8.0506,8.0506,8.0506,8.0506,8.0506,8.0506,8.0506,8.0506,8.0506,8.0506,8.0506,8.0506,8.0506,8.0506,8.0506,8.0506,8.0506,8.0506,8.0506,8.0506,8.0506,8.0506,8.0506,8.0506,8.0506,8.0506,8.0506,8.0506,8.0506,8.0506,8.0506,8.0506,8.0506,8.0506,8.0506,8.0506,8.0506,8.0506,8.0506,8.0506,9.168,9.0991,9.0121,8.9717,8.9828,8.979,8.979,8.9839,8.9935,8.9982,9.0075,9.0205,9.0295,9.0422,9.0508,9.034,9.0015,8.9475,8.8935,8.8243,8.7179,8.6463,8.6133,8.5651,8.5426,8.5429,8.5471,8.5473,8.5282,8.5397,8.5435,8.5206,8.5167,8.5397,8.5282,8.5397,8.5511,8.5511,8.5511,8.5511,8.5511,8.5511,8.5511,8.5511,8.5511,8.5511,8.5511,8.5511,8.5511,8.5511,8.5511,8.5511,8.5511,8.5511,8.5473,8.4824,8.383,8.2569,8.192,8.1156,8.0544,8.0544,8.0506,8.0506,8.0506,8.0506,8.0506,8.0506,8.0506,8.0506,8.0506,8.0506,8.0506,8.0506,8.0506,8.0506,8.0506,8.0506,8.0506,8.0506,8.0506,8.0506,8.0506,8.0506,8.0506,8.0506,8.0506,8.0506,8.0506,8.0506,8.0506,8.0506,8.0506,8.0506,8.0506,8.0506,8.0506,8.0506,8.0506,8.0506,8.0506,8.0506,8.0506,8.0506,8.0506,8.0506,8.0506,8.0506,8.0506,8.0506,8.0506,8.0506,8.0506,8.0506,8.0506,9.0588,9.0736,8.9867,8.9629,8.979,8.979,8.979,8.979,8.9877,8.9935,8.9982,9.0029,9.0159,9.025,9.0295,9.0159,8.983,8.9184,8.8454,8.7914,8.6814,8.5986,8.5627,8.5452,8.5304,8.5388,8.5431,8.5511,8.5511,8.5511,8.5511,8.5511,8.5511,8.5511,8.5511,8.5511,8.5511,8.5511,8.5511,8.5511,8.5511,8.5511,8.5511,8.5511,8.5511,8.5511,8.5511,8.5511,8.5511,8.5511,8.5511,8.5511,8.5511,8.5511,8.5511,8.5397,8.4403,8.3372,8.2569,8.169,8.1079,8.0582,8.0506,8.0506,8.0506,8.0506,8.0506,8.0506,8.0506,8.0506,8.0506,8.0506,8.0506,8.0506,8.0506,8.0506,8.0506,8.0506,8.0506,8.0506,8.0506,8.0506,8.0506,8.0506,8.0506,8.0506,8.0506,8.0506,8.0506,8.0506,8.0506,8.0506,8.0506,8.0506,8.0506,8.0506,8.0506,8.0506,8.0506,8.0506,8.0506,8.0506,8.0506,8.0506,8.0506,8.0506,8.0506,8.0506,8.0506,8.0506,8.0506,8.0506,8.0506,8.0506,8.0506,8.9653,9.0077,8.9491,8.9438,8.9692,8.9741,8.979,8.979,8.979,8.9839,8.9935,8.9982,9.0067,9.0113,9.0113,9.0029,8.9897,8.9052,8.8208,8.7364,8.6493,8.5705,8.5348,8.5132,8.5262,8.5346,8.5431,8.5511,8.5511,8.5511,8.5511,8.5511,8.5511,8.5511,8.5511,8.5511,8.5511,8.5511,8.5511,8.5511,8.5511,8.5511,8.5511,8.5511,8.5511,8.5511,8.5511,8.5511,8.5511,8.5511,8.5511,8.5511,8.5511,8.5511,8.5511,8.5435,8.4824,8.4212,8.3295,8.2378,8.1576,8.1003,8.0544,8.0506,8.0506,8.0506,8.0506,8.0506,8.0506,8.0506,8.0506,8.0506,8.0506,8.0506,8.0506,8.0506,8.0506,8.0506,8.0506,8.0506,8.0506,8.0506,8.0506,8.0506,8.0506,8.0506,8.0506,8.0506,8.0506,8.0506,8.0506,8.0506,8.0506,8.0506,8.0506,8.0506,8.0506,8.0506,8.0506,8.0506,8.0506,8.0506,8.0506,8.0506,8.0506,8.0506,8.0506,8.0506,8.0506,8.0506,8.0506,8.0506,8.0506,8.0506,8.0506,8.8977,8.8666,8.8879,8.9173,8.9513,8.9692,8.9828,8.9904,8.9828,8.979,8.9839,8.9935,8.9973,8.9887,9.0029,8.9982,8.979,8.9099,8.8331,8.7402,8.653,8.5735,8.5296,8.5203,8.5219,8.5224,8.5391,8.5471,8.5511,8.5471,8.5511,8.5511,8.5511,8.5511,8.5511,8.5511,8.5511,8.5511,8.5511,8.5511,8.5511,8.5511,8.5511,8.5511,8.5511,8.5511,8.5511,8.5511,8.5511,8.5511,8.5511,8.5511,8.5511,8.5511,8.5511,8.5435,8.5397,8.4824,8.4098,8.299,8.2034,8.1538,8.1003,8.0582,8.0735,8.0544,8.0506,8.0506,8.0506,8.0506,8.0506,8.0506,8.0506,8.0506,8.0506,8.0506,8.0506,8.0506,8.0506,8.0506,8.0506,8.0506,8.0506,8.0506,8.0506,8.0506,8.0506,8.0506,8.0506,8.0506,8.0506,8.0506,8.0506,8.0506,8.0506,8.0506,8.0506,8.0506,8.0506,8.0506,8.0506,8.0506,8.0506,8.0506,8.0506,8.0506,8.0506,8.0506,8.0506,8.0506,8.0506,8.0506,8.0506,8.0506,8.0506,8.8322,8.8727,8.9123,8.9649,9.0216,9.0524,9.0586,9.051,9.0055,8.979,8.979,8.9839,8.9839,8.9839,8.9839,8.9887,8.9676,8.9004,8.8511,8.7781,8.6872,8.6084,8.5683,8.531,8.5132,8.5219,8.5388,8.5469,8.5469,8.5622,8.551,8.5471,8.551,8.5511,8.5511,8.5511,8.5511,8.5511,8.5511,8.5511,8.5511,8.5511,8.5511,8.5511,8.5511,8.5511,8.5511,8.5511,8.5511,8.5511,8.5511,8.5511,8.5511,8.5511,8.5511,8.5511,8.5511,8.532,8.4938,8.3907,8.3181,8.2264,8.1385,8.0697,8.1003,8.0812,8.0544,8.0506,8.0506,8.0506,8.0506,8.0506,8.0506,8.0506,8.0506,8.0506,8.0506,8.0506,8.0506,8.0506,8.0506,8.0506,8.0506,8.0506,8.0506,8.0506,8.0506,8.0506,8.0506,8.0506,8.0506,8.0506,8.0506,8.0506,8.0506,8.0506,8.0506,8.0506,8.0506,8.0506,8.0506,8.0506,8.0506,8.0506,8.0506,8.0506,8.0506,8.0506,8.0506,8.0506,8.0506,8.0506,8.0506,8.0506,8.0506,8.8035,8.879,8.9756,9.0445,9.0774,9.0797,9.0877,9.0777,9.002,8.9741,8.979,8.979,8.979,8.979,8.979,8.979,8.9676,8.9259,8.888,8.8274,8.7516,8.6653,8.6131,8.5804,8.5545,8.5518,8.5605,8.5727,8.5803,8.5956,8.5807,8.5658,8.566,8.5737,8.5511,8.5511,8.5511,8.5511,8.5511,8.5511,8.5511,8.5511,8.5511,8.5511,8.5511,8.5511,8.5511,8.5511,8.5511,8.5511,8.5511,8.5511,8.5511,8.5511,8.5511,8.5511,8.5511,8.5511,8.5282,8.448,8.3563,8.2416,8.1308,8.0964,8.1079,8.085,8.0544,8.0506,8.0506,8.0506,8.0506,8.0506,8.0506,8.0506,8.0506,8.0506,8.0506,8.0506,8.0506,8.0506,8.0506,8.0506,8.0506,8.0506,8.0506,8.0506,8.0506,8.0506,8.0506,8.0506,8.0506,8.0506,8.0506,8.0506,8.0506,8.0506,8.0506,8.0506,8.0506,8.0506,8.0506,8.0506,8.0506,8.0506,8.0506,8.0506,8.0506,8.0506,8.0506,8.0506,8.0506,8.0506,8.0506,8.0506,8.0506,8.8446,8.8803,9.0769,9.1373,9.0909,9.0492,9.0436,9.0555,8.9815,8.9591,8.979,8.979,8.979,8.979,8.979,8.979,8.979,8.9676,8.9373,8.8729,8.8274,8.7478,8.6729,8.6206,8.6138,8.6305,8.6355,8.6361,8.6285,8.6704,8.6361,8.5757,8.5723,8.588,8.551,8.5511,8.5511,8.5511,8.5511,8.5511,8.5511,8.5511,8.5511,8.5511,8.5511,8.5511,8.5511,8.5511,8.5511,8.5511,8.5511,8.5511,8.5511,8.5511,8.5511,8.5511,8.5511,8.5511,8.5435,8.3945,8.2951,8.2302,8.1423,8.0735,8.0659,8.0544,8.0506,8.0506,8.0506,8.0506,8.0506,8.0506,8.0506,8.0506,8.0506,8.0506,8.0506,8.0506,8.0506,8.0506,8.0506,8.0506,8.0506,8.0506,8.0506,8.0506,8.0506,8.0506,8.0506,8.0506,8.0506,8.0506,8.0506,8.0506,8.0506,8.0506,8.0506,8.0506,8.0506,8.0506,8.0506,8.0506,8.0506,8.0506,8.0506,8.0506,8.0506,8.0506,8.0506,8.0506,8.0506,8.0506,8.0506,8.0506,8.0506,8.8404,8.9498,8.9831,9.0239,9.0752,9.1537,9.1451,9.0631,8.9956,8.9692,8.979,8.979,8.979,8.979,8.979,8.979,8.979,8.979,8.9487,8.9373,8.8918,8.7971,8.7213,8.6957,8.6814,8.651,8.6639,8.6799,8.6305,8.6913,8.6311,8.56,8.5681,8.5575,8.5467,8.551,8.5511,8.5511,8.5511,8.5511,8.5511,8.5511,8.5511,8.5511,8.5511,8.5511,8.5511,8.5511,8.5511,8.5511,8.5511,8.5511,8.5511,8.5511,8.5511,8.5511,8.5511,8.5511,8.5091,8.4098,8.3295,8.2646,8.1652,8.0812,8.1194,8.0735,8.0582,8.0506,8.0506,8.0506,8.0506,8.0506,8.0506,8.0506,8.0506,8.0506,8.0506,8.0506,8.0506,8.0506,8.0506,8.0506,8.0506,8.0543,8.058,8.0543,8.0543,8.0506,8.0506,8.0506,8.0506,8.0506,8.0506,8.0506,8.0506,8.0506,8.0506,8.0506,8.0506,8.0506,8.0506,8.0506,8.0506,8.0506,8.0506,8.0506,8.0506,8.0506,8.0506,8.0506,8.0506,8.0506,8.0506,8.0506,8.0506,8.8336,8.9356,8.9374,8.9506,9.0036,9.1087,9.0905,9.0131,8.9805,8.9692,8.979,8.979,8.979,8.979,8.979,8.979,8.979,8.979,8.979,8.9714,8.9297,8.8577,8.8047,8.7781,8.7592,8.7213,8.7374,8.7619,8.7277,8.7163,8.6556,8.5887,8.56,8.5605,8.5499,8.5391,8.5511,8.5511,8.5511,8.5511,8.5511,8.5511,8.5511,8.5511,8.5511,8.5511,8.5511,8.5511,8.5511,8.5511,8.5511,8.5511,8.5511,8.5511,8.5511,8.5511,8.5511,8.5397,8.4747,8.3868,8.3181,8.2951,8.1461,8.0926,8.1194,8.0735,8.0582,8.0506,8.0506,8.0506,8.0506,8.0506,8.0506,8.0506,8.0506,8.0506,8.0506,8.0506,8.0506,8.0506,8.0506,8.0543,8.0505,8.0616,8.0652,8.0616,8.0542,8.0543,8.0506,8.0506,8.0506,8.0506,8.0506,8.0506,8.0506,8.0506,8.0506,8.0506,8.0506,8.0506,8.0506,8.0506,8.0506,8.0506,8.0506,8.0506,8.0506,8.0506,8.0506,8.0506,8.0506,8.0506,8.0506,8.0506,8.0506,8.8169,8.8386,8.943,8.9418,8.8893,8.9284,8.9257,8.9104,8.9318,8.9541,8.9665,8.9589,8.9601,8.9676,8.9714,8.9714,8.979,8.979,8.979,8.979,8.9601,8.907,8.8767,8.8577,8.8388,8.8463,8.8539,8.8511,8.8501,8.7753,8.6957,8.6236,8.5849,8.5632,8.5418,8.5391,8.5471,8.5511,8.5511,8.5511,8.5511,8.5511,8.5511,8.5511,8.5511,8.5511,8.5511,8.5511,8.5511,8.5511,8.5511,8.5511,8.5511,8.5511,8.5511,8.5511,8.5511,8.5129,8.4441,8.3524,8.2722,8.2302,8.1194,8.0659,8.0544,8.0582,8.0544,8.0506,8.0506,8.0506,8.0506,8.0506,8.0506,8.0506,8.0506,8.0506,8.0506,8.0543,8.0506,8.0543,8.0543,8.0543,8.0578,8.065,8.0723,8.0614,8.0578,8.0505,8.0543,8.0506,8.0506,8.0506,8.0506,8.0506,8.0506,8.0506,8.0506,8.0506,8.0506,8.0506,8.0506,8.0506,8.0506,8.0506,8.0506,8.0506,8.0506,8.0506,8.0506,8.0506,8.0506,8.0506,8.0506,8.0506,8.0506,8.7762,8.8378,8.8317,8.8154,8.8137,8.8355,8.8815,8.9457,8.942,8.9173,8.8671,8.8859,8.8956,8.8956,8.8956,8.9297,8.9638,8.979,8.979,8.9752,8.9676,8.9222,8.9032,8.9032,8.8994,8.8918,8.8956,8.8918,8.835,8.7705,8.6568,8.5393,8.5652,8.5399,8.5376,8.5391,8.5471,8.5511,8.5511,8.5511,8.5511,8.5511,8.5511,8.5511,8.5511,8.5511,8.5511,8.5511,8.5511,8.5511,8.5511,8.5511,8.5511,8.5511,8.5511,8.5511,8.5435,8.5167,8.4327,8.3486,8.2607,8.1767,8.0964,8.0621,8.0506,8.0506,8.0506,8.0506,8.0506,8.0506,8.0506,8.0506,8.0543,8.0543,8.0543,8.058,8.058,8.058,8.058,8.0578,8.0616,8.0614,8.0685,8.0758,8.0792,8.065,8.0614,8.0578,8.0543,8.0543,8.0506,8.0506,8.0506,8.0506,8.0506,8.0506,8.0506,8.0506,8.0506,8.0506,8.0506,8.0506,8.0506,8.0506,8.0506,8.0506,8.0506,8.0506,8.0506,8.0506,8.0506,8.0506,8.0506,8.0543,8.0543,8.6696,8.6906,8.6598,8.6823,8.7275,8.7502,8.8171,8.8899,8.8729,8.8329,8.8178,8.7991,8.8177,8.8615,8.8691,8.9032,8.9752,8.9411,8.9373,8.9752,8.9487,8.9335,8.9259,8.9146,8.8956,8.888,8.8691,8.8539,8.8198,8.7668,8.6644,8.5052,8.5272,8.5361,8.5338,8.5349,8.5471,8.5511,8.5511,8.5511,8.5511,8.5511,8.5511,8.5511,8.5511,8.5511,8.5511,8.5511,8.5511,8.5511,8.5511,8.5511,8.5511,8.5511,8.5511,8.5511,8.5473,8.4824,8.3907,8.3333,8.2416,8.1538,8.0812,8.0621,8.0506,8.0506,8.0506,8.0506,8.0506,8.0506,8.0543,8.0505,8.0505,8.0542,8.0616,8.0652,8.0652,8.0652,8.0688,8.0685,8.0685,8.072,8.0754,8.086,8.086,8.0788,8.0685,8.065,8.0616,8.0543,8.0506,8.0506,8.0506,8.0506,8.0506,8.0506,8.0506,8.0506,8.0506,8.0506,8.0506,8.0506,8.0506,8.0506,8.0506,8.0506,8.0506,8.0506,8.0506,8.0506,8.0505,8.0542,8.0542,8.054,8.0578,8.5306,8.4682,8.4809,8.5614,8.6486,8.6648,8.7155,8.7812,8.7295,8.7399,8.7683,8.7235,8.7462,8.7912,8.8188,8.8691,8.9032,8.8918,8.907,8.9676,8.907,8.8994,8.9297,8.8956,8.8615,8.8274,8.8047,8.7933,8.8198,8.763,8.6493,8.5052,8.5569,8.5621,8.5257,8.5346,8.5469,8.5511,8.5511,8.5511,8.5511,8.5511,8.5511,8.5511,8.5511,8.5511,8.5511,8.5511,8.5511,8.5511,8.5511,8.5511,8.5511,8.5511,8.5511,8.5511,8.5511,8.4594,8.3677,8.3066,8.2073,8.1232,8.0506,8.0506,8.0506,8.0506,8.0506,8.0506,8.0506,8.0506,8.0506,8.0542,8.0578,8.0614,8.0688,8.0723,8.0792,8.0758,8.0758,8.0754,8.0788,8.0822,8.0822,8.0926,8.0965,8.0893,8.0822,8.0758,8.0652,8.058,8.0543,8.0506,8.0506,8.0506,8.0506,8.0506,8.0506,8.0506,8.0506,8.0506,8.0506,8.0506,8.0506,8.0506,8.0506,8.0506,8.0506,8.0506,8.0506,8.0506,8.0505,8.054,8.0537,8.0611,8.0611,8.4792,8.4609,8.4903,8.5371,8.5794,8.5892,8.6004,8.6115,8.5395,8.569,8.6406,8.6727,8.6719,8.6732,8.7371,8.7885,8.815,8.8404,8.8691,8.8908,8.8642,8.9021,8.9373,8.8615,8.8198,8.8198,8.7895,8.7099,8.6909,8.6644,8.6303,8.5052,8.5379,8.5279,8.5219,8.5346,8.5429,8.5511,8.5511,8.5511,8.5511,8.5511,8.5511,8.5511,8.5511,8.5511,8.5511,8.5511,8.5511,8.5511,8.5511,8.5511,8.5511,8.5511,8.5511,8.5511,8.5473,8.4556,8.3563,8.2875,8.2111,8.1117,8.0506,8.0506,8.0506,8.0506,8.0506,8.0506,8.0506,8.0506,8.0543,8.0578,8.0614,8.065,8.0758,8.0826,8.0893,8.0893,8.086,8.0893,8.0893,8.0926,8.0959,8.0959,8.0959,8.0959,8.0926,8.086,8.0688,8.058,8.0543,8.0543,8.0506,8.0506,8.0506,8.0506,8.0506,8.0506,8.0506,8.0506,8.0506,8.0506,8.0506,8.0506,8.0506,8.0506,8.0506,8.0506,8.0506,8.0543,8.058,8.0614,8.0681,8.0716,8.0754,8.3838,8.3647,8.424,8.4643,8.483,8.4916,8.5163,8.5237,8.4272,8.4257,8.4993,8.5357,8.5568,8.5658,8.6354,8.7286,8.7588,8.7701,8.8254,8.8569,8.8457,8.8948,8.8771,8.8301,8.8084,8.7933,8.7213,8.6455,8.581,8.5962,8.581,8.5014,8.4999,8.5051,8.5181,8.5346,8.5429,8.5511,8.5511,8.5511,8.5511,8.5511,8.5511,8.5511,8.5511,8.5511,8.5511,8.5511,8.5511,8.5511,8.5511,8.5511,8.5511,8.5511,8.5511,8.5511,8.532,8.4785,8.3563,8.2798,8.2187,8.1117,8.0506,8.0506,8.0506,8.0506,8.0506,8.0506,8.0506,8.0506,8.0543,8.0578,8.065,8.0758,8.086,8.0997,8.1029,8.1029,8.0997,8.0997,8.0991,8.0991,8.1023,8.1023,8.1061,8.1029,8.0959,8.0855,8.0758,8.0616,8.058,8.0543,8.0506,8.0506,8.0506,8.0506,8.0506,8.0506,8.0506,8.0506,8.0506,8.0506,8.0506,8.0506,8.0506,8.0506,8.0506,8.0543,8.0542,8.0578,8.0614,8.0723,8.0754,8.0817,8.092,8.2517,8.2104,8.2822,8.3382,8.3582,8.3732,8.4164,8.4633,8.3534,8.3213,8.3695,8.3632,8.4479,8.5152,8.5617,8.6872,8.7339,8.6749,8.7373,8.7802,8.7773,8.8065,8.8167,8.8079,8.7296,8.6738,8.6218,8.5612,8.509,8.5431,8.5469,8.4976,8.4954,8.5051,8.5219,8.5304,8.5391,8.5471,8.5511,8.5511,8.5511,8.5511,8.5511,8.5511,8.5511,8.5511,8.5511,8.5511,8.5511,8.5511,8.5511,8.5511,8.5511,8.5511,8.5511,8.5511,8.5511,8.4594,8.3448,8.299,8.1958,8.1003,8.0659,8.0506,8.0506,8.0506,8.0506,8.0506,8.0506,8.0543,8.058,8.0652,8.0723,8.0941,8.1042,8.1323,8.1323,8.1323,8.1323,8.1285,8.1208,8.117,8.1093,8.1093,8.1093,8.1061,8.0991,8.0926,8.0822,8.0723,8.0652,8.058,8.0506,8.0506,8.0506,8.0506,8.0506,8.0506,8.0506,8.0506,8.0506,8.0506,8.0506,8.0506,8.0506,8.0506,8.0505,8.0542,8.0576,8.0611,8.072,8.0792,8.0849,8.0946,8.1077,8.0451,8.043,8.064,8.1206,8.1883,8.2018,8.2486,8.3102,8.2906,8.277,8.267,8.2832,8.3321,8.3802,8.476,8.5545,8.5639,8.5412,8.5575,8.5853,8.6379,8.6802,8.692,8.6757,8.5523,8.5232,8.5328,8.4997,8.493,8.5082,8.5128,8.4901,8.4939,8.5037,8.5176,8.5262,8.5422,8.5508,8.5588,8.5626,8.5511,8.5511,8.5511,8.5511,8.5511,8.5511,8.5511,8.5511,8.5511,8.5511,8.5511,8.5511,8.5511,8.5511,8.5511,8.5511,8.5511,8.4556,8.3601,8.3104,8.2073,8.0773,8.0506,8.0506,8.0506,8.0506,8.0506,8.0506,8.0506,8.0506,8.058,8.0688,8.0792,8.1205,8.1497,8.1907,8.2131,8.2093,8.2054,8.1823,8.1516,8.1362,8.1093,8.1093,8.1093,8.1093,8.1093,8.0959,8.0826,8.0758,8.0688,8.0616,8.0506,8.0506,8.0506,8.0506,8.0506,8.0506,8.0506,8.0506,8.0506,8.0506,8.0506,8.0543,8.0543,8.0505,8.0542,8.065,8.0685,8.0754,8.0826,8.0893,8.0984,8.1069,8.1196]},{"header":{"parameterUnit":"m.s-1","parameterCategory":1,"la1":31.0,"la2":29.5877,"lo1":-88.7671,"lo2":-86.6584,"dy":0.0162,"dx":0.0185,"nx":115,"ny":88,"refTime":"2024-05-09T12:00:00:Z","depth":0,"parameterNumber":3,"parameterNumberName":"V-component_of_WINDS"},"data":[0.0,0.0,0.0,0.0,0.0,0.0,0.0,0.0,0.0,0.0,0.0,0.0,0.0,0.0,0.0,0.0,0.0,0.0,0.0,0.0,0.0,0.0,0.0,0.0,0.0,0.0,0.0,0.0,0.0,0.0,0.0,0.0,0.0,0.0,0.0,0.0,0.0,0.0,0.0,0.0,0.0,0.0,0.0,0.0,0.0,0.0,0.0,0.0,0.0,0.0,0.0,0.0,0.0,0.0,0.0,0.0,0.0,0.0,0.0,0.0,0.0,0.0,0.0,0.0,0.0,0.0,0.0,0.0,0.0,0.0,0.0,0.0,0.0,0.0,0.0,0.0,0.0,0.0,0.0,0.0,0.0,0.0,0.0,0.0,0.0,0.0,0.0,0.0,0.0,0.0,0.0,0.0,0.0,0.0,0.0,0.0,0.0,0.0,0.0,0.0,0.0,0.0,0.0,0.0,0.0,0.0,0.0,0.0,0.0,0.0,0.0,0.0,0.0,0.0,0.0,0.0,0.0,0.0,0.0,0.0,0.0,0.0,0.0,0.0,0.0,0.0,0.0,0.0,0.0,0.0,0.0,0.0,0.0,0.0,0.0,0.0,0.0,0.0,0.0,0.0,0.0,0.0,0.0,0.0,0.0,0.0,0.0,0.0,0.0,0.0,0.0,0.0,0.0,0.0,0.0,0.0,0.0,0.0,0.0,0.0,0.0,0.0,0.0,0.0,0.0,0.0,0.0,0.0,0.0,0.0,0.0,0.0,0.0,0.0,0.0,0.0,0.0,0.0,0.0,0.0,0.0,0.0,0.0,0.0,0.0,0.0,0.0,0.0,0.0,0.0,0.0,0.0,0.0,0.0,0.0,0.0,0.0,0.0,0.0,0.0,0.0,0.0,0.0,0.0,0.0,0.0,0.0,0.0,0.0,0.0,0.0,0.0,0.0,0.0,0.0,0.0,0.0,0.0,0.0,0.0,0.0,0.0,0.0,0.0,0.0,0.0,0.0,0.0,0.0,0.0,0.0,0.0,0.0,0.0,0.0,0.0,0.0,0.0,0.0,0.0,0.0,0.0,0.0,0.0,0.0,0.0,0.0,0.0,0.0,0.0,0.0,0.0,0.0,0.0,0.0,0.0,0.0,0.0,0.0,0.0,0.0,0.0,0.0,0.0,0.0,0.0,0.0,0.0,0.0,0.0,0.0,0.0,0.0,0.0,0.0,0.0,0.0,0.0,0.0,0.0,0.0,0.0,0.0,0.0,0.0,0.0,0.0,0.0,0.0,0.0,0.0,0.0,0.0,0.0,0.0,0.0,0.0,0.0,0.0,0.0,0.0,0.0,0.0,0.0,0.0,0.0,0.0,0.0,0.0,0.0,0.0,0.0,0.0,0.0,0.0,0.0,0.0,0.0,0.0,0.0,0.0,0.0,0.0,0.0,0.0,0.0,0.0,0.0,0.0,0.0,0.0,0.0,0.0,0.0,0.0,0.0,0.0,0.0,0.0,0.0,0.0,0.0,0.0,0.0,0.0,0.0,0.0,0.0,0.0,0.0,0.0,0.0,0.0,0.0,0.0,0.0,0.0,0.0,0.0,0.0,0.0,0.0,0.0,0.0,0.0,0.0,0.0,0.0,0.0,0.0,0.0,0.0,0.0,0.0,0.0,0.0,0.0,0.0,0.0,0.0,0.0,0.0,0.0,0.0,0.0,0.0,0.0,0.0,0.0,0.0,0.0,0.0,0.0,0.0,0.0,0.0,0.0,0.0,0.0,0.0,0.0,0.0,0.0,0.0,0.0,0.0,0.0,0.0,0.0,0.0,0.0,0.0,0.0,0.0,0.0,0.0,0.0,0.0,0.0,0.0,0.0,0.0,0.0,0.0,0.0,0.0,0.0,0.0,0.0,0.0,0.0,0.0,0.0,0.0,0.0,0.0,0.0,0.0,0.0,0.0,0.0,0.0,0.0,0.0,0.0,0.0,0.0,0.0,0.0,0.0,0.0,0.0,0.0,0.0,0.0,0.0,0.0,0.0,0.0,0.0,0.0,0.0,0.0,0.0,0.0,0.0,0.0,0.0,0.0,0.0,0.0,0.0,0.0,0.0,0.0,0.0,0.0,0.0,0.0,0.0,0.0,0.0,0.0,0.0,0.0,0.0,0.0,0.0,0.0,0.0,0.0,0.0,0.0,0.0,0.0,0.0,0.0,0.0,0.0,0.0,0.0,0.0,0.0,0.0,0.0,0.0,0.0,0.0,0.0,0.0,0.0,0.0,0.0,0.0,0.0,0.0,0.0,0.0,0.0,0.0,0.0,0.0,0.0,0.0,0.0,0.0,0.0,0.0,0.0,0.0,0.0,0.0,0.0,0.0,0.0,0.0,0.0,0.0,0.0,0.0,0.0,0.0,0.0,0.0,0.0,0.0,0.0,0.0,0.0,0.0,0.0,0.0,0.0,0.0,0.0,0.0,0.0,0.0,0.0,0.0,0.0,0.0,0.0,0.0,0.0,0.0,0.0,0.0,0.0,0.0,0.0,0.0,0.0,0.0,0.0,0.0,0.0,0.0,0.0,0.0,0.0,0.0,0.0,0.0,0.0,0.0,0.0,0.0,0.0,0.0,0.0,0.0,0.0,0.0,0.0,0.0,0.0,0.0,0.0,0.0,0.0,0.0,0.0,0.0,0.0,0.0,0.0,0.0,0.0,0.0,0.0,0.0,0.0,0.0,0.0,0.0,0.0,0.0,0.0,0.0,0.0,0.0,0.0,0.0,0.0,0.0,0.0,0.0,0.0,0.0,0.0,0.0,0.0,0.0,0.0,0.0,0.0,0.0,0.0,0.0,0.0,0.0,0.0,0.0,0.0,0.0,0.0,0.0,0.0,0.0,0.0,0.0,0.0,0.0,0.0,0.0,0.0,0.0,0.0,0.0,0.0,0.0,0.0,0.0,0.0,0.0,0.0,0.0,0.0,0.0,0.0,0.0,0.0,0.0,0.0,0.0,0.0,0.0,0.0,0.0,0.0,0.0,0.0,0.0,0.0,0.0,0.0,0.0,0.0,0.0,0.0,0.0,0.0,0.0,0.0,0.0,0.0,0.0,0.0,0.0,0.0,0.0,0.0,0.0,0.0,0.0,0.0,0.0,0.0,0.0,0.0,0.0,0.0,0.0,0.0,0.0,0.0,0.0,0.0,0.0,0.0,0.0,0.0,0.0,0.0,0.0,0.0,0.0,0.0,0.0,0.0,0.0,0.0,0.0,0.0,0.0,0.0,0.0,0.0,0.0,0.0,0.0,0.0,0.0,0.0,0.0,0.0,0.0,0.0,0.0,0.0,0.0,0.0,0.0,0.0,0.0,0.0,0.0,0.0,0.0,0.0,0.0,0.0,0.0,0.0,0.0,0.0,0.0,0.0,0.0,0.0,0.0,0.0,0.0,0.0,0.0,0.0,0.0,0.0,0.0,0.0,0.0,0.0,0.0,0.0,0.0,0.0,0.0,0.0,0.0,0.0,0.0,0.0,0.0,0.0,0.0,0.0,0.0,0.0,0.0,0.0,0.0,0.0,0.0,0.0,0.0,0.0,0.0,0.0,0.0,0.0,0.0,0.0,0.0,0.0,0.0,0.0,0.0,0.0,0.0,0.0,0.0,0.0,0.0,0.0,0.0,0.0,0.0,0.0,0.0,0.0,0.0,0.0,0.0,0.0,0.0,0.0,0.0,0.0,0.0,0.0,0.0,0.0,0.0,0.0,0.0,0.0,0.0,0.0,0.0,0.0,0.0,0.0,0.0,0.0,0.0,0.0,0.0,0.0,0.0,0.0,0.0,0.0,0.0,0.0,0.0,0.0,0.0,0.0,0.0,0.0,0.0,0.0,0.0,0.0,0.0,0.0,0.0,0.0,0.0,0.0,0.0,0.0,0.0,0.0,0.0,0.0,0.0,0.0,0.0,0.0,0.0,0.0,0.0,0.0,0.0,0.0,0.0,0.0,0.0,0.0,0.0,0.0,0.0,0.0,0.0,0.0,0.0,0.0,0.0,0.0,0.0,0.0,0.0,0.0,0.0,0.0,0.0,0.0,0.0,0.0,0.0,0.0,0.0,0.0,0.0,0.0,0.0,0.0,0.0,0.0,0.0,0.0,0.0,0.0,0.0,0.0,0.0,0.0,0.0,0.0,0.0,0.0,0.0,0.0,0.0,0.0,0.0,0.0,0.0,0.0,0.0,0.0,0.0,0.0,0.0,0.0,0.0,0.0,0.0,0.0,0.0,0.0,0.0,0.0,0.0,0.1127,0.0,0.0,0.0,0.0,0.0,0.0,0.0,0.0,0.0,0.0,0.0,0.0,0.0,0.0,0.0,0.0,0.0,0.0,0.0,0.0,0.0,0.0,0.0,0.0,0.0,0.0,0.0,0.0,0.0,0.0,0.0,0.0,0.0,0.0,0.0,0.0,0.0,0.0,0.0,0.0,0.0,0.0,0.0,0.0,0.0,0.0,0.0,0.0,0.0,0.0,0.0,0.0,0.0,0.0,0.0,0.0,0.0,0.0,0.0,0.0,0.0,0.0,0.0,0.0,0.0,0.0,0.0,0.0,0.0,0.0,0.0,0.0,0.0,0.0,0.0,0.0,0.0,0.0,0.0,0.0,0.0,0.0,0.0,0.0,0.0,0.0,0.0,0.0,0.0,0.0,0.0,0.0,0.0,0.0,0.0,0.0,0.0,0.0,0.0,0.0,0.0,0.0,0.0,0.0,0.0,0.0,0.0,0.0,0.0,0.0,0.1288,0.1333,0.1256,0.1244,0.1232,0.0,0.0,0.0,0.0,0.0,0.0,0.0,0.0,0.0,0.0,0.0,0.0,0.0,0.0,0.0,0.0,0.0,0.0,0.0,0.0,0.0,0.0,0.0,0.0,0.0,0.0,0.0,0.0,0.0,0.0,0.0,0.0,0.0,0.0,0.0,0.0,0.0,0.0,0.0,0.0,0.0,0.0,0.0,0.0,0.0,0.0,0.0,0.0,0.0,0.0,0.0,0.0,0.0,0.0,0.0,0.0,0.0,0.0,0.0,0.0,0.0,0.0,0.0,0.0,0.0,0.0,0.0,0.0,0.0,0.0,0.0,0.0,0.0,0.0,0.0,0.0,0.0,0.0,0.0,0.0,0.0,0.0,0.0,0.0,0.0,0.0,0.0,0.0,0.0,0.0,0.0,0.0,0.0,0.0,0.0,0.0,0.0,0.0,0.0,0.0,0.0,0.0,0.0,0.0,0.0,0.0,0.0,0.0,0.0,0.0,0.0,0.0,0.1241,0.1235,0.1303,0.0,0.0,0.0,0.0,0.0,0.0,0.0,0.0,0.0,0.0,0.0,0.0,0.0,0.0,0.0,0.0,0.0,0.0,0.0,0.0,0.0,0.0,0.0,0.0,0.0,0.0,0.0,0.0,0.0,0.0,0.0,0.0,0.0,0.0,0.0,0.0,0.0,0.0,0.0,0.0,0.0,0.0,0.0,0.0,0.0,0.0,0.0,0.0,0.0,0.0,0.0,0.0,0.0,0.0,0.0,0.0,0.0,0.0,0.0,0.0,0.0,0.0,0.0,0.0,0.0,0.0,0.0,0.0,0.0,0.0,0.0,0.0,0.0,0.0,0.0,0.0,0.0,0.0,0.0,0.0,0.0,0.0,0.0,0.0,0.0,0.0,0.0,0.0,0.0,0.0,0.0,0.0,0.0,0.0,0.0,0.0,0.0,0.0,0.0,0.0,0.0,0.0,0.0,0.0,0.0,0.0,0.0,0.0,0.0,0.0,0.132,0.1456,0.1451,0.0,0.1456,0.0,0.0,0.0,0.0,0.0,0.0,0.0,0.0,0.0,0.0,0.0,0.0,0.0,0.0,0.0,0.0,0.0,0.0,0.0,0.0,0.0,0.0,0.0,0.0,0.0,0.0,0.0,0.0,0.0,0.0,0.0,0.0,0.0,0.0,0.0,0.0,0.0,0.0,0.0,0.0,0.0,0.0,0.0,0.0,0.0,0.0,0.0,0.0,0.0,0.0,0.0,0.0,0.0,0.0,0.0,0.0,0.0,0.0,0.0,0.0,0.0,0.0,0.0,0.0,0.0,0.0,0.0,0.0,0.0,0.0,0.0,0.0,0.0,0.0,0.0,0.0,0.0,0.0,0.0,0.0,0.0,0.0,0.0,0.0,0.0,0.0,0.0,0.0,0.0,0.0,0.0,0.0,0.0,0.0,0.0,0.0,0.0,0.0,0.0,0.0,0.0,0.0,0.0,0.0,0.0,0.0,0.0,0.0,0.0,0.0,0.1365,0.1479,0.148,0.1456,0.0,0.0,0.0,0.0,0.0,0.0,0.0,0.0,0.0,0.0,0.0,0.0,0.0,0.0,0.0,0.0,0.0,0.0,0.0,0.0,0.0,0.0,0.0,0.0,0.0,0.0,0.0,0.0,0.0,0.0,0.0,0.0,0.0,0.0,0.0,0.0,0.0,0.0,0.0,0.0,0.0,0.0,0.0,0.0,0.0,0.0,0.0,0.0,0.0,0.0,0.0,0.0,0.0,0.0,0.0,0.0,0.0,0.0,0.0,0.0,0.0,0.0,0.0,0.0,0.0,0.0,0.0,0.0,0.0,0.0,0.0,0.0,0.0,0.0,0.0,0.0,0.0,0.0,0.0,0.0,0.0,0.0,0.0,0.0,0.0,0.0,0.0,0.0,0.0,0.0,0.0,0.0,0.0,0.0,0.0,0.0,0.0,0.0,0.0,0.0,0.0,0.0,0.0,0.0,0.0,0.0,0.0,0.0,0.0,0.0,0.1386,0.1423,0.1521,0.149,0.1438,0.1288,0.0,0.0,0.0,0.0,0.0,0.0,0.0,0.0,0.0,0.0,0.0,0.0,0.0,0.0,0.0,0.0,0.0,0.0,0.0,0.0,0.0,0.0,0.0,0.0,0.0,0.0,0.0,0.0,0.0,0.0,0.0,0.0,0.0,0.0,0.0,0.0,0.0,0.0,0.0,0.0,0.0,0.0,0.0,0.0,0.0,0.0,0.0,0.0,0.0,0.0,0.0,0.0,0.0,0.0,0.0,0.0,0.0,0.0,0.0,0.0,0.0,0.0,0.0,0.0,0.0,0.0,0.0,0.0,0.0,0.0,0.0,0.0,0.0,0.0,0.0,0.0,0.0,0.0,0.0,0.0,0.0,0.0,0.0,0.0,0.0,0.0,0.0,0.0,0.0,0.0,0.0,0.0,0.0,0.0,0.0,0.0,0.0,0.0,0.0,0.0,0.0,0.0,0.0,0.0,0.0,0.0,0.0,0.0,0.1662,0.1516,0.1502,0.1641,0.1513,0.1436,0.0,0.0,0.0,0.0,0.0,0.0,0.0,0.0,0.0,0.0,0.0,0.0,0.0,0.0,0.0,0.0,0.0,0.0,0.0,0.0,0.0,0.0,0.0,0.0,0.0,0.0,0.0,0.0,0.0,0.0,0.0,0.0,0.0,0.0,0.0,0.0,0.0,0.0,0.0,0.0,0.0,0.0,0.0,0.0,0.0,0.0,0.0,0.0,0.0,0.0,0.0,0.0,0.0,0.0,0.0,0.0,0.0,0.0,0.0,0.0,0.0,0.0,0.0,0.0,0.0,0.0,0.0,0.0,0.0,0.0,0.0,0.0,0.0,0.0,0.0,0.0,0.0,0.0,0.0,0.0,0.0,0.0,0.0,0.0,0.0,0.0,0.0,0.0,0.0,0.0,0.0,0.0,0.0,0.0,0.0,0.0,0.0,0.0,0.0,0.0,0.0,0.0,0.0,0.0,0.0,0.0,0.0,0.0,0.0,0.1415,0.1466,0.1528,0.1598,0.1532,0.1485,0.0,0.0,0.0,0.0,0.0,0.0,0.0,0.0,0.0,0.0,0.0,0.0,0.0,0.0,0.0,0.0,0.0,0.0,0.0,0.0,0.0,0.0,0.0,0.0,0.0,0.0,0.0,0.0,0.0,0.0,0.0,0.0,0.0,0.0,0.0,0.0,0.0,0.0,0.0,0.0,0.0,0.0,0.0,0.0,0.0,0.0,0.0,0.0,0.0,0.0,0.0,0.0,0.0,0.0,0.0,0.0,0.0,0.0,0.0,0.0,0.0,0.0,0.0,0.0,0.0,0.0,0.0,0.0,0.0,0.0,0.0,0.0,0.0,0.0,0.0,0.0,0.0,0.0,0.0,0.0,0.0,0.0,0.0,0.0,0.0,0.0,0.0,0.0,0.0,0.0,0.0,0.0,0.0,0.0,0.0,0.0,0.0,0.0,0.0,0.0,0.0,0.0,0.0,0.0,0.0,0.0,0.0,0.0,0.0,0.1361,0.0,0.1555,0.1555,0.1517,0.1464,0.0,0.0,0.0,0.0,0.0,0.0,0.0,0.0,0.0,0.0,0.0,0.0,0.0,0.0,0.0,0.0,0.0,0.0,0.0,0.0,0.0,0.0,0.0,0.0,0.0,0.0,0.0,0.0,0.0,0.0,0.0,0.0,0.0,0.0,0.0,0.0,0.0,0.0,0.0,0.0,0.0,0.0,0.0,0.0,0.0,0.0,0.0,0.0,0.0,0.0,0.0,0.0,0.0,0.0,0.0,0.0,0.0,0.0,0.0,0.0,0.0,0.0,0.0,0.0,0.0,0.0,0.0,0.0,0.0,0.0,0.0,0.0,0.0,0.0,0.0,0.0,0.0,0.0,0.0,0.0,0.0,0.0,0.0,0.0,0.0,0.0,0.0,0.0,0.0,0.0,0.0,0.0,0.0,0.0,0.0,0.0,0.0,0.0,0.0,0.0,0.0,0.0,0.0,0.0,0.0,0.0,0.0,0.0,0.1389,0.1557,0.1592,0.1584,0.153,0.147,0.1369,0.0,0.0,0.0,0.0,0.0,0.0,0.0,0.0,0.0,0.0,0.0,0.0,0.0,0.0,0.0,0.0,0.0,0.0,0.0,0.0,0.0,0.0,0.0,0.0,0.0,0.0,0.0,0.0,0.0,0.0,0.0,0.0,0.0,0.0,0.0,0.0,0.0,0.0,0.0,0.0,0.0,0.0,0.0,0.0,0.0,0.0,0.0,0.0,0.0,0.0,0.0,0.0,0.0,0.0,0.0,0.0,0.0,0.0,0.0,0.0,0.0,0.0,0.0,0.0,0.0,0.0,0.0,0.0,0.0,0.0,0.0,0.0,0.0,0.0,0.0,0.0,0.0,0.0,0.0,0.0,0.0,0.0,0.0,0.0,0.0,0.0,0.0,0.0,0.0,0.0,0.0,0.0,0.0,0.0,0.0,0.0,0.0,0.0,0.0,0.0,0.0,0.0,0.0,0.0,0.0,0.0,0.0,0.0,0.0,0.1476,0.1506,0.1564,0.1639,0.1471,0.1324,0.0,0.0,0.0,0.0,0.0,0.0,0.0,0.0,0.0,0.0,0.0,0.0,0.0,0.0,0.0,0.0,0.0,0.0,0.0,0.0,0.0,0.0,0.0,0.0,0.0,0.0,0.0,0.0,0.0,0.0,0.0,0.0,0.0,0.0,0.0,0.0,0.0,0.0,0.0,0.0,0.0,0.0,0.0,0.0,0.0,0.0,0.0,0.0,0.0,0.0,0.0,0.0,0.0,0.0,0.0,0.0,0.0,0.0,0.0,0.0,0.0,0.0,0.0,0.0,0.0,0.0,0.0,0.0,0.0,0.0,0.0,0.0,0.0,0.0,0.0,0.0,0.0,0.0,0.0,0.0,0.0,0.0,0.0,0.0,0.0,0.0,0.0,0.0,0.0,0.0,0.0,0.0,0.0,0.0,0.0,0.0,0.0,0.0,0.0,0.0,0.0,0.0,0.0,0.0,0.0,0.0,0.0,0.0,0.0,0.1621,0.1617,0.1643,0.1703,0.1558,0.1491,0.1512,0.0,0.0,0.0,0.0,0.0,0.0,0.0,0.0,0.0,0.0,0.0,0.0,0.0,0.0,0.0,0.0,0.0,0.0,0.0,0.0,0.0,0.0,0.0,0.0,0.0,0.0,0.0,0.0,0.0,0.0,0.0,0.0,0.0,0.0,0.0,0.0,0.0,0.0,0.0,0.0,0.0,0.0,0.0,0.0,0.0,0.0,0.0,0.0,0.0,0.0,0.0,0.0,0.0,0.0,0.0,0.0,0.0,0.0,0.0,0.0,0.0,0.0,0.0,0.0,0.0,0.0,0.0,0.0,0.0,0.0,0.0,0.0,0.0,0.0,0.0,0.0,0.0,0.0,0.0,0.0,0.0,0.0,0.0,0.0,0.0,0.0,0.0,0.0,0.0,0.0,0.0,0.0,0.0,0.0,0.0,0.0,0.0,0.0,0.0,0.0,0.0,0.0,0.0,0.0,0.0,0.0,0.0,0.0,0.1943,0.1903,0.1842,0.1749,0.1831,0.1705,0.0,0.0,0.0,0.0,0.0,0.0,0.0,0.0,0.0,0.0,0.0,0.0,0.0,0.0,0.0,0.0,0.0,0.0,0.0,0.0,0.0,0.0,0.0,0.0,0.0,0.0,0.0,0.0,0.0,0.0,0.0,0.0,0.0,0.0,0.0,0.0,0.0,0.0,0.0,0.0,0.0,0.0,0.0,0.0,0.0,0.0,0.0,0.0,0.0,0.0,0.0,0.0,0.0,0.0,0.0,0.0,0.0,0.0,0.0,0.0,0.0,0.0,0.0,0.0,0.0,0.0,0.0,0.0,0.0,0.0,0.0,0.0,0.0,0.0,0.0,0.0,0.0,0.0,0.0,0.0,0.0,0.0,0.0,0.0,0.0,0.0,0.0,0.0,0.0,0.0,0.0,0.0,0.0,0.0,0.0,0.0,0.0,0.0,0.0,0.0,0.0,0.0,0.0,0.0,0.0,0.0,0.0,0.0,0.0,0.2097,0.2296,0.2472,0.2577,0.3259,0.3086,0.0,0.0,0.0,0.0,0.0,0.0,0.0,0.0,0.0,0.0,0.0,0.0,0.0,0.0,0.0,0.0,0.0,0.0,0.0,0.0,0.0,0.0,0.0,0.0,0.0,0.0,0.0,0.0,0.0,0.0,0.0,0.0,0.0,0.0,0.0,0.0,0.0,0.0,0.0,0.0,0.0,0.0,0.0,0.0,0.0,0.0,0.0,0.0,0.0,0.0,0.0,0.0,0.0,0.0,0.0,0.0,0.0,0.0,0.0,0.0,0.0,0.0,0.0,0.0,0.0,0.0,0.0,0.0,0.0,0.0,0.0,0.0,0.0,0.0,0.0,0.0,0.0,0.0,0.0,0.0,0.0,0.0,0.0,0.0,0.0,0.0,0.0,0.0,0.0,0.0,0.0,0.0,0.0,0.0,0.0,0.0,0.0,0.0,0.0,0.0,0.0,0.0,0.0,0.0,0.0,0.0,0.0,0.0,0.2296,0.2716,0.3123,0.3607,0.3929,0.3548,0.3103,0.0,0.0,0.0,0.0,0.0,0.0,0.0,0.0,0.0,0.0,0.0,0.0,0.0,0.0,0.0,0.0,0.0,0.0,0.0,0.0,0.0,0.0,0.0,0.0,0.0,0.0,0.0,0.0,0.0,0.0,0.0,0.0,0.0,0.0,0.0,0.0,0.0,0.0,0.0,0.0,0.0,0.0,0.0,0.0,0.0,0.0,0.0,0.0,0.0,0.0,0.0,0.0,0.0,0.0,0.0,0.0,0.0,0.0,0.0,0.0,0.0,0.0,0.0,0.0,0.0,0.0,0.0,0.0,0.0,0.0,0.0,0.0,0.0,0.0,0.0,0.0,0.0,0.0,0.0,0.0,0.0,0.0,0.0,0.0,0.0,0.0,0.0,0.0,0.0,0.0,0.0,0.0,0.0,0.0,0.0,0.0,0.0,0.0,0.0,0.0,0.0,0.0,0.0,0.0,0.0,0.0,0.0,0.0,0.2687,0.3276,0.4169,0.4815,0.5263,0.3781,0.2779,0.0,0.0,0.0,0.0,0.0,0.0,0.0,0.0,0.0,0.0,0.0,0.0,0.0,0.0,0.0,0.0,0.0,0.0,0.0,0.0,0.0,0.0,0.0,0.0,0.0,0.0,0.0,0.0,0.0,0.0,0.0,0.0,0.0,0.0,0.0,0.0,0.0,0.0,0.0,0.0,0.0,0.0,0.0,0.0,0.0,0.0,0.0,0.0,0.0,0.0,0.0,0.0,0.0,0.0,0.0,0.0,0.0,0.0,0.0,0.0,0.0,0.0,0.0,0.0,0.0,0.0,0.0,0.0,0.0,0.0,0.0,0.0,0.0,0.0,0.0,0.0,0.0,0.0,0.0,0.0,0.0,0.0,0.0,0.0,0.0,0.0,0.0,0.0,0.0,0.0,0.0,0.0,0.0,0.0,0.0,0.0,0.0,0.0,0.0,0.0,0.0,0.0,0.0,0.0,0.0,0.0,0.0,0.0,0.3087,0.3519,0.4377,0.5175,0.5769,0.6288,0.5594,0.0,0.0,0.0,0.0,0.0,0.0,0.0,0.0,0.0,0.0,0.0,0.0,0.0,0.0,0.0,0.0,0.0,0.0,0.0,0.0,0.0,0.0,0.0,0.0,0.0,0.0,0.0,0.0,0.0,0.0,0.0,0.0,0.0,0.0,0.0,0.0,0.0,0.0,0.0,0.0,0.0,0.0,0.0,0.0,0.0,0.0,0.0,0.0,0.1004,0.0,0.0,0.0,0.0,0.0,0.0,0.0,0.0,0.0,0.0,0.0,0.0,0.0,0.0,0.0,0.0,0.0,0.0,0.0,0.0,0.0,0.0,0.0,0.0,0.0,0.0,0.0,0.0,0.0,0.0,0.0,0.0,0.0,0.0,0.0,0.0,0.0,0.0,0.0,0.0,0.0,0.0,0.0,0.0,0.0,0.0,0.0,0.0,0.0,0.0,0.0,0.0,0.0,0.0,0.0,0.0,0.0,0.0,0.0,0.3678,0.4372,0.5056,0.5628,0.6175,0.6972,0.6458,0.0,0.0,0.0,0.0,0.0,0.0,0.0,0.0,0.0,0.0,0.0,0.0,0.0,0.0,0.0,0.0,0.0,0.0,0.0,0.0,0.0,0.0,0.0,0.0,0.0,0.0,0.0,0.0,0.0,0.0,0.0,0.0,0.0,0.0,0.0,0.0,0.0,0.0,0.0,0.0,0.0,0.0,0.0,0.0,0.0,0.0,0.0,0.0,0.0,0.0,0.0,0.0,0.0,0.0,0.0,0.0,0.0,0.0,0.0,0.0,0.0,0.0,0.0,0.0,0.0,0.0,0.0,0.0,0.0,0.0,0.0,0.0,0.0,0.0,0.0,0.0,0.0,0.0,0.0,0.0,0.0,0.0,0.0,0.0,0.0,0.0,0.0,0.0,0.0,0.0,0.0,0.0,0.0,0.0,0.0,0.0,0.0,0.0,0.0,0.0,0.0,0.0,0.0,0.0,0.0,0.0,0.0,0.322,0.411,0.5256,0.5703,0.6027,0.6367,0.6838,0.6591,0.5391,0.0,0.0,0.0,0.0,0.0,0.0,0.0,0.0,0.0,0.0,0.0,0.0,0.0,0.0,0.0,0.0,0.0,0.0,0.0,0.0,0.0,0.0,0.0,0.0,0.0,0.0,0.0,0.0,0.0,0.0,0.0,0.0,0.0,0.0,0.0,0.0,0.0,0.0,-0.4634,-0.3066,0.0,0.0,0.0,0.0,0.0,0.0,0.0,0.0,0.0847,0.0,0.0,0.0,0.0,0.0,0.0,0.0,0.0,0.0,0.0,0.0,0.0,0.0,0.0,0.0,0.0,0.0,0.0,0.0,0.0,0.0,0.0,0.0,0.0,0.0,0.0,0.0,0.0,0.0,0.0,0.0,0.0,0.0,0.0,0.0,0.0,0.0,0.0,0.0,0.0,0.0,0.0,0.0,0.0,0.0,0.0,0.0,0.0,0.0,0.0,0.0,0.0,0.0,0.0,0.0,0.0,0.374,0.3891,0.4452,0.5335,0.6001,0.6409,0.6684,0.7615,0.7369,0.589,0.0,0.0,0.0,0.0,0.0,0.0,0.0,0.0,0.0,0.0,0.0,0.0,0.0,0.0,0.0,0.0,0.0,0.0,0.0,0.0,0.0,0.0,0.0,0.0,0.0,0.0,0.0,0.0,0.0,0.0,0.0,0.0,0.0,0.0,0.0,0.0,0.0,0.0,0.0,-0.1187,-0.0501,0.0,0.0,0.0,0.0,0.0,0.0,0.0,0.0,0.4509,0.0,0.0,0.0,0.0,0.0,0.0,0.0,0.0,0.0,0.0,0.0,0.0,0.0,0.0,0.0,0.0,0.0,0.0,0.0,0.0,0.0,0.0,0.0,0.0,0.0,0.0,0.0,0.0,0.0,0.0,0.0,0.0,0.0,0.0,0.0,0.0,0.0,0.0,0.0,0.0,0.0,0.0,0.0,0.0,0.0,0.0,0.0,0.0,0.0,0.0,0.0,0.0,0.0,0.0,0.0,0.3789,0.4281,0.486,0.573,0.6061,0.6185,0.6282,0.6795,0.6477,0.0,0.0,0.0,0.0,0.0,0.0,0.0,0.0,0.0,0.0,0.0,0.0,0.0,0.0,0.0,0.0,0.0,0.0,0.0,0.0,0.0,0.0,0.0,0.0,0.0,0.0,0.0,0.0,0.0,0.0,0.0,0.0,0.0,0.0,0.0,0.0,0.0,0.0,0.0,0.0,0.0545,0.1791,0.4716,0.0,0.0,0.0,0.0,0.0,0.0,0.5158,0.492,0.0,0.0,0.0,0.0,0.0,0.0,0.0,0.0,0.0,0.0,0.0,0.0,0.0,0.0,0.0,0.0,0.0,0.0,0.0,0.0,0.0,0.0,0.0,0.0,0.0,0.0,0.0,0.0,0.0,0.0,0.0,0.0,0.0,0.0,0.0,0.0,0.0,0.0,0.0,0.0,0.0,0.0,0.0,0.0,0.0,0.0,0.0,0.0,0.0,0.0,0.0,0.0,0.0,0.0,0.0,0.3907,0.4473,0.5056,0.6008,0.6044,0.5929,0.5687,0.6327,0.6051,0.0,0.0,0.0,0.0,0.0,0.0,0.0,0.0,0.0,0.0,0.0,0.0,0.0,0.0,0.0,0.0,0.0,0.0,0.0,0.0,0.0,0.0,0.0,0.0,0.0,0.0,0.0,0.0,0.0,0.0,0.0,0.0,0.0,0.0,0.0,0.0,0.0,0.0,0.0,0.0,0.0,0.3921,0.6983,0.5851,0.0,0.0,0.0,0.0,0.5335,0.5628,0.0,0.0,0.0,0.0,0.0,0.0,0.0,0.0,0.0,0.0,0.0,0.0,0.0,0.0,0.0,0.0,0.0,0.0,0.0,0.0,0.0,0.0,0.0,0.0,0.0,0.0,0.0,0.0,0.0,0.0,0.0,0.0,0.0,0.0,0.0,0.0,0.0,0.0,0.0,0.0,0.0,0.0,0.0,0.0,0.0,0.0,0.0,0.0,0.0,0.0,0.0,0.0,0.0,0.0,0.0,0.0,0.3852,0.4228,0.4923,0.5826,0.5861,0.5749,0.551,0.7521,0.7778,0.0,0.0,0.0,0.0,0.0,0.0,0.0,0.0,0.0,0.0,0.0,0.0,0.0,0.0,0.0,0.0,0.0,0.0,0.0,0.0,0.0,0.0,0.0,0.0,0.0,0.0,0.0,0.0,0.0,0.0,0.0,0.0,0.0,0.0,0.0,0.0,0.0,0.0,0.0,0.0,0.0,0.4468,0.7005,0.621,0.5104,0.0,0.0,0.0,0.809,0.9809,0.0,0.0,0.0,0.0,0.0,0.0,0.0,0.0,0.0,0.0,0.0,0.0,0.0,0.0,0.0,0.0,0.0,0.0,0.0,0.0,0.0,0.0,0.0,0.0,0.0,0.0,0.0,0.0,0.0,0.0,0.0,0.0,0.0,0.0,0.0,0.0,0.0,0.0,0.0,0.0,0.0,0.0,0.0,0.0,0.0,0.0,0.0,0.0,0.0,0.0,0.0,0.0,0.0,0.0,0.0,0.3079,0.3588,0.4315,0.4984,0.5559,0.5749,0.5853,0.5709,0.7369,0.7589,0.0,0.0,0.0,0.0,0.0,0.0,0.0,0.0,0.0,0.0,0.0,0.0,0.0,0.0,0.0,0.0,0.0,0.0,0.0,0.0,0.0,0.0,0.0,0.0,0.0,0.0,0.0,0.0,0.0,0.0,0.0,0.0,0.0,0.0,0.0,0.0,0.0,0.0,0.0,0.0,0.0,0.0,0.6919,0.7598,0.0,0.0,0.0,0.8895,0.7027,0.0,0.0,0.0,0.0,0.0,0.0,0.0,0.0,0.0,0.0,0.0,0.0,0.0,0.0,0.0,0.0,0.0,0.0,0.0,0.0,0.0,0.0,0.0,0.0,0.0,0.0,0.0,0.0,0.0,0.0,0.0,0.0,0.0,0.0,0.0,0.0,0.0,0.0,0.0,0.0,0.0,0.0,0.0,0.0,0.0,0.0,0.0,0.0,0.0,0.0,0.0,0.0,0.0,0.0,0.0,0.0,0.0,0.3464,0.4371,0.5006,0.5281,0.5622,0.5918,0.5838,0.6933,0.0,0.0,0.0,0.0,0.0,0.0,0.0,0.0,0.0,0.0,0.0,0.0,0.0,0.0,0.0,0.0,0.0,0.0,0.0,0.0,0.0,0.0,0.0,0.0,0.0,0.0,0.0,0.1942,0.0,0.0,0.0,0.0,0.0,0.0,0.0,0.0,0.0,0.0,0.0,0.0,0.0,0.0,0.7781,0.7282,0.8524,0.9826,0.0,0.0,0.8933,0.7664,1.0745,1.16,0.0,0.0,0.0,0.0,0.0,0.0,0.0,0.0,0.0,0.0,0.0,0.0,0.0,0.0,0.0,0.0,0.0,0.0,0.0,0.0,0.0,0.0,0.0,0.0,0.0,0.0,0.0,0.0,0.0,0.0,0.0,0.0,0.0,0.0,0.0,0.0,0.0,0.0,0.0,0.0,0.0,0.0,0.0,0.0,0.0,0.0,0.0,0.0,0.0,0.0,0.0,0.0,0.0,0.0,0.0,0.3366,0.4218,0.4798,0.5036,0.5361,0.5645,0.5572,0.6957,0.7755,0.0,0.0,0.0,0.0,0.0,0.0,0.0,0.0,0.0,0.0,0.0,0.0,0.0,0.0,0.0,0.0,0.0,0.0,0.0,0.0,0.0,0.0,0.0,0.0,0.0,0.0,0.0,0.0,0.0,0.0,0.0,0.0,0.0,0.0,0.0,0.0,0.0,0.0,0.0,0.0,0.0,0.9631,0.8228,0.8934,1.0357,0.0,0.0,1.0156,1.23,1.4939,1.4954,0.9947,0.0,0.0,0.0,0.0,0.0,0.0,0.0,0.0,0.0,0.0,0.0,0.0,0.0,0.0,0.0,0.0,0.0,0.0,0.0,0.0,0.0,0.0,0.0,0.0,0.0,0.0,0.0,0.0,0.0,0.0,0.0,0.0,0.0,0.0,0.0,0.0,0.0,0.0,0.0,0.0,0.0,0.0,0.0,0.0,0.0,0.0,0.0,0.0,0.0,0.0,0.0,0.0,0.0,0.2922,0.3176,0.3996,0.4684,0.5182,0.5572,0.5926,0.6091,0.7221,0.7833,0.0,0.0,0.0,0.0,0.0,0.0,0.0,0.0,0.0,0.0,0.0,0.0,0.0,0.0,0.0,0.0,0.0,0.0,0.0,0.0,0.0,0.0,0.0,0.0,0.0,0.0,0.0,0.0,0.6746,0.685,0.5284,0.0,0.0,0.0,0.0,0.0,0.0,0.0,0.0,0.0,0.0,0.9286,1.0247,1.1189,0.0,0.0,1.2443,1.1566,1.0987,1.4471,1.4798,0.8173,0.4036,0.0,0.0,0.0,0.0,0.0,0.0,0.0,0.0,0.0,0.0,0.0,0.0,0.0,0.0,0.0,0.0,0.0,0.0,0.0,0.0,0.0,0.0,0.0,0.0,0.0,0.0,0.0,0.0,0.0,0.0,0.0,0.0,0.0,0.0,0.0,0.0,0.0,0.0,0.0,0.0,0.0,0.0,0.0,0.0,0.0,0.0,0.0,0.0,0.0,0.0,0.0,0.0,0.283,0.3155,0.3952,0.4738,0.5194,0.5784,0.6191,0.6533,0.714,0.7718,0.0,0.0,0.0,0.0,0.0,0.0,0.0,0.0,0.0,0.0,0.0,0.0,0.0,0.0,0.0,0.0,0.0,0.0,0.0,0.0,0.0,0.0,0.0,0.0,0.0,0.0,0.0,0.0,0.7224,0.7014,0.5233,0.0,0.0,0.0,0.0,0.0,0.0,0.0,0.0,0.0,0.0,0.977,1.0987,1.1742,1.2172,1.2249,1.1584,1.0703,0.9821,1.2642,1.2984,0.7607,0.0,0.0,0.0,0.0,0.0,0.0,0.0,0.0,0.0,0.0,0.0,0.0,0.0,0.0,0.0,0.0,0.0,0.0,0.0,0.0,0.0,0.0,0.0,0.0,0.0,0.0,0.0,0.0,0.0,0.0,0.0,0.0,0.0,0.0,0.0,0.0,0.0,0.0,0.0,0.0,0.0,0.0,0.0,0.0,0.0,0.0,0.0,0.0,0.0,0.0,0.0,0.0,0.0,0.0,0.3337,0.4226,0.4844,0.5255,0.5887,0.6297,0.6305,0.6793,0.7371,0.8169,0.0,0.0,0.0,0.0,0.0,0.0,0.0,0.0,0.0,0.0,0.0,0.0,0.0,0.0,0.0,0.0,0.0,0.0,0.0,0.0,0.0,0.0,0.0,0.0,0.0,0.0,0.2178,0.4101,0.581,0.0,0.0,0.0,0.0,0.0,0.0,0.0,0.0,0.0,0.0,0.9654,1.1287,0.9837,0.9606,0.9873,0.9848,0.7668,0.6913,0.9259,0.9682,0.9708,0.0,0.0,0.0,0.0,0.0,0.0,0.0,0.0,0.0,0.0,0.0,0.0,0.0,0.0,0.0,0.0,0.0,0.0,0.0,0.0,0.0,0.0,0.0,0.0,0.0,0.0,0.0,0.0,0.1853,0.0,0.0,0.0,0.0,0.0,0.0,0.0,0.0,0.0,0.0,0.0,0.3967,0.479,0.0,0.0,0.0,0.0,0.0,0.0,0.0,0.0,0.0,0.0,0.0,0.0,0.3062,0.3395,0.4358,0.5107,0.5569,0.6352,0.6794,0.6998,0.7522,0.795,0.86,0.0,0.0,0.0,0.0,0.0,0.0,0.0,0.0,0.0,0.0,0.0,0.0,0.0,0.0,0.0,0.0,0.0,0.0,0.0,0.0,0.0,0.0,0.0,0.0,0.0,0.5203,0.0,0.0,0.0,0.0,0.0,0.0,0.0,0.0,0.0,0.0,0.0,0.5496,0.6668,0.7328,0.8203,0.9323,0.9557,1.0145,0.0,0.0,0.0,0.0,0.0,0.0,0.0,0.0,0.0,0.0,0.0,0.0,0.0,0.0,0.529,0.3018,0.3998,0.4953,0.4443,0.0,0.0,0.0,0.0,0.0,0.0,0.0,0.0,0.0,0.0,0.0,0.0,0.0,0.0,0.0,0.0,0.5406,0.0,0.0,0.0,0.0,0.0,0.0,0.0,0.0,0.4456,0.5158,0.5338,0.6651,0.7012,0.0,0.6353,0.6731,0.0,0.0,0.0,0.0,0.0,0.0,0.0,0.0,0.3488,0.4151,0.4924,0.556,0.6272,0.6834,0.731,0.7517,0.8079,0.8449,0.8713,0.8694,0.8066,0.0,0.0,0.0,0.0,0.0,0.0,0.0,0.0,0.0,0.0,0.0,0.0,0.0,0.0,0.0,0.0,0.0,0.0,0.0,0.0,0.0,0.0,0.0,0.579,0.0,0.0,0.0,0.0,0.0,0.0,0.0,0.0,0.0,0.4469,0.5816,0.6427,0.5295,0.6919,0.8283,0.8222,0.0,0.0,0.0,0.0,0.0,0.0,0.0,0.6523,0.5206,0.7667,0.9508,0.8321,0.9389,1.0674,1.1851,0.0,0.0,0.6632,0.7388,0.8408,0.7841,0.5583,0.4471,0.6923,0.7204,0.7064,0.0,0.0,0.0,0.0,0.0,0.0,0.0,0.0,0.6298,0.9252,0.0,0.8545,0.0,0.0,0.0,0.0,0.0,0.0,0.0,0.0,0.5884,0.6489,0.6627,0.7261,0.7812,0.8123,0.8257,0.8546,0.8693,0.6219,0.0,0.0,0.0,0.0,0.0,0.0,0.4186,0.5841,0.606,0.6471,0.7231,0.7622,0.7841,0.7855,0.8474,0.8724,0.8709,0.8438,0.8066,0.7493,0.6146,0.0,0.0,0.0,0.0,0.0,0.0,0.0,0.0,0.0,0.0,0.0,0.0,0.0,0.0,0.0,0.0,0.0,0.0,0.0,0.0,0.5534,0.0,0.0,0.0,0.0,0.0,0.0,0.0,0.0,0.0,0.0,0.8723,0.9232,0.7575,0.2823,0.0,0.0,0.0,0.0,0.795,0.3789,0.2952,0.3267,0.3732,0.2779,0.3982,0.9216,0.0,0.0,1.1911,1.2128,1.2302,1.2251,1.2856,1.2481,1.0185,0.9804,0.9815,0.9804,1.0875,1.1226,0.9319,0.9827,1.0284,1.3778,0.0,0.0,0.0,0.0,0.9389,0.8907,0.8193,0.9835,1.0757,1.0819,0.9569,0.0,0.0,0.0,0.0,0.0,0.0,0.5202,0.5957,0.7085,0.7783,0.83,0.886,0.9313,0.95,0.9131,0.9003,0.8949,0.8081,0.7675,0.7967,0.0,0.0,0.0,0.0,0.4927,0.6003,0.6653,0.7174,0.7431,0.7966,0.8464,0.8913,0.8981,0.9157,0.9157,0.9029,0.8799,0.8467,0.8149,0.0,0.0,0.0,0.0,0.0,0.0,0.0,0.0,0.0,0.0,0.0,0.0,0.0,0.0,0.0,0.0,0.0,0.0,0.0,0.5518,0.7184,0.7169,0.0,0.0,0.0,0.0,0.0,0.0,0.0,0.0,0.0,0.7626,0.7155,0.5695,0.0,0.0,0.4699,0.3305,0.5282,0.7102,0.7486,0.0,0.0,0.0,0.679,0.5333,0.9361,1.1143,1.2243,1.2903,1.443,1.5632,1.5617,1.5861,1.5778,1.5196,1.4939,1.4916,1.4939,1.5285,1.5459,1.4765,1.4563,1.4354,1.591,1.4286,1.3721,1.3066,1.2488,1.2201,1.2283,1.2656,1.3065,1.2979,1.2296,1.1558,0.9871,0.7759,0.6198,0.0,0.0,0.0,0.6497,0.7425,0.8164,0.8854,0.9448,0.9912,1.0041,1.0003,0.9677,0.9459,0.934,0.9237,0.9007,0.8757,0.0,0.0,0.7187,0.5912,0.5852,0.7099,0.7612,0.8112,0.8456,0.8872,0.9394,0.9723,0.9735,0.9735,0.9735,0.9735,0.9763,0.9509,0.9382,0.8887,0.0,0.0,0.0,0.0,0.0,0.0,0.0,0.0,0.0,0.0,0.0,0.3158,0.0,0.0,0.0,0.0,0.6878,0.7248,0.7326,0.7872,0.0,0.0,0.0,0.0,0.0,0.0,0.0,0.4927,0.7541,0.8874,0.7127,0.7132,0.6892,0.6218,0.6383,0.6125,0.5128,0.0,0.9065,0.9796,1.014,1.088,1.1975,0.9407,0.8538,1.2253,1.3697,1.4579,1.4784,1.6066,1.7096,1.7112,1.7112,1.7112,1.7112,1.7112,1.7112,1.7112,1.7112,1.7112,1.7112,1.6753,1.6401,1.7518,1.6682,1.565,1.526,1.5325,1.5342,1.5536,1.5853,1.5869,1.5615,1.4998,1.3913,1.2108,0.9766,0.7522,0.0,0.0,0.696,0.7668,0.8972,0.9066,0.9478,1.0221,1.0479,1.0253,1.0036,1.0064,0.9954,0.9822,0.97,0.9656,0.9325,0.7832,0.7573,0.8313,0.6682,0.6836,0.898,0.8949,0.9146,0.9728,1.0101,1.0358,1.0486,1.0486,1.0492,1.0486,1.0486,1.0547,1.0798,1.0076,0.9853,0.9877,0.0,0.0,0.0,0.0,0.0,0.0,0.0,0.0,0.0,0.0,0.0,0.0,0.0,0.0,0.0,0.9186,0.0,1.0445,0.8228,0.0,0.0,0.0,0.6796,0.9125,0.9544,0.9567,0.9359,0.0,0.0,0.0,0.0,1.0474,1.2309,1.2814,1.225,0.9894,1.1574,1.2625,1.0767,1.0751,1.1078,1.1826,1.1605,1.2621,1.5956,1.7112,1.688,1.688,1.708,1.7112,1.7112,1.7112,1.7112,1.7112,1.7112,1.7112,1.7112,1.7112,1.7112,1.7112,1.7112,1.6936,1.8606,1.8355,1.7689,1.6885,1.6073,1.6202,1.6389,1.66,1.673,1.6414,1.5878,1.4877,1.3368,1.1586,1.0863,1.0773,1.1227,1.0433,1.0332,1.1037,1.044,1.0153,1.034,1.0912,1.0849,1.0313,1.1274,1.1503,1.1004,1.0751,1.085,1.0861,0.989,0.9395,0.9331,0.9249,0.9404,0.9907,1.0518,1.0652,1.026,1.0462,1.0633,1.0761,1.0767,1.0767,1.0767,1.0767,1.0928,1.1263,1.1244,1.1147,1.1192,1.0012,0.0,0.0,0.0,0.0,0.0,0.0,0.0,0.0,0.0,0.3493,0.2392,0.0,0.4079,0.0,0.9754,1.2311,1.2532,1.1861,0.0,0.0,0.8845,0.8692,0.9331,1.1199,1.1579,0.9553,1.1169,1.2344,1.1867,1.2237,1.3308,1.5541,1.2755,1.0258,0.9771,1.1894,1.3308,1.2853,1.4202,1.5444,1.5421,1.5564,1.5882,1.6904,1.7112,1.7112,1.7112,1.7112,1.7112,1.7112,1.7112,1.7112,1.7112,1.7112,1.7112,1.7112,1.7112,1.7112,1.7112,1.7112,1.6928,1.9053,1.8956,1.8655,1.7989,1.7136,1.7169,1.7274,1.7445,1.7461,1.721,1.6755,1.5401,1.404,1.2711,1.2615,1.2677,1.2691,1.1829,1.1476,1.1751,1.1003,1.0514,1.046,1.093,1.0999,1.0832,1.1547,1.194,1.1876,1.1734,1.1652,1.1775,1.1279,1.116,1.1104,1.1101,1.0989,1.1016,1.1455,1.1578,1.1212,1.1302,1.1321,1.1417,1.1234,1.107,1.108,1.0895,1.0993,1.1253,1.1341,1.1511,1.1425,1.0707,0.9627,0.0,0.0,0.0,0.0,0.0,0.0,0.0,0.0,0.0,0.0,0.0,0.5949,0.0,1.0819,1.2937,1.1985,1.1808,1.1729,1.1417,1.1218,1.1566,1.2649,1.4099,1.4452,1.3047,1.4138,1.5071,1.5059,1.5019,1.5444,1.688,1.4711,1.2966,1.3058,1.4294,1.5138,1.5153,1.6152,1.7112,1.7112,1.7112,1.7112,1.7112,1.7112,1.7112,1.7112,1.7112,1.7112,1.7112,1.7112,1.7112,1.7112,1.7112,1.7112,1.7112,1.7112,1.7112,1.7112,1.7112,1.6936,1.9167,1.9021,1.8996,1.8712,1.8265,1.8095,1.8054,1.8095,1.7924,1.7648,1.7283,1.5973,1.4695,1.3753,1.3711,1.364,1.338,1.2533,1.2118,1.2275,1.1564,1.1042,1.0913,1.1168,1.1347,1.1628,1.1761,1.2161,1.2649,1.2519,1.2588,1.2546,1.2428,1.2593,1.316,1.2462,1.2175,1.215,1.2294,1.2219,1.2203,1.2175,1.2164,1.2158,1.1586,1.1333,1.1401,1.0974,1.0747,1.1143,1.1165,1.1155,1.1395,1.1057,1.0252,0.0,0.7725,0.0,0.0,0.0,0.0,0.0,0.0,0.0,0.0,0.8323,0.866,0.9484,1.2074,1.2927,1.1199,1.1147,1.1898,1.4087,1.3989,1.4743,1.6808,1.7112,1.7112,1.7112,1.7112,1.7112,1.7071,1.7112,1.7104,1.7104,1.6872,1.6625,1.6896,1.688,1.688,1.7112,1.7112,1.7112,1.7112,1.7112,1.7112,1.7112,1.7112,1.7112,1.7112,1.7112,1.7112,1.7112,1.7112,1.7112,1.7112,1.7112,1.7112,1.7112,1.7112,1.7112,1.7112,1.7112,1.7112,1.924,1.9191,1.9045,1.8923,1.8818,1.8647,1.8249,1.7729,1.7559,1.7291,1.695,1.6639,1.6291,1.59,1.5624,1.564,1.5853,1.4743,1.4282,1.4556,1.3743,1.3108,1.3019,1.3582,1.3367,1.2568,1.3686,1.4075,1.3428,1.3399,1.3558,1.4042,1.3537,1.3514,1.4088,0.0,0.0,0.0,1.2947,1.2904,1.294,1.2692,1.2466,1.2284,1.1942,0.0,1.1286,1.106,1.0966,1.1158,1.1158,0.0,0.0,0.0,0.0,0.0,0.0,0.0,0.0,0.0,0.0,0.0,0.9198,0.9032,0.8491,0.8883,1.0138,1.2326,1.3054,1.4055,1.57,1.577,1.6018,1.6379,1.6427,1.6538,1.7096,1.7112,1.7112,1.7112,1.7112,1.7112,1.7112,1.7112,1.7112,1.7112,1.7112,1.7112,1.7112,1.7112,1.7112,1.7112,1.7112,1.7112,1.7112,1.7112,1.7112,1.7112,1.7112,1.7112,1.7112,1.7112,1.7112,1.7112,1.7112,1.7112,1.7112,1.7112,1.7112,1.7112,1.7112,1.7112,1.7112,1.7112,1.7112,1.9386,0.0,1.9191,1.9021,0.0,1.8761,1.8412,1.7908,1.7908,1.7664,1.7234,1.7055,1.6885,1.6698,1.6332,1.6227,1.63,1.4952,1.4646,1.4967,1.4203,1.3688,1.3782,1.4041,1.3967,1.3749,1.4456,1.4602,1.4368,1.4439,1.4499,1.47,1.442,1.446,1.4838,1.4919,1.4637,1.3847,1.3775,1.3604,1.3603,1.3528,1.3514,1.342,0.0,0.0,0.0,0.0,0.0,0.0,0.0,0.0,0.0,0.0,0.0,1.2993,1.23,1.2078,1.2604,1.1986,1.1881,1.2549,1.3033,1.2677,1.127,1.2406,1.3632,1.4931,1.5059,1.5655,1.6864,1.7112,1.7112,1.7112,1.7112,1.7112,1.7112,1.7112,1.7112,1.7112,1.7112,1.7112,1.7112,1.7112,1.7112,1.7112,1.7112,1.7112,1.7112,1.7112,1.7112,1.7112,1.7112,1.7112,1.7112,1.7112,1.7112,1.7112,1.7112,1.7112,1.7112,1.7112,1.7112,1.7112,1.7112,1.7112,1.7112,1.7112,1.7112,1.7112,1.7112,1.7112,1.7112,1.7112,1.7112,1.9524,1.9459,1.9345,1.9118,1.8818,1.8818,1.8606,1.8273,0.0,0.0,0.0,1.7274,1.7063,1.6877,1.6552,1.6341,1.6044,1.5077,1.4773,1.5059,1.452,1.4295,1.4393,1.4337,1.4433,1.4697,1.4599,1.482,1.5033,1.513,1.5114,1.5,1.5179,1.5301,1.5342,1.5488,1.5168,1.442,1.4499,1.447,1.4289,1.4373,1.4415,1.4389,1.3901,1.3626,1.3555,1.3092,1.2921,1.3084,1.3092,1.3271,1.3628,1.3652,1.3758,1.3969,1.3411,1.3706,1.5329,1.4921,1.5123,1.6317,1.6349,1.5794,1.4449,1.5987,1.7055,1.6909,1.7031,1.7104,1.7112,1.7112,1.7112,1.7112,1.7112,1.7112,1.7112,1.7112,1.7112,1.7112,1.7112,1.7112,1.7112,1.7112,1.7112,1.7112,1.7112,1.7112,1.7112,1.7112,1.7112,1.7112,1.7112,1.7112,1.7112,1.7112,1.7112,1.7112,1.7112,1.7112,1.7112,1.7112,1.7112,1.7112,1.7112,1.7112,1.7112,1.7112,1.7112,1.7112,1.7112,1.7112,1.7112,1.7112,1.7112,1.9573,1.9305,1.9427,1.9362,1.9183,1.9183,1.898,1.8615,1.8184,1.7689,1.7193,1.7299,1.7242,1.7063,1.6868,1.6844,1.6942,1.6583,1.6599,0.0,1.6633,1.6578,1.645,1.6148,1.5894,1.5819,1.5377,1.512,1.5195,1.5065,1.4984,1.5017,1.5309,1.5545,1.5691,1.5723,1.5626,1.5248,1.5112,1.5055,1.508,1.4806,1.4501,1.4294,1.3802,1.3408,1.3181,1.2986,1.2913,1.3084,1.3092,1.3587,1.4659,1.4741,1.5228,1.6251,1.6189,1.6342,1.6812,1.6671,1.6735,1.6872,1.676,1.6607,1.6486,1.6743,1.7104,1.7071,1.7096,1.7112,1.7112,1.7112,1.7112,1.7112,1.7112,1.7112,1.7112,1.7112,1.7112,1.7112,1.7112,1.7112,1.7112,1.7112,1.7112,1.7112,1.7112,1.7112,1.7112,1.7112,1.7112,1.7112,1.7112,1.7112,1.7112,1.7112,1.7112,1.7112,1.7112,1.7112,1.7112,1.7112,1.7112,1.7112,1.7112,1.7112,1.7112,1.7112,1.7112,1.7112,1.7112,1.7112,1.7112,1.7112,1.7112,1.9841,1.9687,1.9565,1.9467,1.9386,1.9297,1.911,1.885,1.8606,1.8135,1.7583,1.764,1.7526,1.7242,1.6974,1.6893,1.6958,1.6682,1.6706,1.6966,1.6966,1.6933,1.6836,1.6576,1.6308,1.604,1.5804,1.5577,1.5398,1.5301,1.5212,1.5139,1.5382,1.565,1.5902,1.5926,1.5886,1.5804,1.5618,1.5528,1.5528,1.5463,1.5358,1.5195,1.5025,1.4919,1.4838,1.4757,1.4797,1.4976,1.4984,1.5293,1.5934,1.5991,1.6292,1.6942,1.699,1.7031,1.7104,1.7112,1.7112,1.7112,1.7039,1.699,1.699,1.7063,1.7112,1.7112,1.7112,1.7112,1.7112,1.7112,1.7112,1.7112,1.7112,1.7112,1.7112,1.7112,1.7112,1.7112,1.7112,1.7112,1.7112,1.7112,1.7112,1.7112,1.7112,1.7112,1.7112,1.7112,1.7112,1.7112,1.7112,1.7112,1.7112,1.7112,1.7112,1.7112,1.7112,1.7112,1.7112,1.7112,1.7112,1.7112,1.7112,1.7112,1.7112,1.7112,1.7112,1.7112,1.7112,1.7112,1.7112,1.7112,1.7112,2.0141,2.0036,1.9711,1.9532,1.9451,1.9354,1.9191,1.8996,1.9021,1.8663,1.8087,1.7997,1.7754,1.738,1.7096,1.6974,1.6925,1.6633,1.6665,1.695,1.6933,1.6909,1.6893,1.673,1.647,1.6178,1.6089,1.5878,1.5601,1.5536,1.5463,1.5382,1.5463,1.5699,1.604,1.6048,1.6048,1.604,1.5902,1.5837,1.5837,1.5975,1.6048,1.6048,1.6073,1.617,1.63,1.6349,1.6454,1.6625,1.6641,1.6722,1.6893,1.6909,1.6966,1.7096,1.7112,1.7112,1.7112,1.7112,1.7112,1.7112,1.7112,1.7112,1.7112,1.7112,1.7112,1.7112,1.7112,1.7112,1.7112,1.7112,1.7112,1.7112,1.7112,1.7112,1.7112,1.7112,1.7112,1.7112,1.7112,1.7112,1.7112,1.7112,1.7112,1.7112,1.7112,1.7112,1.7112,1.7112,1.7112,1.7112,1.7112,1.7112,1.7112,1.7112,1.7112,1.7112,1.7112,1.7112,1.7112,1.7112,1.7112,1.7112,1.7112,1.7112,1.7112,1.7112,1.7112,1.7112,1.7112,1.7112,1.7112,1.7112,1.7112,2.0353,2.0052,1.9841,1.9573,1.9321,1.9435,1.9297,1.9037,1.9159,1.8923,1.8412,1.8233,1.7875,1.7429,1.7356,1.7339,1.7323,1.7128,1.7145,1.7291,1.7161,1.7088,1.7055,1.6901,1.6722,1.6503,1.6211,1.5975,1.5764,1.5601,1.5585,1.5691,1.5585,1.5691,1.6008,1.6048,1.6048,1.6048,1.6032,1.6024,1.6024,1.604,1.6048,1.6048,1.6202,1.6284,1.6324,1.6462,1.6641,1.6803,1.6828,1.6909,1.7063,1.7088,1.7096,1.7104,1.7112,1.7112,1.7112,1.7112,1.7112,1.7112,1.7112,1.7112,1.7112,1.7112,1.7112,1.7112,1.7112,1.7112,1.7112,1.7112,1.7112,1.7112,1.7112,1.7112,1.7112,1.7112,1.7112,1.7112,1.7112,1.7112,1.7112,1.7112,1.7112,1.7112,1.7112,1.7112,1.7112,1.7112,1.7112,1.7112,1.7112,1.7112,1.7112,1.7112,1.7112,1.7112,1.7112,1.7112,1.7112,1.7112,1.7112,1.7112,1.7112,1.7112,1.7112,1.7112,1.7112,1.7112,1.7112,1.7112,1.7112,1.7112,1.7112,2.0353,2.019,1.9906,1.9711,1.9581,1.9532,1.9427,1.9305,1.9264,1.9069,1.8769,1.8582,1.82,1.7713,1.7697,1.7697,1.7689,1.751,1.7461,1.7518,1.7356,1.7169,1.6966,1.6893,1.6763,1.6584,1.643,1.6267,1.6064,1.5804,1.5707,1.5756,1.5699,1.5796,1.6032,1.6048,1.6048,1.6048,1.6146,1.6202,1.6194,1.6202,1.6251,1.6357,1.643,1.6519,1.6625,1.6706,1.682,1.699,1.7006,1.7031,1.7104,1.7112,1.7112,1.7112,1.7112,1.7112,1.7112,1.7112,1.7112,1.7112,1.7112,1.7112,1.7112,1.7112,1.7112,1.7112,1.7112,1.7112,1.7112,1.7112,1.7112,1.7112,1.7112,1.7112,1.7112,1.7112,1.7112,1.7112,1.7112,1.7112,1.7112,1.7112,1.7112,1.7112,1.7112,1.7112,1.7112,1.7112,1.7112,1.7112,1.7112,1.7112,1.7112,1.7112,1.7112,1.7112,1.7112,1.7112,1.7112,1.7112,1.7112,1.7112,1.7112,1.7112,1.7112,1.7112,1.7112,1.7112,1.7112,1.7112,1.7112,1.7112,1.7112,2.0434,2.0353,2.006,1.9882,1.9784,1.9703,1.9605,1.95,1.9378,1.9175,1.8907,1.8777,1.8452,1.8022,1.7892,1.7843,1.7811,1.7599,1.7526,1.7543,1.7396,1.7169,1.6942,1.6925,1.6828,1.6682,1.6649,1.6527,1.6292,1.5943,1.5796,1.5829,1.5804,1.5869,1.6024,1.6048,1.6073,1.6129,1.6243,1.6349,1.6438,1.6454,1.6495,1.6576,1.6633,1.6722,1.6844,1.6901,1.6982,1.7104,1.7112,1.7112,1.7112,1.7112,1.7112,1.7112,1.7112,1.7112,1.7112,1.7112,1.7112,1.7112,1.7112,1.7112,1.7112,1.7112,1.7112,1.7112,1.7112,1.7112,1.7112,1.7112,1.7112,1.7112,1.7112,1.7112,1.7112,1.7112,1.7112,1.7112,1.7112,1.7112,1.7112,1.7112,1.7112,1.7112,1.7112,1.7112,1.7112,1.7112,1.7112,1.7112,1.7112,1.7112,1.7112,1.7112,1.7112,1.7112,1.7112,1.7112,1.7112,1.7112,1.7112,1.7112,1.7112,1.7112,1.7112,1.7112,1.7112,1.7112,1.7112,1.7112,1.7112,1.7112,1.7112,2.0734,2.0556,2.0369,2.0093,1.9808,1.9955,1.9825,1.9532,1.9492,1.9216,1.8801,1.8736,1.8517,1.816,1.7843,1.7664,1.7624,1.7356,1.7299,1.7421,1.7242,1.7128,1.7096,1.7096,1.7006,1.6852,1.6844,1.6665,1.6308,1.5967,1.5861,1.6008,1.5869,1.5878,1.6032,1.6064,1.6137,1.6284,1.6324,1.647,1.6771,1.682,1.6747,1.6641,1.6747,1.6852,1.6877,1.7015,1.7104,1.7112,1.7112,1.7112,1.7112,1.7112,1.7112,1.7112,1.7112,1.7112,1.7112,1.7112,1.7112,1.7112,1.7112,1.7112,1.7112,1.7112,1.7112,1.7112,1.7112,1.7112,1.7112,1.7112,1.7112,1.7112,1.7112,1.7112,1.7112,1.7112,1.7112,1.7112,1.7112,1.7112,1.7112,1.7112,1.7112,1.7112,1.7112,1.7112,1.7112,1.7112,1.7112,1.7112,1.7112,1.7112,1.7112,1.7112,1.7112,1.7112,1.7112,1.7112,1.7112,1.7112,1.7112,1.7112,1.7112,1.7112,1.7112,1.7112,1.7112,1.7112,1.7112,1.7112,1.7112,1.7112,1.7112,2.0523,2.0263,2.0304,2.0239,2.0117,1.9963,1.9808,1.967,1.9443,1.9248,1.9053,1.8834,1.8647,1.8501,1.803,1.7875,1.7949,1.7737,1.7664,1.7705,1.7534,1.7388,1.7291,1.7283,1.7193,1.7039,1.7015,1.6836,1.6495,1.6227,1.6089,1.604,1.5983,1.6032,1.6178,1.6211,1.63,1.647,1.6592,1.6722,1.6852,1.6958,1.6982,1.6925,1.6982,1.7023,1.7015,1.708,1.7112,1.7112,1.7112,1.7112,1.7112,1.7112,1.7112,1.7112,1.7112,1.7112,1.7112,1.7112,1.7112,1.7112,1.7112,1.7112,1.7112,1.7112,1.7112,1.7112,1.7112,1.7112,1.7112,1.7112,1.7112,1.7112,1.7112,1.7112,1.7112,1.7112,1.7112,1.7112,1.7112,1.7112,1.7112,1.7112,1.7112,1.7112,1.7112,1.7112,1.7112,1.7112,1.7112,1.7112,1.7112,1.7112,1.7112,1.7112,1.7112,1.7112,1.7112,1.7112,1.7112,1.7112,1.7112,1.7112,1.7112,1.7112,1.7112,1.7112,1.7112,1.7112,1.7112,1.7112,1.7112,1.7112,1.7112,2.0627,2.0397,2.0271,2.0288,2.0214,1.9979,1.9808,1.9687,1.9443,1.9272,1.9126,1.885,1.8696,1.8574,1.8192,1.8054,1.8135,1.7932,1.7827,1.7819,1.7697,1.7551,1.7413,1.7388,1.7291,1.712,1.7047,1.6893,1.6674,1.6479,1.6332,1.6227,1.6219,1.6276,1.6381,1.6397,1.6487,1.6657,1.6795,1.6877,1.6942,1.7047,1.7112,1.7112,1.7112,1.7112,1.7112,1.7112,1.7112,1.7112,1.7112,1.7112,1.7112,1.7112,1.7112,1.7112,1.7112,1.7112,1.7112,1.7112,1.7112,1.7112,1.7112,1.7112,1.7112,1.7112,1.7112,1.7112,1.7112,1.7112,1.7112,1.7112,1.7112,1.7112,1.7112,1.7112,1.7112,1.7112,1.7112,1.7112,1.7112,1.7112,1.7112,1.7112,1.7112,1.7112,1.7112,1.7112,1.7112,1.7112,1.7112,1.7112,1.7112,1.7112,1.7112,1.7112,1.7112,1.7112,1.7112,1.7112,1.7112,1.7112,1.7112,1.7112,1.7112,1.7112,1.7112,1.7112,1.7112,1.7112,1.7112,1.7112,1.7112,1.7112,1.7112,2.1331,2.0937,2.052,2.0214,2.0093,2.0011,1.9833,1.9557,1.95,1.9297,1.9045,1.8818,1.8663,1.8468,1.8282,1.8184,1.8119,1.7867,1.7729,1.7713,1.7697,1.7599,1.7445,1.7421,1.7299,1.7112,1.695,1.6868,1.682,1.6665,1.6568,1.656,1.6527,1.6535,1.6584,1.6584,1.6674,1.682,1.6877,1.695,1.7088,1.7112,1.7112,1.7112,1.7112,1.7112,1.7112,1.7112,1.7112,1.7112,1.7112,1.7112,1.7112,1.7112,1.7112,1.7112,1.7112,1.7112,1.7112,1.7112,1.7112,1.7112,1.7112,1.7112,1.7112,1.7112,1.7112,1.7112,1.7112,1.7112,1.7112,1.7112,1.7112,1.7112,1.7112,1.7112,1.7112,1.7112,1.7112,1.7112,1.7112,1.7112,1.7112,1.7112,1.7112,1.7112,1.7112,1.7112,1.7112,1.7112,1.7112,1.7112,1.7112,1.7112,1.7112,1.7112,1.7112,1.7112,1.7112,1.7112,1.7112,1.7112,1.7112,1.7112,1.7112,1.7112,1.7112,1.7112,1.7112,1.7112,1.7112,1.7112,1.7112,1.7112,1.7112,2.0808,2.052,2.019,2.0117,2.0028,1.98,1.9605,1.95,1.9394,1.9272,1.9151,1.898,1.8801,1.8631,1.8452,1.8298,1.8168,1.8046,1.8005,1.8005,1.8005,1.7908,1.7746,1.7616,1.7404,1.7145,1.7063,1.6966,1.686,1.6795,1.6714,1.6609,1.6584,1.6649,1.6763,1.6771,1.6852,1.7006,1.7031,1.7063,1.7112,1.7112,1.7112,1.7112,1.7112,1.7112,1.7112,1.7112,1.7112,1.7112,1.7112,1.7112,1.7112,1.7112,1.7112,1.7112,1.7112,1.7112,1.7112,1.7112,1.7112,1.7112,1.7112,1.7112,1.7112,1.7112,1.7112,1.7112,1.7112,1.7112,1.7112,1.7112,1.7112,1.7112,1.7112,1.7112,1.7112,1.7112,1.7112,1.7112,1.7112,1.7112,1.7112,1.7112,1.7112,1.7112,1.7112,1.7112,1.7112,1.7112,1.7112,1.7112,1.7112,1.7112,1.7112,1.7112,1.7112,1.7112,1.7112,1.7112,1.7112,1.7112,1.7112,1.7112,1.7112,1.7112,1.7112,1.7112,1.7112,1.7112,1.7112,1.7112,1.7112,1.7112,1.7112,2.139,2.0828,2.0447,2.0127,1.9841,1.9597,1.9475,1.941,1.9305,1.9264,1.9224,1.9061,1.8923,1.8785,1.8566,1.8395,1.8282,1.8217,1.8176,1.8176,1.8176,1.8079,1.79,1.7656,1.7404,1.7161,1.7112,1.7055,1.6958,1.6942,1.6885,1.6795,1.6779,1.6828,1.6942,1.695,1.7015,1.7096,1.7112,1.7112,1.7112,1.7112,1.7112,1.7112,1.7112,1.7112,1.7112,1.7112,1.7112,1.7112,1.7112,1.7112,1.7112,1.7112,1.7112,1.7112,1.7112,1.7112,1.7112,1.7112,1.7112,1.7112,1.7112,1.7112,1.7112,1.7112,1.7112,1.7112,1.7112,1.7112,1.7112,1.7112,1.7112,1.7112,1.7112,1.7112,1.7112,1.7112,1.7112,1.7112,1.7112,1.7112,1.7112,1.7112,1.7112,1.7112,1.7112,1.7112,1.7112,1.7112,1.7112,1.7112,1.7112,1.7112,1.7112,1.7112,1.7112,1.7112,1.7112,1.7112,1.7112,1.7112,1.7112,1.7112,1.7112,1.7112,1.7112,1.7112,1.7112,1.7112,1.7112,1.7112,1.7112,1.7112,1.7112,2.2481,2.1695,2.0884,2.0301,1.9749,1.97,1.9601,1.9478,1.9264,1.9264,1.9224,1.9094,1.8996,1.8907,1.8639,1.8476,1.8412,1.8249,1.8176,1.8176,1.8168,1.8087,1.7892,1.7607,1.7356,1.7177,1.712,1.7104,1.708,1.708,1.7112,1.7071,1.7055,1.7096,1.7088,1.7104,1.7096,1.7104,1.7112,1.7112,1.7112,1.7112,1.7112,1.7112,1.7112,1.7112,1.7112,1.7112,1.7112,1.7112,1.7112,1.7112,1.7112,1.7112,1.7112,1.7112,1.7112,1.7112,1.7112,1.7112,1.7112,1.7112,1.7112,1.7112,1.7112,1.7112,1.7112,1.7112,1.7112,1.7112,1.7112,1.7112,1.7112,1.7112,1.7112,1.7112,1.7112,1.7112,1.7112,1.7112,1.7112,1.7112,1.7112,1.7112,1.7112,1.7112,1.7112,1.7112,1.7112,1.7112,1.7112,1.7112,1.7112,1.7112,1.7112,1.7112,1.7112,1.7112,1.7112,1.7112,1.7112,1.7112,1.7112,1.7112,1.7112,1.7112,1.7112,1.7112,1.7112,1.7112,1.7112,1.7112,1.7112,1.7112,1.7112,2.2388,2.1695,2.1281,2.0889,2.0708,2.0173,1.9899,2.0054,1.9454,1.9264,1.924,1.9207,1.9102,1.8964,1.8753,1.8582,1.8444,1.8265,1.8176,1.8176,1.8176,1.8079,1.7908,1.7689,1.7478,1.7315,1.7185,1.7112,1.7112,1.7112,1.7112,1.7112,1.7112,1.7112,1.7112,1.7112,1.7112,1.7112,1.7112,1.7112,1.7112,1.7112,1.7112,1.7112,1.7112,1.7112,1.7112,1.7112,1.7112,1.7112,1.7112,1.7112,1.7112,1.7112,1.7112,1.7112,1.7112,1.7112,1.7112,1.7112,1.7112,1.7112,1.7112,1.7112,1.7112,1.7112,1.7112,1.7112,1.7112,1.7112,1.7112,1.7112,1.7112,1.7112,1.7112,1.7112,1.7112,1.7112,1.7112,1.7112,1.7112,1.7112,1.7112,1.7112,1.7112,1.7112,1.7112,1.7112,1.7112,1.7112,1.7112,1.7112,1.7112,1.7112,1.7112,1.7112,1.7112,1.7112,1.7112,1.7112,1.7112,1.7112,1.7112,1.7112,1.7112,1.7112,1.7112,1.7112,1.7112,1.7112,1.7112,1.7112,1.7112,1.7112,1.7112,2.2644,2.1971,2.1765,2.1377,2.0992,2.0286,2.0038,1.984,1.9454,1.9264,1.9264,1.9264,1.9199,1.9077,1.8842,1.8671,1.8541,1.829,1.8184,1.8176,1.8176,1.8079,1.7924,1.7786,1.7632,1.7396,1.7274,1.7185,1.7128,1.7112,1.7112,1.7112,1.7112,1.7112,1.7112,1.7112,1.7112,1.7112,1.7112,1.7112,1.7112,1.7112,1.7112,1.7112,1.7112,1.7112,1.7112,1.7112,1.7112,1.7112,1.7112,1.7112,1.7112,1.7112,1.7112,1.7112,1.7112,1.7112,1.7112,1.7112,1.7112,1.7112,1.7112,1.7112,1.7112,1.7112,1.7112,1.7112,1.7112,1.7112,1.7112,1.7112,1.7112,1.7112,1.7112,1.7112,1.7112,1.7112,1.7112,1.7112,1.7112,1.7112,1.7112,1.7112,1.7112,1.7112,1.7112,1.7112,1.7112,1.7112,1.7112,1.7112,1.7112,1.7112,1.7112,1.7112,1.7112,1.7112,1.7112,1.7112,1.7112,1.7112,1.7112,1.7112,1.7112,1.7112,1.7112,1.7112,1.7112,1.7112,1.7112,1.7112,1.7112,1.7112,1.7112,2.3203,2.2195,2.2022,2.1614,2.1049,2.0432,2.0029,1.9626,1.9446,1.9264,1.9264,1.9264,1.9248,1.924,1.8923,1.8753,1.8728,1.8395,1.8225,1.8184,1.8168,1.8095,1.7981,1.7916,1.7721,1.7469,1.7404,1.7266,1.7153,1.7112,1.7112,1.7112,1.7112,1.7128,1.7161,1.7161,1.7153,1.7201,1.7226,1.7234,1.7234,1.7234,1.7234,1.7234,1.7234,1.7201,1.7177,1.7153,1.7145,1.7112,1.7112,1.7112,1.7112,1.7112,1.7112,1.7112,1.7112,1.7112,1.7112,1.7112,1.7112,1.7112,1.7112,1.7112,1.7112,1.7112,1.7112,1.7112,1.7112,1.7112,1.7112,1.7112,1.7112,1.7112,1.7112,1.7112,1.7112,1.7112,1.7112,1.7112,1.7112,1.7112,1.7112,1.7112,1.7112,1.7112,1.7112,1.7112,1.7112,1.7112,1.7112,1.7112,1.7112,1.7112,1.7112,1.7112,1.7112,1.7112,1.7112,1.7112,1.7112,1.7112,1.7112,1.7112,1.7112,1.7112,1.7112,1.7112,1.7112,1.7112,1.7112,1.7112,1.7112,1.7112,1.7112,2.355,2.28,2.2763,2.2538,2.2032,2.1022,2.062,2.0423,1.9643,1.9256,1.9264,1.9264,1.9264,1.9248,1.9029,1.8931,1.8874,1.8558,1.8322,1.8184,1.8176,1.816,1.8087,1.7997,1.7802,1.7599,1.7445,1.7299,1.7161,1.7145,1.7112,1.7112,1.7161,1.7185,1.7299,1.7323,1.7404,1.7494,1.7518,1.7494,1.7494,1.7494,1.7494,1.7494,1.7502,1.7445,1.7348,1.7331,1.7258,1.7153,1.7128,1.7153,1.712,1.7112,1.7112,1.7112,1.7112,1.7112,1.7112,1.7112,1.7112,1.7112,1.7112,1.7112,1.7112,1.7112,1.7112,1.7112,1.7112,1.7112,1.7112,1.7112,1.7112,1.7112,1.7112,1.7112,1.7112,1.7112,1.7112,1.7112,1.7112,1.7112,1.7112,1.7112,1.7112,1.7112,1.7112,1.7112,1.7112,1.7112,1.7112,1.7112,1.7112,1.7112,1.7112,1.7112,1.7112,1.7112,1.7112,1.7112,1.7112,1.7112,1.7112,1.7112,1.7112,1.7112,1.7112,1.7112,1.7112,1.7112,1.7112,1.7112,1.7112,1.7112,1.7112,2.3493,2.302,2.3011,2.2775,2.2229,2.1603,2.1013,2.0423,1.984,1.9454,1.9256,1.9264,1.9264,1.9248,1.9069,1.898,1.8923,1.8712,1.8476,1.8347,1.8306,1.8257,1.8168,1.8079,1.794,1.7778,1.7689,1.7502,1.7323,1.7291,1.7283,1.7145,1.7266,1.7356,1.7404,1.7461,1.7543,1.7607,1.7648,1.7648,1.764,1.764,1.764,1.764,1.764,1.7591,1.751,1.751,1.7453,1.7388,1.7356,1.7274,1.7136,1.7112,1.7112,1.7112,1.7112,1.7112,1.7112,1.7112,1.7112,1.7112,1.7112,1.7112,1.7112,1.7112,1.7112,1.7112,1.7112,1.7112,1.7112,1.7112,1.7112,1.7112,1.7112,1.7112,1.7112,1.7112,1.7112,1.7112,1.7112,1.7112,1.7112,1.7112,1.7112,1.7112,1.7112,1.7112,1.7112,1.7112,1.7112,1.7112,1.7112,1.7112,1.7112,1.7112,1.7112,1.7112,1.7112,1.7112,1.7112,1.7112,1.7112,1.7112,1.7112,1.7112,1.7112,1.7112,1.7112,1.7112,1.7112,1.7112,1.7112,1.7112,1.7112,2.3361,2.3011,2.2983,2.2746,2.2425,2.1799,2.121,2.0611,2.0235,1.9849,1.9462,1.9462,1.9264,1.9224,1.911,1.9021,1.9142,1.9044,1.8855,1.8699,1.8625,1.8543,1.8249,1.8176,1.8087,1.7965,1.7892,1.7705,1.7534,1.7543,1.7461,1.7291,1.7469,1.7567,1.7526,1.7599,1.7713,1.777,1.7786,1.7778,1.777,1.7762,1.777,1.777,1.777,1.7737,1.7705,1.7681,1.7664,1.7648,1.764,1.7478,1.7291,1.7193,1.7169,1.7169,1.7177,1.7153,1.712,1.7112,1.7112,1.7112,1.7112,1.7112,1.7112,1.7112,1.7112,1.7112,1.7112,1.7112,1.7112,1.7112,1.7112,1.7112,1.7112,1.7112,1.7112,1.7112,1.7112,1.7112,1.7112,1.7112,1.7112,1.7112,1.7112,1.7112,1.7112,1.7112,1.7112,1.7112,1.7112,1.7112,1.7112,1.7112,1.7112,1.7112,1.7112,1.7112,1.7112,1.7112,1.7112,1.7112,1.7112,1.7112,1.7112,1.7112,1.7112,1.7112,1.7112,1.7112,1.7112,1.7112,1.7112,1.7112,1.7112,2.3238,2.3001,2.2831,2.2614,2.2406,2.1799,2.1817,2.1836,2.0637,2.0046,2.0054,1.966,1.9256,1.9248,1.924,1.9322,1.9598,1.9522,1.9413,1.9229,1.9104,1.8986,1.8527,1.8412,1.8152,1.8103,1.8005,1.7811,1.7656,1.7616,1.7616,1.7575,1.7632,1.7697,1.7778,1.7859,1.7932,1.7997,1.8022,1.803,1.803,1.803,1.803,1.803,1.8022,1.7973,1.7892,1.7867,1.7802,1.7656,1.7648,1.7616,1.7575,1.7551,1.7486,1.7364,1.7315,1.7258,1.7169,1.712,1.7112,1.7112,1.7112,1.7112,1.7112,1.7112,1.7112,1.7112,1.7112,1.7112,1.7112,1.7112,1.7112,1.7112,1.7112,1.7112,1.7112,1.7112,1.7112,1.7112,1.7112,1.7112,1.7112,1.7112,1.7112,1.7112,1.7112,1.7112,1.7112,1.7112,1.7112,1.7112,1.7112,1.7112,1.7112,1.7112,1.7112,1.7112,1.7112,1.7112,1.7112,1.7112,1.7112,1.7112,1.7112,1.7112,1.7112,1.7112,1.7112,1.7112,1.7112,1.7112,1.7112,1.7112,1.7112,2.3818,2.3394,2.3192,2.2783,2.2416,2.2191,2.2004,2.1827,2.1219,2.0629,2.0243,1.984,1.9454,1.9256,1.9264,1.9593,1.9919,2.0285,2.013,1.9897,1.9768,1.9595,1.9099,1.8777,1.8566,1.8532,1.8264,1.7957,1.7811,1.7884,1.7802,1.7713,1.7802,1.7924,1.794,1.8005,1.8079,1.8168,1.8176,1.8176,1.8176,1.8176,1.8176,1.8176,1.8176,1.8127,1.8079,1.8054,1.8014,1.794,1.7924,1.7916,1.7908,1.7875,1.7794,1.7567,1.7445,1.7356,1.7242,1.7185,1.7112,1.7112,1.7112,1.7112,1.7112,1.7112,1.7112,1.7112,1.7112,1.7112,1.7112,1.7112,1.7112,1.7112,1.7112,1.7112,1.7112,1.7112,1.7112,1.7112,1.7112,1.7112,1.7112,1.7112,1.7112,1.7112,1.7112,1.7112,1.7112,1.7112,1.7112,1.7112,1.7112,1.7112,1.7112,1.7112,1.7112,1.7112,1.7112,1.7112,1.7112,1.7112,1.7112,1.7112,1.7112,1.7112,1.7112,1.7112,1.7112,1.7112,1.7112,1.7112,1.7112,1.7112,1.7112,2.4356,2.3737,2.3532,2.2942,2.2406,2.2387,2.2191,2.1799,2.1612,2.1013,2.0432,2.0235,1.9849,1.9454,1.9454,1.9643,2.0235,2.0782,2.0571,2.0552,2.0375,2.0,1.9628,1.9125,1.893,1.8744,1.8346,1.8103,1.8014,1.807,1.7981,1.7916,1.807,1.8119,1.803,1.8095,1.8168,1.8176,1.8176,1.8176,1.8176,1.8176,1.8176,1.8176,1.8176,1.8176,1.8152,1.8152,1.8152,1.8144,1.8144,1.816,1.8168,1.8176,1.8038,1.7778,1.7559,1.7445,1.7339,1.721,1.7112,1.7112,1.7112,1.7112,1.7112,1.7112,1.7112,1.7112,1.7112,1.7112,1.7112,1.7112,1.7112,1.7112,1.7112,1.7112,1.7112,1.7112,1.7112,1.7112,1.7112,1.7112,1.7112,1.7112,1.7112,1.7112,1.7112,1.7112,1.7112,1.7112,1.7112,1.7112,1.7112,1.7112,1.7112,1.7112,1.7112,1.7112,1.7112,1.7112,1.7112,1.7112,1.7112,1.7112,1.7112,1.7112,1.7112,1.7112,1.7112,1.7112,1.7112,1.7112,1.7112,1.7112,1.7112,2.4137,2.3532,2.3307,2.2994,2.2397,2.2387,2.2387,2.2191,2.1799,2.1603,2.121,2.0826,2.0432,2.0046,1.9651,2.0235,2.0782,2.0863,2.0941,2.0982,2.0729,2.0359,1.9885,1.9185,1.8938,1.8744,1.8363,1.8168,1.8127,1.8152,1.816,1.8111,1.8103,1.8152,1.8127,1.8152,1.8176,1.8176,1.8176,1.8176,1.8176,1.8176,1.8176,1.8176,1.8176,1.8176,1.8176,1.8176,1.8176,1.8176,1.8176,1.8176,1.8176,1.8176,1.8168,1.803,1.7819,1.7551,1.7413,1.725,1.712,1.712,1.7112,1.7112,1.7112,1.7112,1.7112,1.7112,1.7112,1.7112,1.7112,1.7112,1.7112,1.7112,1.7112,1.7112,1.7112,1.7112,1.7112,1.7112,1.7112,1.7112,1.7112,1.7112,1.7112,1.7112,1.7112,1.7112,1.7112,1.7112,1.7112,1.7112,1.7112,1.7112,1.7112,1.7112,1.7112,1.7112,1.7112,1.7112,1.7112,1.7112,1.7112,1.7112,1.7112,1.7112,1.7112,1.7112,1.7112,1.7112,1.7112,1.7112,1.7112,1.7112,1.7112,2.5762,2.3889,2.366,2.318,2.2387,2.2387,2.2387,2.2387,2.2201,2.1799,2.1603,2.1406,2.1022,2.0629,2.0432,2.1022,2.1566,2.1411,2.144,2.1512,2.1243,2.0842,2.0162,1.9532,1.9302,1.893,1.8549,1.8176,1.8176,1.8176,1.8176,1.8176,1.8176,1.8176,1.8176,1.8176,1.8176,1.8176,1.8176,1.8176,1.8176,1.8176,1.8176,1.8176,1.8176,1.8176,1.8176,1.8176,1.8176,1.8176,1.8176,1.8176,1.8176,1.8176,1.8176,1.8152,1.794,1.7721,1.7551,1.7364,1.7234,1.7128,1.7112,1.7112,1.7112,1.7112,1.7112,1.7112,1.7112,1.7112,1.7112,1.7112,1.7112,1.7112,1.7112,1.7112,1.7112,1.7112,1.7112,1.7112,1.7112,1.7112,1.7112,1.7112,1.7112,1.7112,1.7112,1.7112,1.7112,1.7112,1.7112,1.7112,1.7112,1.7112,1.7112,1.7112,1.7112,1.7112,1.7112,1.7112,1.7112,1.7112,1.7112,1.7112,1.7112,1.7112,1.7112,1.7112,1.7112,1.7112,1.7112,1.7112,1.7112,1.7112,1.7112,2.741,2.498,2.4608,2.3756,2.2779,2.2583,2.2387,2.2387,2.2387,2.2191,2.1799,2.1603,2.1415,2.1219,2.1219,2.1406,2.179,2.1791,2.1788,2.1782,2.1565,2.117,2.049,2.0046,1.9488,1.9116,1.8549,1.8176,1.8176,1.8176,1.8176,1.8176,1.8176,1.8176,1.8176,1.8176,1.8176,1.8176,1.8176,1.8176,1.8176,1.8176,1.8176,1.8176,1.8176,1.8176,1.8176,1.8176,1.8176,1.8176,1.8176,1.8176,1.8176,1.8176,1.8176,1.816,1.803,1.79,1.7705,1.751,1.7339,1.7218,1.712,1.7112,1.7112,1.7112,1.7112,1.7112,1.7112,1.7112,1.7112,1.7112,1.7112,1.7112,1.7112,1.7112,1.7112,1.7112,1.7112,1.7112,1.7112,1.7112,1.7112,1.7112,1.7112,1.7112,1.7112,1.7112,1.7112,1.7112,1.7112,1.7112,1.7112,1.7112,1.7112,1.7112,1.7112,1.7112,1.7112,1.7112,1.7112,1.7112,1.7112,1.7112,1.7112,1.7112,1.7112,1.7112,1.7112,1.7112,1.7112,1.7112,1.7112,1.7112,1.7112,2.8268,2.6897,2.5906,2.473,2.3776,2.2779,2.2397,2.2416,2.2397,2.2387,2.2191,2.1799,2.1808,2.1995,2.1406,2.1603,2.2387,2.1597,2.1615,2.1792,2.1574,2.1376,2.0872,2.0259,1.9674,1.948,1.8735,1.8363,1.8176,1.8363,1.8176,1.8176,1.8176,1.8176,1.8176,1.8176,1.8176,1.8176,1.8176,1.8176,1.8176,1.8176,1.8176,1.8176,1.8176,1.8176,1.8176,1.8176,1.8176,1.8176,1.8176,1.8176,1.8176,1.8176,1.8176,1.816,1.8152,1.803,1.7875,1.764,1.7437,1.7331,1.7218,1.7128,1.7161,1.712,1.7112,1.7112,1.7112,1.7112,1.7112,1.7112,1.7112,1.7112,1.7112,1.7112,1.7112,1.7112,1.7112,1.7112,1.7112,1.7112,1.7112,1.7112,1.7112,1.7112,1.7112,1.7112,1.7112,1.7112,1.7112,1.7112,1.7112,1.7112,1.7112,1.7112,1.7112,1.7112,1.7112,1.7112,1.7112,1.7112,1.7112,1.7112,1.7112,1.7112,1.7112,1.7112,1.7112,1.7112,1.7112,1.7112,1.7112,1.7112,1.7112,2.9766,2.9043,2.7673,2.5918,2.4173,2.299,2.2586,2.2567,2.2453,2.2387,2.2387,2.2191,2.2191,2.2191,2.2191,2.1995,2.2359,2.1985,2.1863,2.1886,2.166,2.1264,2.0768,2.0481,2.0046,1.9674,1.893,1.8557,1.8557,1.859,1.8371,1.8363,1.8371,1.8176,1.8176,1.8176,1.8176,1.8176,1.8176,1.8176,1.8176,1.8176,1.8176,1.8176,1.8176,1.8176,1.8176,1.8176,1.8176,1.8176,1.8176,1.8176,1.8176,1.8176,1.8176,1.8176,1.8176,1.8135,1.8054,1.7835,1.7681,1.7486,1.7299,1.7153,1.7218,1.7177,1.712,1.7112,1.7112,1.7112,1.7112,1.7112,1.7112,1.7112,1.7112,1.7112,1.7112,1.7112,1.7112,1.7112,1.7112,1.7112,1.7112,1.7112,1.7112,1.7112,1.7112,1.7112,1.7112,1.7112,1.7112,1.7112,1.7112,1.7112,1.7112,1.7112,1.7112,1.7112,1.7112,1.7112,1.7112,1.7112,1.7112,1.7112,1.7112,1.7112,1.7112,1.7112,1.7112,1.7112,1.7112,1.7112,1.7112,1.7112,1.7112,3.0959,3.0573,2.9163,2.7221,2.5387,2.4117,2.3502,2.3265,2.3071,2.2583,2.2387,2.2387,2.2387,2.2387,2.2387,2.2387,2.2359,2.2255,2.216,2.2009,2.182,2.1404,2.1076,2.06,2.034,1.994,1.9567,1.9202,1.9219,1.9253,1.9023,1.8794,1.8599,1.8615,1.8176,1.8176,1.8176,1.8176,1.8176,1.8176,1.8176,1.8176,1.8176,1.8176,1.8176,1.8176,1.8176,1.8176,1.8176,1.8176,1.8176,1.8176,1.8176,1.8176,1.8176,1.8176,1.8176,1.8176,1.8127,1.7957,1.7762,1.7518,1.7283,1.721,1.7234,1.7185,1.712,1.7112,1.7112,1.7112,1.7112,1.7112,1.7112,1.7112,1.7112,1.7112,1.7112,1.7112,1.7112,1.7112,1.7112,1.7112,1.7112,1.7112,1.7112,1.7112,1.7112,1.7112,1.7112,1.7112,1.7112,1.7112,1.7112,1.7112,1.7112,1.7112,1.7112,1.7112,1.7112,1.7112,1.7112,1.7112,1.7112,1.7112,1.7112,1.7112,1.7112,1.7112,1.7112,1.7112,1.7112,1.7112,1.7112,1.7112,1.7112,3.132,3.1011,2.9712,2.8591,2.7577,2.6376,2.5293,2.4264,2.3856,2.317,2.2387,2.2387,2.2387,2.2387,2.2387,2.2387,2.2387,2.2359,2.2283,2.2123,2.2009,2.1811,2.1423,2.1095,2.0879,2.0521,2.0135,1.9938,1.992,2.0017,1.9938,1.9602,1.9397,1.9236,1.8371,1.8176,1.8176,1.8176,1.8176,1.8176,1.8176,1.8176,1.8176,1.8176,1.8176,1.8176,1.8176,1.8176,1.8176,1.8176,1.8176,1.8176,1.8176,1.8176,1.8176,1.8176,1.8176,1.8176,1.816,1.7843,1.7632,1.7494,1.7307,1.7161,1.7145,1.712,1.7112,1.7112,1.7112,1.7112,1.7112,1.7112,1.7112,1.7112,1.7112,1.7112,1.7112,1.7112,1.7112,1.7112,1.7112,1.7112,1.7112,1.7112,1.7112,1.7112,1.7112,1.7112,1.7112,1.7112,1.7112,1.7112,1.7112,1.7112,1.7112,1.7112,1.7112,1.7112,1.7112,1.7112,1.7112,1.7112,1.7112,1.7112,1.7112,1.7112,1.7112,1.7112,1.7112,1.7112,1.7112,1.7112,1.7112,1.7112,1.7112,3.1088,3.1035,3.0057,2.932,2.8614,2.7115,2.5577,2.4284,2.3474,2.2779,2.2387,2.2387,2.2387,2.2387,2.2387,2.2387,2.2387,2.2387,2.2312,2.2283,2.217,2.1934,2.1745,2.1479,2.1243,2.1169,2.08,2.0638,2.0521,2.0665,2.0324,1.9762,1.9584,1.9167,1.8752,1.8371,1.8176,1.8176,1.8176,1.8176,1.8176,1.8176,1.8176,1.8176,1.8176,1.8176,1.8176,1.8176,1.8176,1.8176,1.8176,1.8176,1.8176,1.8176,1.8176,1.8176,1.8176,1.8176,1.8087,1.7875,1.7705,1.7567,1.7356,1.7177,1.7258,1.7161,1.7128,1.7112,1.7112,1.7112,1.7112,1.7112,1.7112,1.7112,1.7112,1.7112,1.7112,1.7112,1.7112,1.7112,1.7112,1.7112,1.7112,1.6936,1.6761,1.6936,1.6936,1.7112,1.7112,1.7112,1.7112,1.7112,1.7112,1.7112,1.7112,1.7112,1.7112,1.7112,1.7112,1.7112,1.7112,1.7112,1.7112,1.7112,1.7112,1.7112,1.7112,1.7112,1.7112,1.7112,1.7112,1.7112,1.7112,1.7112,1.7112,3.1281,3.1205,3.0556,3.0166,2.9689,2.8065,2.6496,2.4784,2.3434,2.2779,2.2387,2.2387,2.2387,2.2387,2.2387,2.2387,2.2387,2.2387,2.2387,2.2368,2.2264,2.2085,2.1952,2.1886,2.1839,2.1745,2.1582,2.1238,2.1155,2.1127,2.098,2.0421,1.9762,1.9567,1.915,1.8735,1.8176,1.8176,1.8176,1.8176,1.8176,1.8176,1.8176,1.8176,1.8176,1.8176,1.8176,1.8176,1.8176,1.8176,1.8176,1.8176,1.8176,1.8176,1.8176,1.8176,1.8176,1.8152,1.8014,1.7827,1.7681,1.7632,1.7315,1.7201,1.7258,1.7161,1.7128,1.7112,1.7112,1.7112,1.7112,1.7112,1.7112,1.7112,1.7112,1.7112,1.7112,1.7112,1.7112,1.7112,1.7112,1.6936,1.6928,1.6585,1.6409,1.6585,1.6753,1.6936,1.7112,1.7112,1.7112,1.7112,1.7112,1.7112,1.7112,1.7112,1.7112,1.7112,1.7112,1.7112,1.7112,1.7112,1.7112,1.7112,1.7112,1.7112,1.7112,1.7112,1.7112,1.7112,1.7112,1.7112,1.7112,1.7112,1.7112,3.2091,3.1952,3.123,3.0789,3.0392,2.9225,2.7502,2.555,2.4351,2.3365,2.2564,2.2545,2.234,2.2359,2.2368,2.2368,2.2387,2.2387,2.2387,2.2387,2.234,2.2208,2.2132,2.2085,2.2038,2.2056,2.2075,2.1863,2.2066,2.1676,2.1479,2.1301,2.0412,1.9967,1.9328,1.8735,1.8363,1.8176,1.8176,1.8176,1.8176,1.8176,1.8176,1.8176,1.8176,1.8176,1.8176,1.8176,1.8176,1.8176,1.8176,1.8176,1.8176,1.8176,1.8176,1.8176,1.8176,1.8095,1.7949,1.7754,1.7583,1.7494,1.7258,1.7145,1.712,1.7128,1.712,1.7112,1.7112,1.7112,1.7112,1.7112,1.7112,1.7112,1.7112,1.7112,1.7112,1.6936,1.7112,1.6936,1.6936,1.6936,1.6577,1.6225,1.6057,1.6401,1.6577,1.6928,1.6936,1.7112,1.7112,1.7112,1.7112,1.7112,1.7112,1.7112,1.7112,1.7112,1.7112,1.7112,1.7112,1.7112,1.7112,1.7112,1.7112,1.7112,1.7112,1.7112,1.7112,1.7112,1.7112,1.7112,1.7112,1.7112,1.7112,3.1726,3.1513,3.0626,3.0139,2.9704,2.8922,2.8003,2.6711,2.5009,2.3686,2.3138,2.2567,2.2179,2.2179,2.2179,2.2264,2.2349,2.2387,2.2387,2.2378,2.2359,2.2245,2.2198,2.2198,2.2189,2.217,2.2179,2.217,2.2028,2.1867,2.1584,2.1291,2.0563,2.0109,1.9515,1.8735,1.8363,1.8176,1.8176,1.8176,1.8176,1.8176,1.8176,1.8176,1.8176,1.8176,1.8176,1.8176,1.8176,1.8176,1.8176,1.8176,1.8176,1.8176,1.8176,1.8176,1.816,1.8103,1.7924,1.7746,1.7559,1.738,1.721,1.7136,1.7112,1.7112,1.7112,1.7112,1.7112,1.7112,1.7112,1.7112,1.6936,1.6936,1.6936,1.6761,1.6761,1.6761,1.6761,1.6577,1.6585,1.6401,1.6049,1.5881,1.5704,1.6225,1.6401,1.6577,1.6936,1.6936,1.7112,1.7112,1.7112,1.7112,1.7112,1.7112,1.7112,1.7112,1.7112,1.7112,1.7112,1.7112,1.7112,1.7112,1.7112,1.7112,1.7112,1.7112,1.7112,1.7112,1.7112,1.7112,1.7112,1.6936,1.6936,3.1341,3.0988,3.0453,2.9684,2.9202,2.8642,2.8224,2.7604,2.5862,2.4703,2.3627,2.2961,2.2394,2.2094,2.2113,2.2198,2.2378,2.2293,2.2283,2.2378,2.2312,2.2274,2.2255,2.2227,2.2179,2.216,2.2113,2.2075,2.199,2.1858,2.1603,2.1206,2.0472,2.01,1.9506,1.8922,1.8363,1.8176,1.8176,1.8176,1.8176,1.8176,1.8176,1.8176,1.8176,1.8176,1.8176,1.8176,1.8176,1.8176,1.8176,1.8176,1.8176,1.8176,1.8176,1.8176,1.8168,1.803,1.7835,1.7713,1.7518,1.7331,1.7177,1.7136,1.7112,1.7112,1.7112,1.7112,1.7112,1.7112,1.6936,1.6928,1.6928,1.6753,1.6585,1.6409,1.6409,1.6409,1.6233,1.6049,1.6049,1.5873,1.5697,1.5352,1.5352,1.5521,1.6049,1.6225,1.6585,1.6936,1.7112,1.7112,1.7112,1.7112,1.7112,1.7112,1.7112,1.7112,1.7112,1.7112,1.7112,1.7112,1.7112,1.7112,1.7112,1.7112,1.7112,1.7112,1.7112,1.7112,1.6928,1.6753,1.6753,1.6569,1.6577,3.1049,3.0822,3.0241,2.9479,2.8728,2.8363,2.8318,2.832,2.7106,2.5681,2.4111,2.3375,2.2823,2.2327,2.2192,2.2113,2.2198,2.217,2.2208,2.2359,2.2208,2.2189,2.2264,2.2179,2.2094,2.2009,2.1952,2.1924,2.199,2.1849,2.1565,2.1206,2.0741,2.0358,1.9683,1.9116,1.8557,1.8176,1.8176,1.8176,1.8176,1.8176,1.8176,1.8176,1.8176,1.8176,1.8176,1.8176,1.8176,1.8176,1.8176,1.8176,1.8176,1.8176,1.8176,1.8176,1.8176,1.7981,1.7786,1.7656,1.7445,1.7266,1.7112,1.7112,1.7112,1.7112,1.7112,1.7112,1.7112,1.7112,1.7112,1.6753,1.6577,1.6401,1.6233,1.6057,1.5704,1.5881,1.5881,1.5697,1.5521,1.5344,1.5344,1.4999,1.5006,1.5175,1.5344,1.5881,1.6409,1.6761,1.6936,1.7112,1.7112,1.7112,1.7112,1.7112,1.7112,1.7112,1.7112,1.7112,1.7112,1.7112,1.7112,1.7112,1.7112,1.7112,1.7112,1.7112,1.7112,1.7112,1.6928,1.6569,1.6386,1.6217,1.6217,3.0862,3.0795,2.9857,2.898,2.8083,2.7908,2.7944,2.798,2.7541,2.6608,2.5595,2.4051,2.3034,2.2835,2.2392,2.2116,2.2183,2.2452,2.2113,2.2373,2.2307,2.2402,2.2283,2.2094,2.199,2.199,2.1915,2.1716,2.1669,2.1603,2.1518,2.1206,2.0695,2.0277,1.9674,1.9116,1.8744,1.8176,1.8176,1.8176,1.8176,1.8176,1.8176,1.8176,1.8176,1.8176,1.8176,1.8176,1.8176,1.8176,1.8176,1.8176,1.8176,1.8176,1.8176,1.8176,1.8168,1.7973,1.7762,1.7616,1.7453,1.7242,1.7112,1.7112,1.7112,1.7112,1.7112,1.7112,1.7112,1.7112,1.6936,1.6577,1.6401,1.6225,1.5881,1.5528,1.5175,1.5175,1.5352,1.5175,1.5175,1.4999,1.4822,1.4822,1.4822,1.4822,1.4999,1.5352,1.6233,1.6761,1.6936,1.6936,1.7112,1.7112,1.7112,1.7112,1.7112,1.7112,1.7112,1.7112,1.7112,1.7112,1.7112,1.7112,1.7112,1.7112,1.7112,1.7112,1.7112,1.6936,1.6761,1.6401,1.5866,1.569,1.5697,3.0515,3.0239,2.9624,2.8938,2.8384,2.8001,2.7877,2.7901,2.7585,2.7377,2.7002,2.5284,2.4133,2.3956,2.3341,2.3184,2.3264,2.3294,2.3648,2.3525,2.2876,2.3004,2.2751,2.2221,2.1962,2.1924,2.1745,2.1556,2.1395,2.1433,2.1395,2.1196,2.0603,2.0223,1.9666,1.9116,1.8744,1.8176,1.8176,1.8176,1.8176,1.8176,1.8176,1.8176,1.8176,1.8176,1.8176,1.8176,1.8176,1.8176,1.8176,1.8176,1.8176,1.8176,1.8176,1.8176,1.8135,1.8022,1.7762,1.7599,1.7469,1.7242,1.7112,1.7112,1.7112,1.7112,1.7112,1.7112,1.7112,1.7112,1.6936,1.6577,1.6225,1.5881,1.5352,1.4829,1.4653,1.4653,1.4829,1.4829,1.4646,1.4646,1.4469,1.4469,1.4476,1.4653,1.4822,1.5168,1.5881,1.6585,1.6761,1.6936,1.7112,1.7112,1.7112,1.7112,1.7112,1.7112,1.7112,1.7112,1.7112,1.7112,1.7112,1.7112,1.7112,1.7112,1.7112,1.6936,1.6753,1.6577,1.6401,1.6057,1.5697,1.5161,1.4815,3.0034,2.9681,2.9532,2.9118,2.878,2.822,2.8161,2.8112,2.795,2.8045,2.8207,2.6771,2.603,2.5425,2.4955,2.5115,2.5044,2.4262,2.4642,2.4556,2.393,2.3597,2.3212,2.2779,2.2373,2.2029,2.1696,2.1544,2.1215,2.13,2.131,2.1187,2.0788,2.0223,1.9674,1.9302,1.8735,1.8363,1.8176,1.8176,1.8176,1.8176,1.8176,1.8176,1.8176,1.8176,1.8176,1.8176,1.8176,1.8176,1.8176,1.8176,1.8176,1.8176,1.8176,1.8176,1.8176,1.7981,1.7737,1.764,1.7421,1.7218,1.7145,1.7112,1.7112,1.7112,1.7112,1.7112,1.7112,1.6936,1.6761,1.6409,1.6057,1.555,1.502,1.434,1.434,1.434,1.434,1.4333,1.4319,1.4312,1.4299,1.4299,1.4299,1.4476,1.4646,1.4999,1.5344,1.6057,1.6409,1.6761,1.7112,1.7112,1.7112,1.7112,1.7112,1.7112,1.7112,1.7112,1.7112,1.7112,1.7112,1.7112,1.7112,1.7112,1.6928,1.6753,1.6393,1.6217,1.5873,1.5704,1.4985,1.4455,1.3932,2.9083,2.8679,2.8556,2.8358,2.8195,2.8041,2.8,2.8007,2.8344,2.85,2.8668,2.8319,2.7475,2.6624,2.551,2.5339,2.5571,2.5098,2.4538,2.4415,2.4565,2.4072,2.3493,2.3044,2.2516,2.2241,2.1869,2.1586,2.1372,2.141,2.1225,2.1168,2.1178,2.0612,1.986,1.9488,1.9133,1.8566,1.8192,1.82,1.8176,1.8176,1.8176,1.8176,1.8176,1.8176,1.8176,1.8176,1.8176,1.8176,1.8176,1.8176,1.8176,1.8176,1.8176,1.8176,1.8176,1.7973,1.777,1.7664,1.7445,1.7169,1.7112,1.7112,1.7112,1.7112,1.7112,1.7112,1.7112,1.7112,1.6761,1.6233,1.5704,1.5417,1.4921,1.4627,1.4482,1.4475,1.4468,1.4428,1.4373,1.4346,1.4299,1.4299,1.4299,1.4299,1.4299,1.4822,1.5528,1.5881,1.6233,1.6585,1.7112,1.7112,1.7112,1.7112,1.7112,1.7112,1.7112,1.7112,1.7112,1.7112,1.7112,1.6936,1.6936,1.6928,1.6753,1.6225,1.6049,1.5697,1.5528,1.5175,1.4462,1.3748,1.3224]}]]